[[{"header":{"parameterUnit":"m.s-1","parameterCategory":1,"la1":30.6,"la2":29.2853,"lo1":-89.7004,"lo2":-87.6739,"dx":0.0162,"dy":0.0183,"nx":112,"ny":82,"refTime":"2022-11-05T18:00:00:Z","depth":0,"parameterNumber":2,"parameterNumberName":"U-component_of_WINDS"},"data":[0.0,0.0,0.0,0.0,0.0,0.0,0.0,0.0,0.0,0.0,0.0,0.0,0.0,0.0,0.0,0.0,0.0,0.0,0.0,0.0,0.0,0.0,0.0,0.0,0.0,0.0,0.0,0.0,0.0,0.0,0.0,0.0,0.0,0.0,0.0,0.0,0.0,0.0,0.0,0.0,0.0,0.0,0.0,0.0,0.0,0.0,0.0,0.0,0.0,0.0,0.0,0.0,0.0,0.0,0.0,0.0,0.0,0.0,0.0,0.0,0.0,0.0,0.0,0.0,0.0,0.0,0.0,0.0,0.0,0.0,0.0,0.0,0.0,0.0,0.0,0.0,0.0,0.0,0.0,0.0,0.0,0.0,0.0,0.0,0.0,0.0,0.0,0.0,0.0,0.0,0.7173,0.7736,0.7892,0.8006,0.8083,0.7882,0.7806,0.7949,0.0,0.0,0.0,0.0,0.0,0.0,0.0,0.0,0.0,0.0,0.0,0.0,0.0,0.0,0.0,0.0,0.0,0.0,0.0,0.0,0.0,0.0,0.0,0.0,0.0,0.0,0.0,0.0,0.0,0.0,0.0,0.0,0.0,0.0,0.0,0.0,0.0,0.0,0.0,0.0,0.0,0.0,0.0,0.0,0.0,0.0,0.0,0.0,0.0,0.0,0.0,0.0,0.0,0.0,0.0,0.0,0.0,0.0,0.0,0.0,0.0,0.0,0.0,0.0,0.0,0.0,0.0,0.0,0.0,0.0,0.0,0.0,0.0,0.0,0.0,0.0,0.0,0.0,0.0,0.0,0.0,0.0,0.0,0.0,0.0,0.0,0.0,0.0,0.0,0.0,0.0,0.0,0.0,0.0,0.0,0.0,0.0,0.0,0.0,0.0,0.0,0.0,0.0,0.0,0.7314,0.7766,0.7521,0.7546,0.8063,0.7757,0.7488,0.7334,0.0,0.0,0.0,0.0,0.0,0.0,0.0,0.0,0.0,0.0,0.0,0.0,0.0,0.0,0.0,0.0,0.0,0.0,0.0,0.0,0.0,0.0,0.0,0.0,0.0,0.0,0.0,0.0,0.0,0.0,0.0,0.0,0.0,0.0,0.0,0.0,0.0,0.0,0.0,0.0,0.0,0.0,0.0,0.0,0.0,0.0,0.0,0.0,0.0,0.0,0.0,0.0,0.0,0.0,0.0,0.0,0.0,0.0,0.0,0.0,0.0,0.0,0.0,0.0,0.0,0.0,0.0,0.0,0.0,0.0,0.0,0.0,0.0,0.0,0.0,0.0,0.0,0.0,0.0,0.0,0.0,0.0,0.0,0.0,0.0,0.0,0.0,0.0,0.0,0.0,0.0,0.0,0.0,0.0,0.0,0.0,0.0,0.0,0.0,0.0,0.0,0.0,0.0,0.6256,0.6249,0.6426,0.6286,0.6325,0.671,0.6672,0.6691,0.6872,0.743,0.0,0.0,0.0,0.0,0.0,0.0,0.0,0.0,0.0,0.0,0.0,0.0,0.0,0.0,0.0,0.0,0.0,0.0,0.0,0.0,0.0,0.0,0.0,0.0,0.0,0.0,0.0,0.0,0.0,0.0,0.0,0.0,0.0,0.0,0.0,0.0,0.0,0.0,0.0,0.0,0.0,0.0,0.0,0.0,0.0,0.0,0.0,0.0,0.0,0.0,0.0,0.0,0.0,0.0,0.0,0.0,0.0,0.0,0.0,0.0,0.0,0.0,0.0,0.0,0.0,0.0,0.0,0.0,0.0,0.0,0.0,0.0,0.0,0.0,0.0,0.0,0.0,0.0,0.0,0.0,0.0,0.0,0.0,0.0,0.0,0.0,0.0,0.0,0.0,0.0,0.0,0.0,0.0,0.0,0.0,0.0,0.0,0.0,0.0,0.0,0.0,0.0,0.5571,0.541,0.5528,0.5489,0.5548,0.5759,0.5857,0.6048,0.6328,0.6643,0.0,0.0,0.0,0.0,0.0,0.0,0.0,0.0,0.0,0.0,0.0,0.0,0.0,0.0,0.0,0.0,0.0,0.0,0.0,0.0,0.0,0.0,0.0,0.0,0.0,0.0,0.0,0.0,0.0,0.0,0.0,0.0,0.0,0.0,0.0,0.0,0.0,0.0,0.0,0.0,0.0,0.0,0.0,0.0,0.0,0.0,0.0,0.0,0.0,0.0,0.0,0.0,0.0,0.0,0.0,0.0,0.0,0.0,0.0,0.0,0.0,0.0,0.0,0.0,0.0,0.0,0.0,0.0,0.0,0.0,0.0,0.0,0.0,0.0,0.0,0.0,0.0,0.0,0.0,0.0,0.0,0.0,0.0,0.0,0.0,0.0,0.0,0.0,0.0,0.0,0.0,0.0,0.0,0.0,0.0,0.0,0.0,0.0,0.0,0.0,0.0,0.0,0.5626,0.5744,0.6179,0.6069,0.6021,0.6228,0.6083,0.587,0.5589,0.5668,0.0,0.0,0.0,0.0,0.0,0.0,0.0,0.0,0.0,0.0,0.0,0.0,0.0,0.0,0.0,0.0,0.0,0.0,0.0,0.0,0.0,0.0,0.0,0.0,0.0,0.0,0.0,0.0,0.0,0.0,0.0,0.0,0.0,0.0,0.0,0.0,0.0,0.0,0.0,0.0,0.0,0.0,0.0,0.0,0.0,0.0,0.0,0.0,0.0,0.0,0.0,0.0,0.0,0.0,0.0,0.0,0.0,0.0,0.0,0.0,0.0,0.0,0.0,0.0,0.0,0.0,0.0,0.0,0.0,0.0,0.0,0.0,0.0,0.0,0.0,0.0,0.0,0.0,0.0,0.0,0.0,0.0,0.0,0.0,0.0,0.0,0.0,0.0,0.0,0.0,0.0,0.0,0.0,0.0,0.0,0.0,0.0,0.0,0.0,0.0,0.0,0.0,0.4989,0.5007,0.5391,0.5286,0.522,0.5303,0.5491,0.5482,0.5142,0.0,0.0,0.0,0.0,0.0,0.0,0.0,0.0,0.0,0.0,0.0,0.0,0.0,0.0,0.0,0.0,0.0,0.0,0.0,0.0,0.0,0.0,0.0,0.0,0.0,0.0,0.0,0.0,0.0,0.0,0.0,0.0,0.0,0.0,0.0,0.0,0.0,0.0,0.0,0.0,0.0,0.0,0.0,0.0,0.0,0.0,0.0,0.0,0.0,0.0,0.0,0.0,0.0,0.0,0.0,0.0,0.0,0.0,0.0,0.0,0.0,0.0,0.0,0.0,0.0,0.0,0.0,0.0,0.0,0.0,0.0,0.0,0.0,0.0,0.0,0.0,0.0,0.0,0.0,0.0,0.0,0.0,0.0,0.0,0.0,0.0,0.0,0.0,0.0,0.0,0.0,0.0,0.0,0.0,0.0,0.0,0.0,0.0,0.0,0.0,0.0,0.0,0.4961,0.4706,0.4664,0.51,0.4951,0.4799,0.4799,0.5097,0.5105,0.4738,0.0,0.0,0.0,0.0,0.0,0.0,0.0,0.0,0.0,0.0,0.0,0.0,0.0,0.0,0.0,0.0,0.0,0.0,0.0,0.0,0.0,0.0,0.0,0.0,0.0,0.0,0.0,0.0,0.0,0.0,0.0,0.0,0.0,0.0,0.0,0.0,0.0,0.0,0.0,0.0,0.0,0.0,0.0,0.0,0.0,0.0,0.0,0.0,0.0,0.0,0.0,0.0,0.0,0.0,0.0,0.0,0.0,0.0,0.0,0.0,0.0,0.0,0.0,0.0,0.0,0.0,0.0,0.0,0.0,0.0,0.0,0.0,0.0,0.0,0.0,0.0,0.0,0.0,0.0,0.0,0.0,0.0,0.0,0.0,0.0,0.0,0.0,0.0,0.0,0.0,0.0,0.0,0.0,0.0,0.0,0.0,0.0,0.0,0.0,0.0,0.0,0.0,0.5196,0.4951,0.4951,0.563,0.5275,0.5013,0.5008,0.4986,0.4788,0.0,0.0,0.0,0.0,0.0,0.0,0.0,0.0,0.0,0.0,0.0,0.0,0.0,0.0,0.0,0.0,0.0,0.0,0.0,0.0,0.0,0.0,0.0,0.0,0.0,0.0,0.0,0.0,0.0,0.0,0.0,0.0,0.0,0.0,0.0,0.0,0.0,0.0,0.0,0.0,0.0,0.0,0.0,0.0,0.0,0.0,0.0,0.0,0.0,0.0,0.0,0.0,0.0,0.0,0.0,0.0,0.0,0.0,0.0,0.0,0.0,0.0,0.0,0.0,0.0,0.0,0.0,0.0,0.0,0.0,0.0,0.0,0.0,0.0,0.0,0.0,0.0,0.0,0.0,0.0,0.0,0.0,0.0,0.0,0.0,0.0,0.0,0.0,0.0,0.0,0.0,0.0,0.0,0.0,0.0,0.0,0.0,0.0,0.0,0.0,0.0,0.0,0.0,0.4954,0.4993,0.5116,0.5446,0.5237,0.5044,0.4995,0.4879,0.4641,0.4317,0.0,0.0,0.0,0.0,0.0,0.0,0.0,0.0,0.0,0.0,0.0,0.0,0.0,0.0,0.0,0.0,0.0,0.0,0.0,0.0,0.0,0.0,0.0,0.0,0.0,0.0,0.0,0.0,0.0,0.0,0.0,0.0,0.0,0.0,0.0,0.0,0.0,0.0,0.0,0.0,0.0,0.0,0.0,0.0,0.0,0.0,0.0,0.0,0.0,0.0,0.0,0.0,0.0,0.0,0.0,0.0,0.0,0.0,0.0,0.0,0.0,0.0,0.0,0.0,0.0,0.0,0.0,0.0,0.0,0.0,0.0,0.0,0.0,0.0,0.0,0.0,0.0,0.0,0.0,0.0,0.0,0.0,0.0,0.0,0.0,0.0,0.0,0.0,0.0,0.0,0.0,0.0,0.0,0.0,0.0,0.0,0.0,0.0,0.0,0.0,0.0,0.0,0.4864,0.4907,0.4991,0.5206,0.4995,0.4785,0.4728,0.4534,0.4321,0.4122,0.0,0.0,0.0,0.0,0.0,0.0,0.0,0.0,0.0,0.0,0.0,0.0,0.0,0.0,0.0,0.0,0.0,0.0,0.0,0.0,0.0,0.0,0.0,0.0,0.0,0.0,0.0,0.0,0.0,0.0,0.0,0.0,0.0,0.0,0.0,0.0,0.0,0.0,0.0,0.0,0.0,0.0,0.0,0.0,0.0,0.0,0.0,0.0,0.0,0.0,0.0,0.0,0.0,0.0,0.0,0.0,0.0,0.0,0.0,0.0,0.0,0.0,0.0,0.0,0.0,0.0,0.0,0.0,0.0,0.0,0.0,0.0,0.0,0.0,0.0,0.0,0.0,0.0,0.0,0.0,0.0,0.0,0.0,0.0,0.0,0.0,0.0,0.0,0.0,0.0,0.0,0.0,0.0,0.0,0.0,0.0,0.0,0.0,0.0,0.0,0.0,0.0,0.4895,0.4808,0.4801,0.4985,0.4684,0.4422,0.4332,0.4124,0.3938,0.3823,0.0,0.0,0.0,0.0,0.0,0.0,0.0,0.0,0.0,0.0,0.0,0.0,0.0,0.0,0.0,0.0,0.0,0.0,0.0,0.0,0.0,0.0,0.0,0.0,0.0,0.0,0.0,0.0,0.0,0.0,0.0,0.0,0.0,0.0,0.0,0.0,0.0,0.0,0.0,0.0,0.0,0.0,0.0,0.0,0.0,0.0,0.0,0.0,0.0,0.0,0.0,0.0,0.0,0.0,0.0,0.0,0.0,0.0,0.0,0.0,0.7585,0.699,0.0,0.0,0.0,0.0,0.0,0.0,0.0,0.0,0.0,0.0,0.0,0.0,0.0,0.0,0.0,0.0,0.0,0.0,0.0,0.0,0.0,0.0,0.0,0.0,0.0,0.0,0.0,0.0,0.0,0.0,0.0,0.0,0.0,0.0,0.0,0.0,0.0,0.0,0.0,0.0,0.5166,0.5459,0.548,0.5121,0.4995,0.4849,0.4567,0.4109,0.3864,0.3887,0.3442,0.0,0.0,0.0,0.0,0.0,0.0,0.0,0.0,0.0,0.0,0.0,0.0,0.0,0.0,0.0,0.0,0.0,0.0,0.0,0.0,0.0,0.0,0.0,0.0,0.0,0.0,0.0,0.0,0.0,0.0,0.0,0.0,0.0,0.0,0.0,0.0,0.0,0.0,0.0,0.0,0.0,0.0,0.0,0.0,0.0,0.0,0.0,0.0,0.0,0.0,0.0,0.0,0.0,0.0,0.0,0.0,0.0,0.0,0.0,0.815,0.7708,0.0,0.0,0.0,0.0,0.0,0.0,0.0,0.0,0.0,0.0,0.0,0.0,0.0,0.0,0.0,0.0,0.0,0.0,0.0,0.0,0.0,0.0,0.0,0.0,0.0,0.0,0.0,0.0,0.0,0.0,0.0,0.0,0.0,0.0,0.0,0.0,0.0,0.0,0.0,0.0,0.5245,0.5445,0.5473,0.5225,0.5019,0.4817,0.4629,0.4255,0.4001,0.3915,0.3575,0.0,0.0,0.0,0.0,0.0,0.0,0.0,0.0,0.0,0.0,0.0,0.0,0.0,0.0,0.0,0.0,0.0,0.0,0.0,0.0,0.0,0.0,0.0,0.0,0.0,0.0,0.0,0.0,0.0,0.0,0.0,0.0,0.0,0.0,0.0,0.0,0.0,0.0,0.0,0.0,0.0,0.0,0.0,0.0,0.0,0.0,0.0,0.0,0.0,0.0,0.0,0.0,0.0,0.7822,0.7866,0.796,0.8016,0.8278,0.869,0.8874,0.8583,0.7975,0.7724,0.0,0.0,0.0,0.0,0.0,0.0,0.0,0.0,0.0,0.0,0.0,0.0,0.0,0.0,0.0,0.0,0.0,0.0,0.0,0.0,0.0,0.0,0.7209,0.727,0.7197,0.7029,0.6678,0.0,0.0,0.0,0.0,0.0,0.0,0.0,0.0,0.0,0.0,0.0,0.5326,0.5351,0.5327,0.5283,0.4979,0.4732,0.4598,0.439,0.4139,0.3828,0.3653,0.3267,0.0,0.0,0.0,0.0,0.0,0.0,0.0,0.0,0.0,0.0,0.0,0.0,0.0,0.0,0.0,0.0,0.0,0.0,0.0,0.0,0.0,0.0,0.0,0.0,0.0,0.0,0.0,0.0,0.0,0.0,0.0,0.0,0.9289,0.9062,0.0,0.0,0.0,0.0,0.0,0.0,0.0,0.0,0.0,0.0,0.0,0.0,0.0,0.7467,0.7505,0.7753,0.8132,0.8644,0.8981,0.9212,0.934,0.9339,0.9396,0.9445,0.947,0.0,0.7975,0.7771,0.0,0.0,0.0,0.0,0.0,0.0,0.0,0.0,0.0,0.0,0.0,0.0,0.0,0.0,0.0,0.0,0.0,0.0,0.0,0.0,0.0,0.0,0.7949,0.7956,0.7788,0.7659,0.7833,0.7204,0.6481,0.6112,0.5832,0.5525,0.0,0.0,0.0,0.0,0.0,0.0,0.5632,0.5781,0.5732,0.5255,0.5164,0.4977,0.4559,0.4266,0.3937,0.3499,0.3234,0.2829,0.228,0.2045,0.0,0.0,0.0,0.0,0.0,0.0,0.0,0.0,0.0,0.0,0.0,0.0,0.0,0.0,0.0,0.0,0.0,0.0,0.0,0.0,0.0,0.0,0.0,0.0,0.0,0.0,0.0,0.0,0.0,0.8296,0.8573,0.8947,0.8743,0.8615,0.0,0.0,0.0,0.0,0.0,0.0,0.0,0.0,0.0,0.8372,0.8655,0.8887,0.9086,0.9369,0.9569,0.9641,0.9821,0.9904,0.9933,0.9933,0.9933,0.9933,0.9933,0.9658,0.9201,0.8862,0.84,0.7947,0.0,0.0,0.0,0.0,0.8032,0.7922,0.8067,0.801,0.7895,0.7847,0.0,0.0,0.0,0.0,0.0,0.0,0.0,0.7952,0.8126,0.8192,0.8255,0.8415,0.8282,0.8111,0.8009,0.7856,0.7557,0.7002,0.6519,0.6066,0.5631,0.5352,0.0,0.0,0.0,0.6109,0.5985,0.6002,0.5714,0.4934,0.4731,0.4564,0.4339,0.4211,0.4011,0.3645,0.3549,0.3185,0.2458,0.2303,0.1962,0.0,0.0,0.0,0.0,0.0,0.0,0.0,0.0,0.0,0.0,0.0,0.0,0.0,0.0,0.0,0.0,0.0,0.0,0.0,0.0,0.0,0.0,0.0,0.0,0.0,0.0,0.0,0.0,0.8279,0.8492,0.9072,0.8888,0.8763,0.0,0.0,0.0,0.0,0.0,0.0,0.8598,0.8826,0.9042,0.9218,0.9731,1.01,1.0285,1.0458,1.0455,1.0272,1.0272,1.0244,1.0186,1.0186,1.0186,1.0186,1.0186,1.0219,1.0217,0.9832,0.9443,0.9128,0.9444,0.9055,0.8365,0.8815,0.8682,0.832,0.8506,0.842,0.8209,0.8148,0.8037,0.7914,0.7704,0.0,0.0,0.0,0.0,0.8228,0.8513,0.858,0.8634,0.8832,0.8798,0.8635,0.8359,0.8433,0.8381,0.7731,0.723,0.678,0.6415,0.6182,0.0,0.6443,0.6768,0.6844,0.6509,0.6244,0.5766,0.4918,0.4445,0.4189,0.4126,0.4146,0.3976,0.3558,0.3589,0.3261,0.2455,0.2506,0.2257,0.1585,0.0,0.0,0.0,0.0,0.0,0.0,0.0,0.0,0.0,0.0,0.0,0.0,0.0,0.0,0.0,0.0,0.0,0.0,0.0,0.0,0.0,0.0,0.0,0.0,0.0,0.0,0.0,0.0,0.0,0.9872,0.9944,0.0,0.0,0.0,0.0,0.9473,0.9557,0.9824,1.0332,1.0327,1.0311,1.0329,1.0287,1.0163,0.9918,0.9952,1.0042,1.0204,1.0204,1.0204,1.0186,1.0186,1.0186,1.0186,1.0186,1.0257,1.0377,1.0225,1.0084,0.9934,0.9976,0.9628,0.9146,0.918,0.8804,0.8346,0.8588,0.8403,0.8066,0.8363,0.8159,0.7809,0.7791,0.7744,0.0,0.0,0.8508,0.8763,0.9229,0.9356,0.9356,0.9376,0.9369,0.934,0.9318,0.9032,0.8552,0.7761,0.7824,0.793,0.7658,0.0,0.7447,0.7279,0.7695,0.7819,0.7229,0.6685,0.6136,0.5527,0.4706,0.4129,0.3923,0.3963,0.3661,0.2805,0.282,0.2581,0.1967,0.2227,0.2465,0.2625,0.2724,0.0,0.0,0.0,0.0,0.0,0.0,0.0,0.0,0.0,0.0,0.0,0.0,0.0,0.0,0.0,0.0,0.0,0.0,0.0,0.0,0.0,0.0,0.0,0.0,0.0,0.0,0.0,0.0,0.9359,0.9117,0.0,0.9122,0.9673,1.0132,1.037,1.0467,1.0533,1.0625,1.0287,1.0171,1.033,1.0298,1.0382,1.0544,1.0637,1.0672,1.0646,1.0741,1.0707,1.0604,1.0604,1.0476,1.0259,1.0259,1.0163,1.0,0.9965,1.0027,1.0163,0.9972,0.9645,0.929,0.9091,0.8763,0.8426,0.8384,0.828,0.8166,0.8366,0.8269,0.8065,0.8172,0.8114,0.8077,0.8325,0.86,0.8852,0.902,0.9236,0.941,0.941,0.941,0.9352,0.912,0.9127,0.9049,0.852,0.8114,0.7738,0.7367,0.7366,0.745,0.7551,0.7825,0.7832,0.7219,0.6976,0.6384,0.5168,0.4775,0.4388,0.3871,0.3865,0.3847,0.379,0.3812,0.3782,0.3638,0.3766,0.3527,0.2903,0.3584,0.3717,0.0,0.0,0.0,0.0,0.0,0.0,0.0,0.0,0.0,0.0,0.0,0.0,0.0,0.0,0.0,0.0,0.0,0.0,0.0,0.0,0.0,0.0,0.0,0.0,0.0,0.901,0.9148,0.9638,0.942,0.9308,0.9553,1.0178,1.0568,1.0534,1.0786,1.0849,1.0686,1.045,1.0348,1.0433,1.0467,1.0638,1.0906,1.0966,1.1001,1.0966,1.0976,1.0844,1.0625,1.0625,1.0447,1.0119,1.0119,1.0009,0.9789,0.9706,0.9734,0.9809,0.9706,0.9485,0.921,0.8871,0.8595,0.8303,0.8067,0.8185,0.8398,0.8304,0.852,0.8852,0.8897,0.8997,0.911,0.9327,0.953,0.9737,0.9854,1.0031,1.0149,0.9913,0.9795,0.9589,0.9117,0.9058,0.8986,0.8707,0.8461,0.8155,0.7762,0.7769,0.7828,0.7792,0.8077,0.8038,0.7347,0.7256,0.6779,0.5526,0.5233,0.4914,0.4474,0.4392,0.4477,0.4691,0.4674,0.4623,0.4589,0.4843,0.4555,0.3669,0.4305,0.4319,0.3589,0.0,0.0,0.0,0.0,0.0,0.0,0.0,0.0,0.0,0.0,0.0,0.0,0.0,0.0,0.0,0.0,0.0,0.0,0.0,0.0,0.0,0.0,0.0,1.0005,1.0015,1.0332,1.0873,1.0968,1.0869,1.0573,1.0656,1.0492,0.9926,1.0486,1.0791,1.0636,1.0932,1.0966,1.0704,1.0802,1.0888,1.0899,1.0811,1.0895,1.1063,1.0817,1.0543,1.0304,1.0304,1.0111,0.9789,0.9789,0.9789,0.9761,0.9485,0.921,0.8927,0.9237,0.9175,0.8865,0.8567,0.8269,0.7977,0.7733,0.8186,0.876,0.8227,0.8988,1.0067,0.9931,1.0303,1.0838,1.1178,1.1269,1.1367,1.17,1.1782,1.1631,1.0997,1.0573,1.0186,0.9518,0.8915,0.8453,0.8294,0.8908,0.9307,0.8929,0.8865,0.866,0.8081,0.8435,0.0,0.7718,0.7549,0.7285,0.6672,0.6091,0.5739,0.5706,0.5569,0.5449,0.5324,0.5197,0.499,0.4655,0.5334,0.5468,0.493,0.4828,0.4757,0.4715,0.0,0.0,0.0,0.0,0.0,0.0,0.0,0.0,0.0,0.0,0.0,0.0,0.0,0.0,0.0,0.0,0.0,0.0,0.0,0.0,0.0,1.0692,1.1051,1.1166,1.0925,1.1039,1.183,1.1206,1.0845,1.1202,1.1392,1.1587,1.1824,1.195,1.1862,1.1422,1.1194,1.0919,1.0501,1.0479,1.0566,1.0759,1.0574,1.0541,1.0582,1.0371,1.0185,1.0008,1.0008,0.9833,0.9513,0.9513,0.9375,0.9134,0.9078,0.9085,0.9104,0.8835,0.8678,0.854,0.8048,0.8057,0.8433,0.8881,0.9245,0.9513,0.9354,0.9496,0.9753,0.9799,1.0039,1.0337,1.0514,1.0936,1.1337,1.1428,1.1609,1.176,1.1579,1.145,1.1329,1.1148,1.0974,1.0717,1.019,1.0268,0.9905,0.8319,0.8035,0.8011,0.7939,0.806,0.8083,0.7831,0.7791,0.7496,0.6762,0.6519,0.6222,0.5741,0.5661,0.5692,0.5803,0.576,0.5745,0.5755,0.597,0.5863,0.5411,0.476,0.4684,0.0,0.0,0.0,0.0,0.0,0.0,0.0,0.0,0.0,0.0,0.0,0.0,0.0,0.0,0.0,0.0,0.0,0.0,0.0,0.0,0.0,0.0,1.1753,1.2256,1.2718,1.2035,1.1693,1.2346,1.1824,1.1499,1.1806,1.2002,1.2095,1.2107,1.2368,1.2327,1.1876,1.17,1.1469,1.1149,1.1015,1.1143,1.1576,1.1394,1.1431,1.1734,1.1365,1.1065,1.0863,1.0753,1.0512,1.0194,1.0194,1.0074,0.9912,0.9912,0.9822,0.9631,0.0,0.0,0.0,0.0,0.8682,0.912,0.944,0.9895,1.0314,1.007,1.0316,1.0703,1.0891,1.1144,1.1435,1.1667,1.1993,1.2303,1.2303,1.2453,1.2543,1.2234,1.2062,1.1903,1.1639,1.1269,1.0846,1.0459,1.0065,0.0,0.8208,0.8106,0.8094,0.7791,0.7837,0.7864,0.7736,0.7842,0.7784,0.7447,0.7412,0.7337,0.7139,0.6879,0.0,0.0,0.0,0.6839,0.6977,0.6769,0.0,0.0,0.0,0.5012,0.5303,0.495,0.0,0.0,0.5229,0.5449,0.0,0.0,0.0,0.0,0.0,0.0,0.0,0.0,0.0,0.0,0.0,0.0,0.0,0.0,0.0,0.0,1.3355,1.4059,1.4307,1.3242,1.2549,1.2899,1.281,1.2704,1.2661,1.2739,1.2496,1.182,1.2417,1.2684,1.2365,1.2372,0.0,0.0,0.0,1.2183,1.2794,1.2587,1.2775,1.3402,1.2831,1.2373,1.2086,1.1857,1.1569,1.131,1.131,1.131,1.131,1.1253,1.0952,1.0402,0.9581,0.9345,0.9468,0.962,0.9801,0.9946,0.9822,0.0,0.0,1.0668,1.1293,1.2299,1.2471,1.283,1.3264,1.3564,1.3663,1.3693,1.3693,1.3693,1.3534,1.2964,1.2595,1.2204,1.1692,1.0846,1.0156,1.0116,0.9318,0.8653,0.856,0.8695,0.8503,0.77,0.7747,0.7837,0.7592,0.7769,0.8047,0.8328,0.8359,0.0,0.8956,0.844,0.8275,0.8591,0.8061,0.7774,0.788,0.7414,0.6951,0.6444,0.5902,0.5539,0.5303,0.5011,0.5043,0.5364,0.556,0.576,0.0,0.0,0.0,0.0,0.0,0.0,0.0,0.0,0.0,0.0,0.0,0.0,0.0,0.0,0.0,1.3596,1.4073,1.4494,1.4522,1.4474,1.4563,1.49,1.4507,1.4378,1.4828,1.4718,1.4432,1.4019,1.4126,1.4121,1.3896,1.3289,1.312,1.348,1.285,1.2618,1.2804,1.2457,1.2249,1.2216,1.178,0.0,1.1454,1.1425,1.1368,1.131,1.131,1.131,1.1282,1.1022,1.0907,1.0869,1.0091,0.9781,0.9874,1.0538,1.0649,1.0554,1.1137,1.1619,1.1965,1.1872,1.2175,1.2625,1.265,1.2907,0.0,1.3294,1.3474,1.3693,1.3693,1.3693,1.3663,1.3534,1.3444,1.3384,1.3264,1.2874,1.2436,1.2039,1.1096,1.0172,0.9638,0.8741,0.8072,0.8004,0.7935,0.7926,0.8047,0.8051,0.8081,0.8143,0.8143,0.8185,0.827,0.7889,0.7588,0.7518,0.6883,0.6551,0.6568,0.6458,0.6271,0.6039,0.5907,0.5882,0.5997,0.5931,0.6069,0.6409,0.5947,0.5746,0.0,0.0,0.0,0.0,0.0,0.0,0.0,0.0,0.0,0.0,0.0,1.3518,1.4107,0.0,1.4692,1.4665,1.5099,1.5404,1.5262,1.5381,1.5361,1.5088,1.4775,1.469,1.4885,1.5006,1.5037,1.4869,1.5215,1.5407,1.5313,1.4908,1.4784,1.4972,1.4377,1.4184,1.445,1.4163,1.4076,1.4181,1.3858,1.3538,1.3187,1.3041,1.2786,1.2522,1.2678,1.2757,1.2727,1.2581,1.2643,1.2753,1.1887,1.1336,1.1108,1.1679,1.1898,1.1937,1.2157,1.2453,1.2664,1.2505,1.2785,1.3168,1.332,1.3697,1.4087,1.424,1.4546,1.48,1.48,1.4638,1.4515,1.4515,1.424,1.3996,1.3996,1.3597,1.3194,1.295,1.193,1.099,1.0647,0.9481,0.8511,0.8196,0.8072,0.8061,0.8177,0.8182,0.8207,0.8397,0.8397,0.8482,0.8736,0.8345,0.7939,0.7517,0.7187,0.6982,0.6982,0.7187,0.7069,0.6616,0.6586,0.6562,0.6512,0.6302,0.6376,0.669,0.6459,0.6304,0.0,0.0,0.0,0.0,0.0,0.0,0.0,1.1829,1.2323,1.3654,1.4238,1.4609,1.4933,1.5352,1.5615,1.5502,1.5947,1.6251,1.6066,1.6091,1.59,1.5271,1.509,1.5026,1.5037,1.5413,1.5623,1.5514,1.6085,1.6428,1.6457,1.6323,1.6326,1.6449,1.5909,1.5776,1.6105,1.5959,1.6047,1.6428,1.622,1.5846,1.5372,1.5105,1.4689,1.4252,1.4461,1.455,1.453,1.4411,1.45,1.4681,1.3927,1.3344,1.2911,1.2876,1.3014,1.3202,1.3072,1.3253,1.3504,1.3223,1.3545,1.4083,1.4298,1.4754,1.5234,1.5525,1.5774,1.5971,1.5908,1.5649,1.539,1.5338,1.4901,1.4495,1.4495,1.4057,1.3586,1.3474,1.2463,1.1599,1.1539,1.0468,0.9351,0.8563,0.8261,0.817,0.8253,0.8253,0.8344,0.865,0.8646,0.8708,0.8964,0.8659,0.8192,0.7622,0.7592,0.7592,0.7592,0.798,0.792,0.7345,0.731,0.7213,0.6945,0.6629,0.6598,0.6884,0.7132,0.7035,0.7976,0.8784,1.0108,1.0845,1.1154,1.1734,0.0,1.3297,1.3289,1.4794,1.5193,1.5423,1.5936,1.6135,1.613,1.5889,1.61,1.6356,1.6573,1.6815,1.7045,1.724,1.6799,1.6758,1.7493,1.7627,1.7487,1.6987,1.6932,1.6958,1.7016,1.6448,1.6487,1.7313,1.6733,1.6319,1.6189,1.6107,1.6125,1.6224,1.613,1.6201,1.6338,1.6297,1.6249,1.619,1.5965,1.5848,1.573,1.5145,1.5085,1.5309,1.5195,1.5288,1.5319,1.3984,1.3424,1.339,1.4004,1.444,1.4698,1.4667,1.5091,1.5649,1.568,1.5939,1.6229,1.627,1.6332,1.627,1.5971,1.5877,1.5753,1.5462,1.5338,1.5276,1.5276,1.4985,1.4574,1.4107,1.3165,1.2362,1.1981,1.1243,1.0419,0.9486,0.8676,0.8264,0.8519,0.8459,0.8437,0.8601,0.8414,0.8044,0.7567,0.7495,0.727,0.6864,0.683,0.683,0.683,0.7213,0.7428,0.7376,0.7376,0.7415,0.7499,0.7463,0.7463,0.7499,0.8198,0.7848,1.0484,1.1072,1.169,1.231,1.2648,1.3099,1.4153,1.4367,1.4607,1.5573,1.5955,1.6165,1.6388,1.663,1.667,1.6404,1.6585,1.6742,1.6706,1.6791,1.7065,1.7555,1.7368,1.7319,1.7505,1.7503,1.7377,1.7151,1.7407,1.7583,1.7625,1.7681,1.7818,1.8006,1.7948,1.7769,1.7496,1.7448,1.7448,1.7484,1.7448,1.732,1.7085,1.7085,1.6843,1.6455,1.6752,1.6724,1.6447,1.6366,1.64,1.6476,1.6332,1.6294,1.6223,1.5484,1.503,1.4901,1.539,1.5514,1.5525,1.5701,1.6169,1.6663,1.6663,1.6981,1.7345,1.7345,1.7605,1.7889,1.7729,1.7648,1.7554,1.7423,1.6892,1.6435,1.6435,1.6173,1.5876,1.5645,1.5125,1.4506,1.3866,1.2978,1.2097,1.1264,1.0419,0.9773,0.9523,0.9431,0.9154,0.8557,0.8158,0.7812,0.7393,0.7367,0.7212,0.6912,0.688,0.6905,0.6922,0.7319,0.7797,0.8374,0.8374,0.8651,0.9171,0.8696,0.8474,0.8474,0.8553,0.8283,1.2206,1.2707,1.3034,1.3521,1.3789,1.4085,1.4747,1.5084,1.5402,1.5874,1.6292,1.6535,1.6367,1.6746,1.6984,1.6646,1.6803,1.6948,1.6827,1.6803,1.7025,1.7625,1.7621,1.7547,1.7519,1.7481,1.7461,1.7461,1.7848,1.8106,1.8106,1.8502,1.8648,1.8415,1.8648,1.8648,1.8386,1.8386,1.8444,1.8532,1.8608,1.8471,1.816,1.8205,1.7894,1.7332,1.7763,1.7727,1.7456,1.7518,1.7669,1.7758,1.7477,1.7373,1.7404,1.7289,1.6801,1.6244,1.6683,1.6727,1.6592,1.675,1.7199,1.7623,1.7495,1.7876,1.8337,1.825,1.865,1.902,1.8833,1.8706,1.8597,1.853,1.788,1.7341,1.7341,1.7149,1.6912,1.6743,1.6522,1.6143,1.5391,1.4647,1.3991,1.3471,1.2609,1.1647,1.0536,1.0335,0.9862,0.8858,0.8534,0.8283,0.8002,0.7999,0.7937,0.7751,0.7755,0.7755,0.7826,0.8197,0.8751,0.943,0.943,0.9655,1.0142,0.9543,0.9205,0.9098,0.9023,0.891,1.2248,1.2963,1.3812,1.4414,1.4529,1.4678,1.5477,1.5438,1.5282,1.5566,1.6083,1.6348,1.5813,1.6497,1.6911,1.6408,1.6525,1.6803,1.7044,1.708,1.7292,1.7923,1.7713,1.773,1.8302,1.8373,1.8344,1.8344,1.8386,1.8386,1.8386,1.8415,1.8415,1.8386,1.8415,1.8415,1.8386,1.8386,1.8561,1.8881,1.9155,1.9447,1.974,1.999,1.9941,1.9589,1.9346,1.9161,1.8994,1.8399,1.8522,1.9016,1.8676,1.8894,1.9402,1.9402,1.839,1.7044,1.7721,1.8106,1.8278,1.7949,1.8261,1.8664,1.8306,1.8664,1.9199,1.8876,1.901,1.911,1.8418,1.8228,1.8138,1.7824,1.7723,1.7689,1.7689,1.7689,1.7486,1.6844,1.6803,1.6668,1.5986,1.6027,1.6089,1.6089,1.5115,1.3601,1.1441,1.0889,1.042,0.9736,0.9757,0.9738,0.9465,0.9542,0.9644,0.9607,0.9607,0.9612,0.9612,1.0024,1.0211,1.0254,1.0254,1.0067,0.973,0.9693,0.9468,0.9135,0.9816,0.9966,1.3627,1.4287,1.4905,1.5263,1.5321,1.5355,1.5565,1.5542,1.5505,1.558,1.5943,1.6182,1.5983,1.6603,1.7032,1.6851,1.7073,1.7249,1.7334,1.7387,1.7528,1.796,1.7914,1.7901,1.8106,1.8135,1.8194,1.8386,1.8386,1.8311,1.8135,1.8502,1.8619,1.8415,1.8836,1.9044,1.9003,1.9003,1.9034,1.9112,1.9171,1.9417,1.9745,1.9819,1.9781,1.9627,1.9537,1.9234,1.8772,1.8682,1.8638,1.8645,1.8721,1.887,1.9039,1.9039,1.8682,1.8249,1.8701,1.8593,1.8306,1.844,1.863,1.8765,1.8631,1.8765,1.8933,1.8832,1.9014,1.9186,1.8948,1.9004,1.9083,1.898,1.8773,1.8566,1.8566,1.8489,1.8352,1.8142,1.8226,1.8134,1.7407,1.7116,1.6549,1.5203,1.4321,1.3298,1.1799,1.0927,1.0346,1.0131,0.992,0.9737,0.9633,0.9671,0.9693,0.9693,0.9693,0.9731,0.9813,0.9964,1.0346,1.0968,1.0968,1.1045,1.116,1.0892,1.0514,1.0086,1.0092,1.0322,1.4514,1.497,1.5389,1.5616,1.5657,1.5642,1.5618,1.5601,1.5601,1.5601,1.5876,1.608,1.596,1.6562,1.7142,1.7273,1.7596,1.783,1.783,1.783,1.7901,1.8106,1.8135,1.8282,1.8603,1.8632,1.8544,1.8282,1.8252,1.8223,1.8135,1.8719,1.8904,1.8568,1.9418,1.9813,1.9631,1.987,1.9883,1.9732,1.9499,1.955,1.9851,1.9719,1.9625,1.9523,1.9389,1.9071,1.8701,1.882,1.8724,1.8548,1.8741,1.8856,1.8936,1.8936,1.8925,1.8902,1.9057,1.8856,1.8564,1.8699,1.8789,1.8834,1.8698,1.8766,1.8834,1.8698,1.8879,1.9094,1.8968,1.9045,1.9122,1.9017,1.8944,1.8834,1.8552,1.8592,1.8655,1.8511,1.871,1.8706,1.8075,1.7746,1.7013,1.5319,1.4744,1.3951,1.2286,1.151,1.1077,1.0971,1.0751,1.0631,1.0631,1.0666,1.0696,1.0696,1.0696,1.0732,1.0821,1.0821,1.1093,1.1727,1.1727,1.1805,1.1882,1.1766,1.1495,1.1068,1.0952,1.1184,1.4837,1.5056,1.5292,1.5548,1.5601,1.5601,1.5601,1.5601,1.5601,1.5601,1.5887,1.6057,1.579,1.652,1.7248,1.7596,1.8059,1.8415,1.8444,1.8444,1.8444,1.8444,1.8473,1.8865,1.9778,1.9894,1.9444,1.8303,1.8173,1.8248,1.847,1.9066,1.9256,1.8907,2.0139,2.0646,2.0254,2.0843,2.0994,2.0695,2.0055,1.9865,2.01,1.98,1.9584,1.9417,1.9122,1.8946,1.8799,1.8821,1.8821,1.8754,1.8766,1.8947,1.9153,1.9153,1.907,1.8973,1.8857,1.897,1.9084,1.8718,1.877,1.8889,1.8503,1.8679,1.8889,1.8514,1.8689,1.8876,1.8501,1.8406,1.829,1.7973,1.8354,1.8549,1.7796,1.8078,1.8388,1.7986,1.8216,1.8362,1.7969,1.7896,1.7492,1.6379,1.6312,1.5498,1.3021,1.2715,1.2604,1.2274,1.233,1.2374,1.2374,1.2465,1.2501,1.2501,1.2501,1.2501,1.2579,1.2579,1.2579,1.2617,1.2617,1.2424,1.2037,1.2385,1.2347,1.196,1.2347,1.2501,1.5124,1.5303,1.5526,1.558,1.5601,1.5601,1.5601,1.5601,1.5601,1.5601,1.6215,1.6675,1.6355,1.7113,1.7865,1.8154,1.8326,1.8561,1.9013,1.9071,1.9071,1.9071,1.9463,1.995,2.0476,2.0943,2.1204,2.1181,2.051,2.0004,1.9827,2.0385,2.058,2.0301,2.0812,2.1041,2.0961,2.0575,2.0595,2.1002,2.0327,2.01,2.0347,2.0528,2.0291,1.9715,2.0224,1.9808,1.8776,1.9264,1.9005,1.8287,1.8428,1.8537,1.858,1.858,1.8698,1.8858,1.8799,1.8714,1.8591,1.8487,1.8484,1.8538,1.8433,1.8468,1.8571,1.8684,1.8549,1.8414,1.8475,1.8238,1.8021,1.7913,1.8026,1.8067,1.7885,1.8093,1.833,1.8218,1.8163,1.8085,1.7972,1.7718,1.7227,1.6339,1.6232,1.5733,1.4342,1.4286,1.4373,1.4259,1.3731,1.3339,1.3339,1.2828,1.2501,1.2501,1.2501,1.2772,1.3358,1.339,1.3698,1.4353,1.4353,1.4153,1.3691,1.3498,1.3182,1.2797,1.2572,1.2811,1.5343,1.5505,1.5661,1.5917,1.5976,1.6065,1.636,1.6419,1.6419,1.6419,1.6658,1.6934,1.7128,1.7518,1.8221,1.9465,1.9759,2.0129,2.0884,2.1029,2.1029,2.1029,2.1307,2.1701,2.2201,2.2568,2.285,2.3078,2.2097,2.1373,2.1195,2.174,2.1808,2.1194,2.1875,2.2171,2.2038,2.133,2.1226,2.1742,2.1073,2.0909,2.115,2.1051,2.0811,2.0496,2.0307,1.976,1.9061,1.9106,1.8783,1.8272,1.8498,1.8584,1.8605,1.8678,1.8796,1.8939,1.8939,1.8817,1.871,1.871,1.871,1.871,1.871,1.871,1.8742,1.8907,1.8651,1.8357,1.8482,1.8185,1.7866,1.7719,1.79,1.797,1.7637,1.7879,1.8113,1.7925,1.7682,1.7531,1.7721,1.7378,1.7035,1.6768,1.673,1.6532,1.5969,1.5362,1.5006,1.5006,1.4545,1.4276,1.4276,1.3852,1.3621,1.3621,1.3621,1.3814,1.4237,1.4276,1.4507,1.5006,1.5006,1.4891,1.4614,1.4576,1.4345,1.3914,1.3883,1.4006,1.5685,1.5779,1.5987,1.6508,1.6626,1.6803,1.7361,1.7508,1.7508,1.7508,1.7231,1.7202,1.7859,1.8002,1.8731,2.0958,2.1582,2.2185,2.318,2.3315,2.3315,2.3315,2.3403,2.3671,2.4236,2.4384,2.4429,2.4478,2.3528,2.2841,2.2617,2.3125,2.3037,2.2176,2.3231,2.3672,2.3445,2.2757,2.2645,2.3086,2.2249,2.2024,2.2242,2.1568,2.1258,2.1234,2.0145,1.968,1.9611,1.9132,1.8863,1.879,1.9055,1.9154,1.9176,1.9213,1.9275,1.9307,1.9198,1.9183,1.9193,1.9129,1.9118,1.9118,1.9118,1.9118,1.9118,1.915,1.8858,1.8566,1.8524,1.8204,1.7836,1.7468,1.78,1.7976,1.7292,1.7558,1.7797,1.7388,1.6997,1.6844,1.7197,1.693,1.6768,1.7197,1.7235,1.7273,1.7312,1.6156,1.5313,1.5313,1.5237,1.516,1.516,1.5045,1.5006,1.5006,1.5006,1.5045,1.5152,1.516,1.5198,1.5313,1.5313,1.5275,1.5237,1.5544,1.5467,1.5083,1.539,1.5313,1.6467,1.6744,1.7185,1.7303,1.7332,1.7361,1.7479,1.7508,1.7508,1.7508,1.8048,1.8384,1.8005,1.9166,2.0416,2.1188,2.1943,2.2799,2.3785,2.3921,2.3921,2.3921,2.4362,2.4874,2.5317,2.5796,2.6228,2.655,2.6386,2.5663,2.4289,2.4541,2.47,2.4517,2.4732,2.4967,2.5235,2.4528,2.4648,2.5561,2.4001,2.3215,2.3145,2.2759,2.1924,2.0869,2.1833,2.1584,2.0539,2.1245,2.119,2.0662,2.0924,2.1018,2.0958,2.0319,2.0213,2.0309,1.9656,1.9564,1.9698,1.9236,1.9118,1.9118,1.9118,1.9118,1.915,1.9381,1.9139,1.8783,1.8632,1.8295,1.788,1.7502,1.7493,1.7521,1.7369,1.7436,1.7388,1.6959,1.6586,1.6318,1.6395,1.6089,1.5935,1.6357,1.6395,1.6548,1.6844,1.6968,1.6968,1.6968,1.6386,1.5995,1.5995,1.5382,1.5006,1.5006,1.5006,1.5313,1.5956,1.5995,1.6301,1.6968,1.6968,1.6806,1.6501,1.6203,1.5897,1.5505,1.5237,1.5083,1.7525,1.7835,1.8344,1.8797,1.8913,1.8913,1.8955,1.8968,1.8968,1.8968,1.9212,1.9562,2.0018,2.0714,2.1594,2.2785,2.3447,2.4204,2.5225,2.5529,2.5661,2.5661,2.593,2.6176,2.6345,2.6632,2.6897,2.7086,2.7244,2.6949,2.5943,2.5711,2.5706,2.587,2.5591,2.5595,2.5961,2.5596,2.5769,2.6454,2.5432,2.4811,2.4539,2.3983,2.3134,2.2117,2.2397,2.2115,2.1513,2.1751,2.1613,2.1317,2.1583,2.1437,2.1048,2.0784,2.0503,2.0232,1.9832,1.9795,1.9849,1.9585,1.951,1.951,1.951,1.951,1.9494,1.9388,1.9045,1.8662,1.8385,1.7997,1.7655,1.7464,1.7388,1.7388,1.7388,1.7235,1.6959,1.6586,1.6165,1.5897,1.5897,1.5744,1.5744,1.6127,1.6203,1.628,1.6471,1.6662,1.693,1.735,1.7035,1.6806,1.6806,1.6462,1.6233,1.6233,1.6233,1.6424,1.6806,1.6806,1.6997,1.7388,1.7388,1.7197,1.6806,1.6615,1.6203,1.5582,1.539,1.5198,1.8842,1.9219,1.9739,2.0343,2.0487,2.0487,2.05,2.05,2.05,2.05,2.0444,2.0711,2.1794,2.2094,2.2672,2.4248,2.4907,2.5541,2.6483,2.6914,2.7103,2.7103,2.7103,2.7103,2.7103,2.7172,2.7223,2.7223,2.7518,2.7604,2.736,2.6837,2.6663,2.6915,2.6477,2.6404,2.6745,2.6681,2.6794,2.7148,2.6542,2.6121,2.5797,2.5076,2.4425,2.3824,2.3295,2.303,2.3021,2.2704,2.246,2.2353,2.2629,2.2252,2.1514,2.1342,2.0999,2.0597,2.007,1.9995,2.0108,1.9957,1.9881,1.9881,1.9881,1.9844,1.9655,1.9315,1.8909,1.8491,1.8101,1.7759,1.7502,1.7426,1.735,1.7273,1.7273,1.6968,1.6539,1.6165,1.582,1.5582,1.5505,1.5467,1.5582,1.5897,1.5935,1.5974,1.605,1.6165,1.6471,1.7197,1.7273,1.7312,1.7388,1.7388,1.7388,1.7388,1.7388,1.7388,1.7388,1.7388,1.7388,1.7388,1.7312,1.7083,1.6653,1.6577,1.6156,1.5467,1.5467,1.5313,2.063,2.1116,2.1758,2.153,2.1473,2.1416,2.1174,2.1117,2.1117,2.1117,2.153,2.1837,2.1676,2.2768,2.3875,2.4412,2.5254,2.6094,2.6919,2.7086,2.7103,2.7103,2.7103,2.7103,2.7103,2.7364,2.7552,2.7552,2.7912,2.8117,2.8083,2.8052,2.8006,2.804,2.8009,2.8164,2.8556,2.8185,2.8208,2.8592,2.7203,2.6553,2.6483,2.5808,2.5461,2.5407,2.5638,2.5734,2.5763,2.5976,2.5641,2.5072,2.534,2.4951,2.4079,2.2608,2.2508,2.2769,2.0635,2.0334,2.0774,2.0108,1.9881,1.9881,1.9881,1.9579,1.9239,1.9201,1.8909,1.8491,1.8101,1.7987,1.7835,1.7502,1.7121,1.6844,1.6844,1.6548,1.6127,1.5744,1.5629,1.5467,1.5122,1.5045,1.5083,1.5083,1.5122,1.5237,1.5629,1.5974,1.6357,1.6806,1.6844,1.6997,1.7388,1.7388,1.7388,1.7388,1.7388,1.7388,1.7388,1.7388,1.7388,1.7388,1.7035,1.6653,1.6242,1.5897,1.5467,1.5045,1.5045,1.5045,2.1858,2.2199,2.2611,2.2498,2.2441,2.2328,2.1845,2.1731,2.1731,2.1731,2.2214,2.2796,2.3271,2.3942,2.4654,2.5227,2.5666,2.6102,2.6645,2.6949,2.7189,2.7364,2.7398,2.7484,2.7723,2.7878,2.8049,2.8289,2.846,2.8648,2.8854,2.8443,2.8306,2.8545,2.8545,2.8637,2.8817,2.8654,2.8557,2.851,2.791,2.7401,2.6944,2.6668,2.6334,2.5932,2.6205,2.6068,2.572,2.5984,2.5618,2.4952,2.5024,2.4586,2.3822,2.3141,2.2806,2.2545,2.1611,2.1499,2.1686,2.1386,2.0973,2.0473,2.0032,1.9579,1.9174,1.8909,1.8567,1.8139,1.7721,1.7655,1.7616,1.7426,1.7073,1.6806,1.6806,1.6271,1.5782,1.562,1.539,1.5198,1.5045,1.5006,1.5006,1.5006,1.5198,1.5429,1.5582,1.5935,1.6357,1.6768,1.7035,1.7235,1.7388,1.7388,1.7388,1.7388,1.7388,1.7388,1.7388,1.7388,1.7388,1.7388,1.7235,1.6854,1.6203,1.605,1.5629,1.5006,1.5006,1.5006,2.2907,2.3123,2.3388,2.3304,2.3219,2.3022,2.2485,2.2371,2.2371,2.2371,2.278,2.338,2.4178,2.4592,2.5076,2.5782,2.5999,2.6234,2.661,2.6932,2.7206,2.7415,2.7535,2.7706,2.7997,2.8237,2.8528,2.8905,2.8939,2.9042,2.9299,2.8802,2.8648,2.8922,2.8939,2.8897,2.8807,2.8776,2.8627,2.8295,2.8285,2.8004,2.7507,2.7609,2.738,2.6889,2.7184,2.7012,2.6575,2.6757,2.6349,2.5616,2.5616,2.5175,2.4438,2.4203,2.3907,2.3537,2.3054,2.2905,2.2881,2.262,2.2011,2.1225,2.0447,1.9768,1.9136,1.8719,1.8225,1.7759,1.7464,1.7388,1.7388,1.7388,1.7006,1.6615,1.6615,1.6003,1.5429,1.5429,1.5275,1.5198,1.5198,1.5198,1.5237,1.5352,1.5505,1.562,1.5782,1.6127,1.651,1.6768,1.7205,1.7454,1.7397,1.7388,1.7388,1.7388,1.7444,1.7473,1.7473,1.7539,1.7576,1.7576,1.7345,1.6959,1.6379,1.6108,1.5721,1.5169,1.5169,1.5169,2.3804,2.4082,2.4329,2.3977,2.3697,2.3416,2.3078,2.2978,2.2978,2.2978,2.3247,2.3585,2.3865,2.4456,2.5109,2.5787,2.6234,2.661,2.7034,2.7103,2.7103,2.7103,2.7398,2.7604,2.7604,2.8323,2.8922,2.9282,2.9299,2.9299,2.9316,2.9299,2.9299,2.9299,2.9299,2.9152,2.8807,2.8793,2.8639,2.8301,2.823,2.8183,2.8199,2.8599,2.8793,2.8773,2.9139,2.9262,2.9262,2.9262,2.8794,2.8057,2.8057,2.7623,2.6881,2.6064,2.6284,2.6736,2.5134,2.4583,2.4449,2.3635,2.2831,2.2023,2.1225,2.0135,1.9136,1.8719,1.8035,1.7426,1.7388,1.7388,1.7388,1.7388,1.6777,1.6203,1.6203,1.5582,1.5006,1.5006,1.5313,1.5582,1.5582,1.5582,1.5744,1.6127,1.5859,1.5744,1.6127,1.6539,1.6806,1.6806,1.7326,1.7605,1.7407,1.7388,1.7388,1.7388,1.7576,1.768,1.768,1.7888,1.8001,1.8001,1.721,1.6814,1.6775,1.595,1.5512,1.5512,1.5512,1.5512,2.415,2.4145,2.3977,2.3697,2.3388,2.3135,2.3022,2.2994,2.2994,2.2994,2.3275,2.3666,2.4206,2.4253,2.4763,2.6436,2.6445,2.6504,2.7316,2.7672,2.7843,2.7843,2.8391,2.8768,2.8768,2.8991,2.9196,2.9299,2.9316,2.9316,2.9316,2.9316,2.9316,2.9316,2.9316,2.9139,2.881,2.8791,2.8618,2.8246,2.8493,2.8599,2.8614,2.8964,2.9123,2.9139,2.925,2.901,2.8454,2.8454,2.8021,2.7354,2.7354,2.7209,2.6954,2.6699,2.6772,2.6918,2.643,2.6247,2.6115,2.5309,2.4129,2.2868,2.206,2.0962,1.9757,1.8557,1.8025,1.7759,1.7464,1.7388,1.7388,1.7388,1.7006,1.6615,1.6615,1.6203,1.582,1.582,1.5935,1.5935,1.5659,1.5582,1.562,1.5782,1.5935,1.6218,1.6736,1.7171,1.7449,1.7598,1.779,1.7822,1.7614,1.7727,1.7812,1.7812,1.7869,1.7906,1.7906,1.7972,1.7892,1.7606,1.7329,1.6933,1.6299,1.6021,1.5791,1.5512,1.5512,1.5377,2.395,2.3861,2.3697,2.3528,2.3247,2.2994,2.2994,2.2994,2.2994,2.2994,2.3163,2.3529,2.4183,2.424,2.4664,2.6231,2.6255,2.6406,2.7272,2.7639,2.7926,2.8374,2.869,2.8933,2.9102,2.8988,2.8988,2.9086,2.9119,2.9185,2.9283,2.9453,2.9473,2.929,2.929,2.9211,2.9005,2.8983,2.882,2.844,2.8789,2.9,2.9015,2.9202,2.9298,2.9298,2.9298,2.901,0.0,2.8527,2.8274,2.7876,2.7876,2.7876,2.7876,2.7876,2.7876,2.784,2.7514,2.7209,2.6881,2.6056,2.4609,2.3054,2.2396,2.1048,1.9466,1.8329,1.7873,1.7721,1.7464,1.7388,1.7388,1.7388,1.7073,1.6806,1.6806,1.641,1.6086,1.6086,1.6202,1.6232,1.6001,1.6017,1.6144,1.6368,1.6463,1.6775,1.7364,1.7656,1.7859,1.7991,1.801,1.7903,1.7729,1.7894,1.7972,1.7897,1.7963,1.7972,1.7888,1.8038,1.7964,1.7527,1.744,1.7034,1.6343,1.615,1.5868,1.5473,1.5473,1.5286,0.0,2.3435,2.3528,2.35,2.3275,2.3022,2.3022,2.2994,0.0,2.3022,2.305,2.3246,2.3913,2.4295,2.4753,2.5416,2.5806,2.6274,2.7047,2.7193,2.7604,2.867,2.848,2.8388,2.8774,2.8527,2.8461,2.8807,2.884,2.8972,2.9283,2.9642,2.9697,2.9329,2.9329,2.9293,2.93,2.9298,2.9142,2.884,2.9139,2.9298,2.9298,2.9298,2.9298,2.9298,2.9298,2.9298,2.9298,2.9298,2.9298,2.9298,2.9298,2.9334,2.9334,2.9334,2.9369,2.9262,2.8491,2.7768,2.7063,2.6129,2.4462,2.2769,2.2284,2.0522,1.8605,1.8215,1.7759,1.7426,1.7426,1.7397,1.7368,1.7368,1.711,1.6852,1.6852,1.6427,1.6043,1.6034,1.6346,1.658,1.6563,1.6691,1.7022,1.7603,1.7368,1.7325,1.7903,1.801,1.801,1.801,1.801,1.7927,1.7722,1.7885,1.7925,1.7707,1.7906,1.7916,1.7718,1.8125,1.8142,1.7678,1.743,1.7067,1.6616,1.6163,1.5752,1.534,1.534,1.5092,2.3443,0.0,2.3753,2.3556,2.3444,2.3332,0.0,2.2994,2.3078,2.3332,2.3388,2.3586,2.42,2.4004,2.4248,2.5723,2.5605,2.5863,2.7349,2.802,2.849,2.8753,2.8705,2.8706,2.879,2.8741,2.884,2.9152,2.9185,2.9218,2.9316,2.9393,2.953,2.9766,2.945,2.93,2.9311,2.9288,2.927,2.9171,2.925,2.9298,2.9298,2.9298,2.9298,2.9298,2.9298,2.9298,2.9298,2.9298,2.9298,2.9298,2.9298,2.9477,2.9747,2.9747,2.9942,3.0085,2.964,2.9354,2.8835,2.6539,2.4854,2.3426,2.1786,2.0473,1.9428,1.9012,1.8405,1.7797,1.7464,1.728,1.7159,1.7159,1.7231,1.7262,1.7262,1.7386,1.7456,1.7299,1.747,1.7495,1.7027,1.712,1.732,1.7444,1.7374,1.7472,1.7922,1.801,1.801,1.801,1.801,1.7989,1.7918,1.7959,1.7899,1.7723,1.7908,1.7991,1.7935,1.8029,1.7793,1.7177,1.6605,1.6122,1.5711,1.5587,1.5298,1.4837,1.4837,1.4638,2.3255,2.35,2.3669,2.3528,2.3388,2.3219,2.305,2.2994,2.3106,2.3416,2.3388,2.3473,2.4085,2.412,2.4298,2.5252,2.5502,2.6079,2.7497,2.8188,2.867,2.9004,2.8774,2.8642,2.8774,2.8675,2.8808,2.9291,2.9341,2.9476,2.9779,2.9801,2.9831,2.9911,2.9666,2.9579,2.9579,2.9402,2.9285,2.9298,2.9298,2.9298,2.9298,2.9298,2.9298,2.9298,2.9298,2.9298,2.9298,2.9298,2.9298,2.9298,2.9298,2.9549,2.989,2.989,3.0121,3.0335,2.9819,2.9266,2.8506,2.6807,2.5368,2.4031,2.2717,2.1392,2.0135,1.9191,1.8623,1.8139,1.754,1.7319,1.7249,1.7249,1.7398,1.7546,1.7546,1.7694,1.7836,1.7724,1.7799,1.7756,1.7408,1.7517,1.7722,1.7854,1.7864,1.7943,1.8152,1.8191,1.8154,1.802,1.7916,1.7777,1.7576,1.7652,1.7693,1.7554,1.767,1.7687,1.7594,1.7771,1.7565,1.6863,1.6114,1.5505,1.5092,1.5092,1.4844,1.4431,1.4431,1.4183,2.2947,2.3219,2.3481,2.3432,2.3247,2.3078,2.3078,2.3078,2.3163,2.35,2.338,2.3427,2.4046,2.4418,2.4687,2.4816,2.5737,2.6745,2.7668,2.8162,2.8626,2.9152,2.8725,2.8527,2.8858,2.861,2.876,2.9497,2.9564,2.9767,3.031,3.034,3.016,2.9827,2.9818,2.9819,2.9819,2.9477,2.9298,2.9298,2.9298,2.9266,2.9218,2.9218,2.9186,2.9139,2.9186,2.9218,2.9218,2.9282,2.9298,2.9298,2.9369,2.962,2.9962,3.0033,3.0283,3.0477,2.9803,2.8835,2.7777,2.7246,2.6052,2.4767,2.421,2.2763,2.1,1.9371,1.8749,1.8433,1.7759,1.7435,1.7329,1.7367,1.7545,1.7675,1.7714,1.7796,1.7835,1.7808,1.7826,1.7835,1.7799,1.7959,1.8161,1.8421,1.8439,1.8421,1.8354,1.8345,1.822,1.7944,1.7756,1.7511,1.7097,1.7224,1.7317,1.7256,1.7323,1.7259,1.7054,1.7279,1.7144,1.6565,1.5736,1.5092,1.4589,1.4589,1.439,1.3983,1.3983,1.3776,2.2724,2.3034,2.3416,2.3142,2.3247,2.3416,2.3416,2.3416,2.35,2.3781,2.4027,2.4322,2.4768,2.4889,2.5169,2.5849,2.6793,2.7635,2.8139,2.8751,2.9086,2.8906,2.8807,2.8892,2.9261,2.9261,2.9513,3.0225,3.0242,3.0174,3.0003,2.9976,2.9792,2.9406,2.9392,2.9405,2.9405,2.9334,2.9298,2.9298,2.9298,2.9139,2.8888,2.8888,2.8678,2.8408,2.871,2.8888,2.8904,2.9171,2.9298,2.9334,2.9676,3.0014,3.037,3.0726,3.1081,3.1347,3.0887,3.0211,2.9401,2.8569,2.7245,2.5786,2.5002,2.3831,2.2422,2.0669,1.9416,1.8585,1.8433,1.7633,1.6923,1.7317,1.74,1.7548,1.7873,1.8253,1.8488,1.835,1.8422,1.8488,1.8309,1.8475,1.8588,1.8667,1.8667,1.8494,1.8104,1.8057,1.7906,1.7529,1.7454,1.7425,1.7328,1.7052,1.683,1.6628,1.6967,1.703,1.677,1.626,1.5942,1.5853,1.518,1.4597,1.419,1.419,1.3942,1.3528,1.3528,1.3486,2.2564,2.2831,2.3163,2.3045,2.3134,2.3333,2.3507,2.3533,2.367,2.4129,2.4198,2.4346,2.4905,2.5185,2.5672,2.6825,2.7393,2.7897,2.8489,2.8689,2.8825,2.9059,2.8893,2.9044,2.9614,2.9682,2.997,3.0686,3.0703,3.0667,3.0489,3.0306,3.0001,2.9663,2.9433,2.9202,2.9012,2.9047,2.9107,2.9298,2.9107,2.9028,2.9043,2.8888,2.8789,2.8805,2.898,2.9059,2.9059,2.9234,2.9298,2.9334,2.9513,2.9799,3.0192,3.0548,3.0797,3.0939,3.0762,3.0323,2.974,2.9029,2.776,2.6178,2.4585,2.3283,2.1974,2.022,1.9694,1.9412,1.8523,1.7859,1.7457,1.7685,1.7836,1.7977,1.817,1.8466,1.8686,1.8591,1.8648,1.8686,1.8582,1.8648,1.8714,1.8714,1.8714,1.856,1.8258,1.821,1.8097,1.7756,1.7523,1.7336,1.7211,1.6925,1.6624,1.628,1.6446,1.6497,1.6315,1.5942,1.5528,1.5174,1.4642,1.4149,1.3735,1.3735,1.3611,1.3403,1.3403,1.3403,2.2264,2.2537,2.2835,2.297,2.3049,2.3221,2.369,2.3803,2.3986,2.4622,2.4639,2.4635,2.506,2.5592,2.636,2.7523,2.7851,2.8227,2.894,2.8759,2.876,2.9379,2.921,2.9326,2.995,3.0103,3.0428,3.1079,3.1044,3.0953,3.0852,3.0477,3.0072,2.967,2.9349,2.8996,2.8646,2.8681,2.8773,2.9043,2.8888,2.8904,2.9043,2.8853,2.8904,2.9043,2.9139,2.9171,2.9171,2.9266,2.9298,2.9298,2.9405,2.9692,3.0033,3.0299,3.0456,3.0521,3.0414,3.0119,2.9702,2.9159,2.7909,2.6304,2.4398,2.2914,2.1508,1.9787,1.9679,1.9748,1.8345,1.7801,1.764,1.7719,1.7876,1.8024,1.8145,1.8276,1.8387,1.8387,1.8387,1.8387,1.8387,1.8387,1.8387,1.8387,1.8387,1.8313,1.8099,1.8071,1.7996,1.7713,1.7408,1.7075,1.6696,1.6584,1.6316,1.576,1.5842,1.5917,1.5867,1.5502,1.5077,1.4548,1.4149,1.3776,1.3403,1.3403,1.3403,1.3403,1.3403,1.3403,2.1665,2.2025,2.2601,2.2917,2.2993,2.3254,2.4219,2.4442,2.4647,2.537,2.5759,2.5877,2.5627,2.6392,2.7214,2.7637,2.8277,2.899,2.9713,2.9462,2.9362,2.9816,2.9832,2.9967,3.032,3.0683,3.1096,3.1526,3.1207,3.0835,3.0477,3.0104,2.9602,2.8892,2.884,2.8665,2.8265,2.823,2.8246,2.8262,2.8614,2.8599,2.8278,2.863,2.8599,2.8278,2.8662,2.884,2.8872,2.9155,2.9298,2.9334,2.9712,3.0049,3.037,3.0406,3.0656,3.0901,3.0449,3.0034,2.9601,2.9071,2.7836,2.6322,2.5306,2.3768,2.2075,2.0393,1.938,1.8684,1.8086,1.7226,1.6604,1.6998,1.6944,1.6919,1.7378,1.7478,1.7486,1.7486,1.7486,1.7486,1.7486,1.7486,1.7486,1.7486,1.7486,1.7416,1.7123,1.7096,1.7026,1.6841,1.6775,1.6426,1.5648,1.595,1.5697,1.4695,1.5134,1.544,1.5422,1.4631,1.4176,1.4149,1.3694,1.3445,1.3403,1.3403,1.3403,1.3403,1.3403,1.3403,2.2028,2.2735,2.34,2.3341,2.3291,2.3597,2.4628,2.4715,2.4826,2.5715,2.6198,2.6504,2.6581,2.7311,2.7851,2.7702,2.8543,2.9261,2.9563,2.98,3.0055,3.0186,3.022,3.0371,3.0741,3.0897,3.1176,3.1559,3.1223,3.0833,3.0406,2.9838,2.9289,2.8809,2.8551,2.836,2.8183,2.8183,2.8183,2.8183,2.836,2.8599,2.8885,2.884,2.8821,2.89,2.9028,2.9091,2.9107,2.9234,2.9298,2.9334,2.9477,2.962,2.9728,2.9728,2.9793,2.9806,2.9404,2.9111,2.8675,2.7385,2.6507,2.5596,2.334,2.1838,2.0545,1.8858,1.7723,1.7115,1.7494,1.7318,1.7045,1.7208,1.7179,1.7191,1.7363,1.7404,1.7404,1.7404,1.7404,1.7404,1.7404,1.7404,1.7404,1.7404,1.7404,1.7378,1.7258,1.7249,1.7223,1.7152,1.6617,1.5926,1.5064,1.5138,1.5046,1.4665,1.5003,1.5026,1.4597,1.4273,1.3942,1.3652,1.3486,1.3403,1.3403,1.3403,1.3403,1.3403,1.3403,1.3403,2.2332,2.3091,2.3857,2.3959,2.3893,2.4125,2.529,2.5078,2.4953,2.6184,2.6584,2.6826,2.7275,2.7783,2.8097,2.8062,2.8893,2.9632,2.9885,3.0174,3.0462,3.0556,3.0572,3.0707,3.0977,3.11,3.1243,3.1405,3.1049,3.0574,3.006,2.9471,2.8924,2.849,2.8297,2.8135,2.804,2.8135,2.8246,2.8392,2.8392,2.8646,2.9123,2.8996,2.9059,2.9298,2.9298,2.9298,2.9298,2.9298,2.9298,2.9298,2.9298,2.9361,2.942,2.9312,2.9378,2.9437,2.8768,2.8276,2.7713,2.6247,2.5491,2.4654,2.2343,2.0839,1.9612,1.8205,1.6944,1.6172,1.6789,1.6953,1.6953,1.6953,1.6953,1.6953,1.6953,1.6953,1.6953,1.6953,1.6953,1.6953,1.6953,1.6953,1.6953,1.6953,1.6953,1.6953,1.6953,1.6953,1.6912,1.678,1.604,1.5322,1.4622,1.4712,1.4651,1.4445,1.4731,1.4679,1.4108,1.3942,1.3735,1.3403,1.3403,1.3403,1.3403,1.3403,1.3403,1.3403,1.3403,1.3403,2.2404,2.2946,2.3668,2.4726,2.4743,2.4868,2.6292,2.559,2.5118,2.6835,2.6889,2.6825,2.7571,2.7701,2.7963,2.869,2.9413,3.0172,3.0891,3.0647,3.0573,3.0943,3.0993,3.0993,3.0993,3.1347,3.1405,3.1028,3.0615,3.0076,2.9334,2.8986,2.844,2.7723,2.8008,2.804,2.7707,2.804,2.8408,2.8809,2.8809,2.8809,2.8825,2.9139,2.9298,2.9298,2.9298,2.9298,2.9298,2.9298,2.9298,2.9298,2.9298,2.952,2.9749,2.9331,2.962,3.0021,2.8815,2.777,2.6833,2.5977,2.4813,2.3616,2.2837,2.1324,1.9734,1.893,1.7387,1.6007,1.6007,1.6007,1.6007,1.6007,1.6007,1.6007,1.6007,1.6007,1.6007,1.6007,1.6007,1.6007,1.6007,1.6007,1.6007,1.6007,1.6007,1.6007,1.6007,1.6007,1.5842,1.543,1.4968,1.458,1.4322,1.463,1.4569,1.3831,1.423,1.4351,1.4129,1.3652,1.3403,1.3403,1.3403,1.3403,1.3403,1.3403,1.3403,1.3403,1.3403,1.3403,2.2651,2.35,2.4426,2.5159,2.5526,2.5914,2.6835,2.632,2.6096,2.7587,2.7798,2.7846,2.8326,2.8229,2.8176,2.8341,2.9219,2.9974,3.0195,3.0814,3.1161,3.1025,3.1008,3.0889,3.0616,3.0703,3.072,3.0583,2.998,2.9516,2.9301,2.8484,2.8008,2.804,2.7913,2.8058,2.8456,2.8551,2.8789,2.9139,2.9139,2.9139,2.9139,2.925,2.9298,2.9298,2.9298,2.9298,2.9298,2.8995,2.903,2.9226,2.8686,2.8816,2.9331,2.8927,2.8852,2.8739,2.748,2.6627,2.5819,2.4068,2.3279,2.2797,2.1963,2.0444,1.9012,1.8777,1.7387,1.6007,1.6007,1.6007,1.6007,1.6007,1.6007,1.6007,1.6007,1.6007,1.6007,1.6007,1.6007,1.6039,1.6211,1.6227,1.6227,1.6227,1.6227,1.6227,1.6227,1.5943,1.5489,1.4845,1.4344,1.3771,1.3009,1.3393,1.3534,1.3324,1.3752,1.3974,1.3885,1.3751,1.3666,1.3666,1.3666,1.3666,1.3666,1.3666,1.3619,1.3559,1.3559,1.3505,2.3565,2.4471,2.5323,2.585,2.6267,2.6753,2.7433,2.7258,2.7244,2.8228,2.8326,2.8409,2.9077,2.8772,2.8647,2.9204,2.9634,3.0002,3.0316,3.092,3.1268,3.1046,3.1011,3.0891,3.0652,3.0481,3.0293,3.0021,2.9561,2.9101,2.8669,2.8191,2.7929,2.7992,2.8106,2.8344,2.8793,2.8952,2.9091,2.9298,2.9298,2.9298,2.9298,2.9298,2.9298,2.9298,2.9298,2.9226,2.903,2.8815,2.8929,2.9199,2.8562,2.8838,2.9514,2.8784,2.8548,2.8376,2.6731,2.5741,2.4945,2.3159,2.2366,2.2003,2.1478,2.0089,1.8695,1.8695,1.7387,1.6007,1.6007,1.6007,1.6007,1.6007,1.6007,1.6023,1.6096,1.6104,1.6128,1.6201,1.6259,1.6292,1.6397,1.6414,1.6389,1.6316,1.63,1.624,1.6145,1.5739,1.5151,1.4301,1.3795,1.335,1.2854,1.307,1.3305,1.3537,1.3847,1.3977,1.3977,1.3862,1.3795,1.3795,1.3795,1.3795,1.3795,1.3795,1.3754,1.3673,1.3673,1.3619,2.4828,2.5597,2.6246,2.6682,2.7052,2.7499,2.8155,2.8327,2.8461,2.8742,2.8543,2.8626,2.968,2.9298,2.9275,3.0717,3.0401,3.0226,3.0924,3.0994,3.0994,3.096,3.0926,3.0909,3.0857,3.0498,3.002,2.9396,2.9292,2.8819,2.7797,2.8022,2.8072,2.7802,2.844,2.8825,2.8856,2.9139,2.9298,2.9298,2.9298,2.9298,2.9298,2.9298,2.9298,2.9298,2.9298,2.9066,2.8707,2.8702,2.8852,2.9037,2.8679,2.9113,2.9831,2.8739,2.8468,2.8339,2.6294,2.5025,2.4108,2.2878,2.1963,2.1316,2.1316,2.0089,1.8695,1.8695,1.7387,1.6007,1.6007,1.6015,1.6031,1.6031,1.6031,1.6072,1.6267,1.63,1.6349,1.6519,1.6552,1.656,1.6619,1.6592,1.6552,1.6381,1.6299,1.6179,1.5937,1.5449,1.4729,1.3878,1.3363,1.3156,1.3291,1.3347,1.3668,1.4204,1.4299,1.4292,1.4278,1.3984,1.3835,1.3822,1.3822,1.3822,1.3822,1.3822,1.3822,1.3822,1.3822,1.3815,2.4911,2.5787,2.6712,2.7323,2.8171,2.8868,2.9042,2.9094,2.9027,2.8776,2.8892,2.9237,2.9803,2.9781,2.9827,3.0437,3.068,3.0805,3.0998,3.099,3.0874,3.0549,3.0309,3.0018,2.971,2.9607,2.9356,2.8958,2.8926,2.8688,2.8187,2.82,2.8329,2.857,2.8729,2.8936,2.9186,2.925,2.9298,2.9298,2.9298,2.9298,2.9298,2.9298,2.9298,2.9298,2.9298,2.9066,2.8686,2.8638,2.8499,2.8243,2.8118,2.8119,2.8225,2.7995,2.7265,2.6215,2.5144,2.3988,2.2837,2.1882,2.1438,2.1316,2.1316,2.0089,1.8695,1.8695,1.7387,1.6007,1.6007,1.6104,1.6251,1.6251,1.6251,1.6259,1.6292,1.63,1.6316,1.6357,1.6365,1.6405,1.6552,1.6698,1.6736,1.6696,1.631,1.598,1.6031,1.5017,1.4105,1.3688,1.3224,1.2802,1.2479,1.3142,1.3596,1.3723,1.4078,1.4245,1.4173,1.417,1.4143,1.4021,1.4021,1.4021,1.4021,1.4021,1.4021,1.4021,1.4021,1.3953,2.5928,2.6508,2.6985,2.8207,2.8806,2.916,2.953,2.9596,2.9543,2.9326,2.9438,2.975,3.0325,3.0267,3.0316,3.087,3.0842,3.0692,3.0698,3.0719,3.06,3.019,3.0018,2.9813,2.9607,2.959,2.9358,2.8827,2.8958,2.8817,2.8271,2.8401,2.8567,2.8793,2.8968,2.9107,2.9298,2.9298,2.9298,2.9298,2.9298,2.9298,2.9298,2.9298,2.9298,2.9298,2.9102,2.8872,2.8608,2.8205,2.8089,2.8146,2.7716,2.776,2.7876,2.7084,2.6318,2.5502,2.4068,2.3159,2.2447,2.1599,2.1316,2.1235,2.0779,1.9764,1.8614,1.8164,1.7067,1.6007,1.6007,1.6072,1.6202,1.6284,1.6373,1.6462,1.6544,1.6525,1.6592,1.6674,1.669,1.6722,1.682,1.6801,1.6747,1.6609,1.6258,1.5902,1.5599,1.4739,1.3977,1.366,1.3186,1.2875,1.2875,1.3325,1.3679,1.3901,1.4166,1.4265,1.4183,1.4258,1.419,1.3966,1.396,1.396,1.396,1.4034,1.4119,1.4119,1.4193,1.4136,2.693,2.7244,2.7344,2.896,2.9194,2.9141,2.9746,2.991,2.9935,3.0068,3.0085,3.0289,3.0872,3.0797,3.0833,3.1489,3.104,3.0578,3.0515,3.0429,3.0258,2.995,2.9847,2.983,2.9898,2.9898,2.9614,2.894,2.922,2.9074,2.8347,2.8662,2.8904,2.8904,2.9139,2.9298,2.9298,2.9298,2.9298,2.9298,2.9298,2.9298,2.9298,2.9298,2.9298,2.9262,2.8949,2.8665,2.8464,2.7844,2.7784,2.8033,2.7474,2.7579,2.7805,2.6426,2.57,2.5144,2.3399,2.2608,2.2245,2.1518,2.1316,2.1154,2.0455,1.951,1.8532,1.7764,1.678,1.6015,1.6039,1.6072,1.6145,1.6357,1.6535,1.6706,1.6785,1.6809,1.6849,1.7039,1.7063,1.708,1.7104,1.6947,1.6768,1.6466,1.6197,1.5766,1.511,1.4506,1.402,1.3635,1.323,1.3186,1.3591,1.3679,1.3901,1.4299,1.4299,1.4285,1.4265,1.4265,1.4129,1.3802,1.3822,1.3835,1.3835,1.4007,1.4132,1.4159,1.4238,1.4299,2.6601,2.7356,2.8213,2.9077,2.9547,2.9797,2.9871,2.9893,3.0084,3.0721,3.0855,3.0872,3.0993,3.1241,3.1453,3.1559,3.1525,3.1319,3.0959,3.0617,3.0258,2.995,2.959,2.9521,2.9864,2.9898,2.9716,2.9271,2.96,2.95,2.8764,2.9028,2.9218,2.9218,2.9266,2.9298,2.9298,2.9298,2.9298,2.9298,2.9298,2.9298,2.9298,2.9298,2.9298,2.9278,2.9164,2.8734,2.8088,2.8218,2.7654,2.6826,2.7362,2.7174,2.6663,2.6781,2.566,2.4016,2.3736,2.2705,2.1438,2.1357,2.1316,2.1276,2.1154,2.0008,1.8654,1.8532,1.7314,1.6039,1.6227,1.6389,1.6552,1.6696,1.6866,1.7006,1.6841,1.6809,1.6817,1.6841,1.6841,1.689,1.7088,1.7088,1.6904,1.6481,1.6034,1.5594,1.508,1.4248,1.3673,1.3591,1.3546,1.3546,1.3591,1.3989,1.421,1.4299,1.4299,1.4238,1.4153,1.4146,1.4021,1.3802,1.3973,1.4041,1.4041,1.4105,1.4143,1.4272,1.4292,1.4299,2.6398,2.7457,2.8511,2.9647,2.9913,2.9992,3.0428,3.0535,3.0607,3.0943,3.117,3.1347,3.1347,3.13,3.1319,3.156,3.1595,3.1389,3.0772,3.0498,3.0173,2.9641,2.9254,2.9173,2.9546,2.9564,2.9492,2.9304,2.9663,2.9663,2.9095,2.9218,2.9298,2.9298,2.9298,2.9298,2.9298,2.9298,2.9298,2.9298,2.9298,2.9298,2.9298,2.9298,2.9298,2.9278,2.9008,2.8629,2.8245,2.7884,2.7336,2.6801,2.6884,2.6702,2.6307,2.5502,2.4614,2.3656,2.2746,2.1911,2.1316,2.1316,2.0952,2.0495,2.0008,1.899,1.7905,1.7478,1.6767,1.6193,1.6414,1.6519,1.6625,1.6768,1.6866,1.693,1.6947,1.6955,1.6955,1.6955,1.6955,1.7023,1.7096,1.7112,1.6849,1.6137,1.5837,1.5352,1.4336,1.3856,1.3591,1.3591,1.3591,1.3723,1.3989,1.4166,1.4299,1.4299,1.4299,1.4272,1.4204,1.4197,1.417,1.4095,1.3994,1.3939,1.3939,1.4027,1.4153,1.4177,1.4258,1.4299,2.6096,2.7148,2.818,2.9408,2.9669,2.9778,3.0422,3.058,3.0584,3.0584,3.0678,3.0802,3.1006,3.1007,3.1042,3.1142,3.1402,3.1267,3.0258,3.0276,3.0055,2.9142,2.8876,2.8926,2.9276,2.9371,2.9443,2.945,2.9709,2.9712,2.9334,2.9298,2.9298,2.9298,2.9298,2.9298,2.9298,2.9298,2.9298,2.9298,2.9298,2.9298,2.9298,2.9393,2.9425,2.942,2.8927,2.8619,2.8422,2.7634,2.7125,2.6834,2.6505,2.6268,2.5911,2.4614,2.3856,2.3307,2.2073,2.1478,2.1276,2.1033,2.0536,1.9845,1.8981,1.8092,1.7266,1.6701,1.6434,1.6349,1.6527,1.6617,1.6698,1.6833,1.6874,1.6914,1.708,1.7112,1.7112,1.7112,1.7112,1.7112,1.7112,1.6984,1.6609,1.5769,1.552,1.4965,1.3657,1.3606,1.3613,1.3525,1.3645,1.3885,1.4245,1.4278,1.4299,1.4299,1.4299,1.4299,1.4299,1.4299,1.4299,1.4299,1.4031,1.3916,1.3916,1.4075,1.4129,1.4136,1.4245,1.4299,2.5549,2.6161,2.6874,2.7636,2.835,2.895,2.9323,2.9406,2.9419,2.947,2.8958,2.8693,2.9372,3.0331,3.0788,3.012,3.0915,3.1075,2.9572,2.9962,2.9878,2.8435,2.8526,2.8883,2.9239,2.9638,2.9872,2.9877,2.989,2.9712,2.9334,2.9298,2.9298,2.9298,2.9298,2.9298,2.9298,2.9298,2.9298,2.9298,2.9298,2.9298,2.9314,2.9647,2.9754,2.9749,2.9282,2.8815,2.8364,2.7792,2.7122,2.6426,2.6386,2.5911,2.5144,2.5065,2.4028,2.2648,2.2567,2.2003,2.1154,2.0333,2.0049,1.9845,1.8981,1.8092,1.7363,1.729,1.68,1.6349,1.6527,1.6706,1.6841,1.7055,1.7096,1.7096,1.7112,1.7112,1.7112,1.7112,1.7112,1.7112,1.7112,1.6625,1.6081,1.5596,1.5038,1.43,1.335,1.3564,1.365,1.3264,1.3734,1.4082,1.4125,1.4217,1.4299,1.4299,1.4299,1.4299,1.4299,1.4299,1.4299,1.4299,1.4285,1.4278,1.4278,1.4285,1.4285,1.4285,1.4299,1.4299,2.5376,2.5675,2.6133,2.79,2.8257,2.841,2.9409,2.9509,2.9473,2.9952,3.0037,3.0123,3.0395,3.0549,3.0667,3.063,3.1564,3.1774,3.0235,3.0233,2.9856,2.8331,2.8276,2.8499,2.8866,2.9074,2.927,2.9517,2.9513,2.9441,2.9298,2.9298,2.9298,2.9298,2.9298,2.9298,2.9298,2.9298,2.9298,2.9298,2.9298,2.9409,2.9611,2.9738,3.0076,3.0452,2.9751,2.9025,2.8355,2.7561,2.69,2.6386,2.6386,2.5858,2.5025,2.4455,2.3548,2.2527,2.1963,2.1184,2.0414,2.0089,1.9282,1.8399,1.8068,1.7502,1.6919,1.6951,1.6822,1.6655,1.6877,1.6974,1.6987,1.7096,1.7112,1.7112,1.7112,1.7112,1.7112,1.7112,1.6841,1.6633,1.6522,1.6104,1.5551,1.5016,1.4736,1.423,1.3281,1.3538,1.3623,1.3195,1.3591,1.3926,1.3926,1.393,1.4048,1.415,1.4156,1.4197,1.4299,1.4299,1.4299,1.4299,1.4299,1.4299,1.4299,1.4299,1.4299,1.4299,1.4299,1.4299,2.4407,2.4919,2.5627,2.7539,2.79,2.8046,2.9194,2.9227,2.9142,2.9615,2.9919,3.0174,3.0406,3.0576,3.0752,3.096,3.1652,3.1635,3.0211,2.9899,2.9363,2.8075,2.8084,2.8326,2.8652,2.8861,2.9079,2.9282,2.9298,2.9298,2.9298,2.9298,2.9298,2.9298,2.9298,2.9298,2.9298,2.9298,2.9298,2.9298,2.9298,2.9488,2.9785,2.9912,3.0315,3.0871,2.9938,2.918,2.8501,2.7563,2.686,2.6386,2.6386,2.5779,2.4826,2.4056,2.3187,2.2205,2.1195,2.0495,1.9886,1.9316,1.8426,1.7552,1.7261,1.6893,1.6609,1.673,1.676,1.6833,1.6955,1.7071,1.7112,1.7112,1.7112,1.7112,1.7112,1.7112,1.7112,1.7112,1.6669,1.6284,1.6219,1.5585,1.4957,1.455,1.4323,1.3907,1.3053,1.3392,1.3497,1.3124,1.3511,1.3822,1.3869,1.3923,1.4041,1.4143,1.415,1.4197,1.4299,1.4299,1.4299,1.4299,1.4299,1.4299,1.4299,1.4299,1.4299,1.4299,1.4299,1.4299,0.0,0.0,0.0,2.6389,2.709,2.7739,2.8544,2.8461,2.8213,2.8279,2.8329,2.8543,2.9235,3.0254,3.1011,3.0995,3.1012,3.0613,2.9444,2.8918,2.8389,2.7677,2.7895,2.8259,2.8655,2.9066,2.9298,2.9298,2.9298,2.9298,2.9298,2.9298,2.9298,2.9298,2.9298,2.9298,2.9298,2.9298,2.9298,2.9298,2.9314,2.9504,2.9817,3.015,3.0537,3.0865,2.993,2.929,2.8808,2.7947,2.7122,2.6386,2.6386,2.5581,2.4427,2.3936,2.2946,2.1669,2.0414,1.9967,1.9642,1.7937,1.7495,1.7394,1.6567,1.6446,1.6592,1.6592,1.6722,1.6817,1.6817,1.6939,1.7112,1.7112,1.7112,1.7112,1.7112,1.7104,1.7104,1.7104,1.6609,1.6187,1.6187,1.5133,1.4287,1.4287,1.3784,1.3238,1.2781,1.312,1.3305,1.303,1.3501,1.3899,1.4055,1.4204,1.4285,1.4292,1.4292,1.4292,1.4299,1.4299,1.4299,1.4299,1.4299,1.4299,1.4299,1.4299,1.4299,1.4299,1.4299,1.4299,2.2766,0.0,0.0,0.0,0.0,0.0,2.6944,2.743,2.7731,2.7848,2.8906,2.9962,3.0439,3.1006,3.1338,3.1098,3.1029,3.0497,2.9061,2.8344,2.7885,2.7644,2.7727,2.8049,2.864,2.9066,2.9298,2.9298,2.9298,2.9298,2.9298,2.9298,2.9298,2.9298,2.9298,2.9298,2.9298,2.9298,2.9298,2.9298,2.9552,2.9854,3.015,3.0553,3.094,3.1214,3.033,2.9547,2.8808,2.7647,2.686,2.6347,2.57,2.4866,2.3896,2.3187,2.1911,2.0495,2.013,1.9153,1.8078,1.7687,1.7237,1.6866,1.67,1.6785,1.6966,1.6966,1.6998,1.7039,1.7039,1.7071,1.7112,1.7112,1.7112,1.7112,1.7112,1.6971,1.6969,1.7308,1.6642,1.5926,1.5794,1.4934,1.4167,1.3728,1.3602,1.3482,1.3356,1.357,1.3651,1.3606,1.3689,1.3815,1.3899,1.3903,1.4014,1.4173,1.418,1.4183,1.4292,1.4299,1.4299,1.4299,1.4299,1.4299,1.4299,1.4299,1.4299,1.4299,1.4299,1.4299,2.2632,2.3291,2.4103,2.5581,0.0,0.0,2.6979,2.7075,2.7147,2.7933,2.8843,2.9664,3.0189,3.0344,3.019,2.9561,2.941,2.9167,2.8573,2.7881,2.7542,2.7765,2.7998,2.8346,2.8907,2.9154,2.9298,2.9298,2.9298,2.9298,2.9298,2.9298,2.9298,2.9298,2.9298,2.9298,2.9298,2.9298,2.9298,2.9298,2.9663,2.996,3.0293,3.0733,3.1099,3.1356,3.0477,2.9625,2.8808,2.7726,2.6742,2.5819,2.5303,2.4467,2.3468,2.2837,2.1588,2.016,1.9632,1.8598,1.7454,1.7143,1.6901,1.6714,1.6777,1.693,1.7112,1.7112,1.7112,1.7112,1.7112,1.7112,1.7112,1.7112,1.7112,1.7156,1.7332,1.7235,1.7112,1.719,1.6484,1.5856,1.5755,1.4979,1.4323,1.3937,1.3788,1.3673,1.3673,1.3747,1.3822,1.3933,1.3939,1.396,1.3984,1.4034,1.4068,1.4163,1.4163,1.4204,1.4299,1.4299,1.4299,1.4299,1.4299,1.4299,1.4299,1.4299,1.4299,1.4299,1.4299,1.4299,2.2237,2.3371,2.4667,2.5899,2.6051,0.0,2.7423,2.6869,2.6514,2.7991,2.8237,2.8426,2.9027,2.8927,2.8358,2.7335,2.7102,2.7314,2.8002,2.7481,2.7296,2.8089,2.846,2.8804,2.9262,2.9298,2.9298,2.9298,2.9298,2.9298,2.9298,2.9298,2.9298,2.9298,2.9298,2.9298,2.9298,2.9298,2.9314,2.9361,2.9711,3.006,3.0394,3.0797,3.1131,3.1356,3.0454,2.9586,2.8808,2.7883,2.6531,2.5104,2.4985,2.4188,2.309,2.251,2.15,2.0242,1.9038,1.8101,1.7379,1.6609,1.6542,1.6817,1.6833,1.6947,1.7112,1.7112,1.7112,1.7112,1.7112,1.7112,1.7112,1.7112,1.7112,1.7244,1.7691,1.7627,1.7406,1.7025,1.6484,1.6057,1.5972,1.5255,1.4614,1.4529,1.4115,1.3822,1.3822,1.3835,1.3903,1.4082,1.4139,1.415,1.4285,1.4299,1.4299,1.4299,1.4299,1.4299,1.4299,1.4299,1.4299,1.4299,1.4299,1.4299,1.4299,1.4299,1.4299,1.4299,1.4299,1.4299,2.1567,2.2223,2.3129,2.3647,2.4257,0.0,2.4519,2.541,2.6156,2.5796,2.7176,2.8435,2.8347,2.8585,2.8345,2.7016,2.6961,2.7134,2.7292,2.6943,2.7155,2.8434,2.8422,2.8573,2.923,2.9298,2.9298,2.9298,2.9298,2.9298,2.9298,2.9298,2.9298,2.9298,2.9298,2.9298,2.9298,2.9298,2.9441,2.9727,3.0023,3.041,3.0797,3.1125,3.1331,3.1318,3.0144,2.9329,2.873,2.6886,2.57,2.5025,2.4335,2.3508,2.255,2.1153,2.0066,1.9135,1.8355,1.7509,1.6764,1.6741,1.6752,1.6833,1.6971,1.7088,1.7112,1.7112,1.7112,1.7112,1.7112,1.7112,1.7112,1.7112,1.7112,1.7244,1.7691,1.7627,1.7578,1.7871,1.7417,1.6908,1.6517,1.5682,1.4835,1.4058,1.3989,1.4027,1.4027,1.4136,1.4224,1.4251,1.4258,1.4272,1.4299,1.4299,1.4299,1.4299,1.4299,1.4299,1.4299,1.4299,1.4299,1.4299,1.4299,1.4299,1.4299,1.4299,1.4299,1.4299,1.4299,1.4299,2.1798,2.213,2.2783,2.34,0.0,0.0,0.0,2.4524,2.5097,2.5669,2.6698,2.7575,2.7802,2.7718,2.7327,2.6315,2.6527,2.6702,2.6394,2.6818,2.7459,2.8285,2.8623,2.8877,2.9246,2.9298,2.9298,2.9298,2.9298,2.9298,2.9298,2.9298,2.9298,2.9298,2.9298,2.9298,2.9298,2.9472,2.9611,2.9785,3.0123,3.0492,3.0908,3.0799,3.0763,3.0686,2.964,2.8847,2.8104,2.6412,2.5224,2.4375,2.3548,2.2463,2.1295,2.0508,1.9458,1.8349,1.8026,1.7366,1.6687,1.6785,1.6866,1.6955,1.7088,1.7112,1.7112,1.7112,1.7112,1.7112,1.7112,1.7112,1.7112,1.7112,1.7112,1.7288,1.7989,1.8052,1.8192,1.8929,1.8416,1.763,1.6843,1.6003,1.5198,1.4496,1.4311,1.4183,1.4183,1.4251,1.4299,1.4299,1.4299,1.4299,1.4299,1.4299,1.4299,1.4299,1.4299,1.4299,1.4299,1.4299,1.4333,1.4407,1.4333,1.4333,1.4407,1.4333,1.4299,1.4299,1.4299,1.4299,2.218,2.2353,2.2833,0.0,0.0,2.2928,0.0,0.0,0.0,2.5486,2.6007,2.6352,2.6976,2.6712,2.6182,2.5412,2.5871,2.6076,2.5424,2.6506,2.7514,2.7809,2.8705,2.923,2.9095,2.9087,2.9155,2.9282,2.9171,2.9155,2.9282,2.9298,2.9298,2.9298,2.9298,2.9298,2.9298,2.9611,2.9781,2.9786,3.0066,3.0394,3.0738,3.02,2.9974,2.9935,2.9042,2.8143,2.728,2.5898,2.4654,2.3508,2.2682,2.1489,2.0187,1.9894,1.9034,1.7954,1.7776,1.7381,1.6858,1.6858,1.6955,1.7112,1.7112,1.7112,1.7112,1.7112,1.7156,1.7244,1.7244,1.7288,1.7332,1.7244,1.7288,1.7595,1.8339,1.8558,1.8908,1.9746,1.9083,1.8025,1.7039,1.6228,1.5528,1.4955,1.4557,1.4299,1.4299,1.4299,1.4299,1.4299,1.4299,1.4299,1.4299,1.4299,1.4312,1.434,1.434,1.4353,1.438,1.4353,1.438,1.4468,1.436,1.4373,1.4509,1.4394,1.4326,1.4299,1.4299,1.4299,2.2229,2.2156,2.2583,0.0,2.2495,2.2494,0.0,0.0,2.3039,2.2988,0.0,2.511,2.5172,0.0,0.0,2.4406,2.5044,2.5365,2.4396,2.5442,2.6427,2.6802,2.8303,2.9028,2.8377,2.8309,2.8614,2.925,2.871,2.863,2.9266,2.9298,2.9298,2.9298,2.9298,2.9298,2.9298,2.9611,2.976,2.9725,3.0024,3.0214,3.0199,2.978,2.9562,2.9484,2.8261,2.728,2.6399,2.4694,2.3508,2.2659,2.1929,2.1043,2.0061,1.8873,1.8335,1.8078,1.7426,1.7151,1.708,1.708,1.7096,1.7112,1.7112,1.7112,1.7112,1.7112,1.7375,1.7735,1.7735,1.8033,1.8252,1.7822,1.8033,1.8383,1.8471,1.8821,1.9301,1.979,1.8821,1.7709,1.7167,1.6305,1.5396,1.452,1.4343,1.4299,1.4299,1.4299,1.4299,1.4299,1.4299,1.4299,1.4299,1.4299,1.4353,1.4482,1.4489,1.455,1.464,1.4557,1.4434,1.4326,1.4306,1.4373,1.4509,1.4496,1.4421,1.4299,1.4299,1.4299,2.1789,2.1978,2.2475,2.2023,2.2271,0.0,2.1832,0.0,2.2544,0.0,0.0,0.0,0.0,0.0,0.0,0.0,2.4762,0.0,0.0,0.0,2.6004,2.6586,0.0,2.8095,2.8177,2.818,2.8519,2.925,2.863,2.8535,2.925,2.9298,2.9298,2.9298,2.9298,2.9285,2.9221,2.9566,2.9688,2.9654,2.974,2.9775,2.9718,2.9095,2.8666,2.8339,2.7608,2.6649,2.5528,2.4295,2.3015,2.1691,2.058,1.9931,1.9519,1.8538,1.794,1.753,1.7211,1.7112,1.7112,1.7112,1.7112,1.7112,1.7112,1.7112,1.7156,1.7419,1.7647,1.7866,1.8121,1.8339,1.8471,1.8252,1.8339,1.8558,1.8864,1.9074,1.9335,1.9834,1.8777,1.763,1.72,1.6101,1.5087,1.4387,1.4299,1.4299,1.4299,1.4299,1.4333,1.4414,1.4421,1.4462,1.455,1.4512,1.4577,1.4593,1.4563,1.4536,1.4559,1.4468,1.4401,1.4421,1.434,1.4414,1.4599,1.4557,1.4529,1.4512,1.4512,1.4509,2.2169,2.2359,2.2696,2.1906,2.2037,2.2198,0.0,0.0,0.0,0.0,0.0,0.0,0.0,0.0,2.4204,2.3871,0.0,2.431,0.0,2.4387,0.0,0.0,0.0,0.0,0.0,2.7611,2.7896,2.8806,2.8205,2.824,2.925,2.9298,2.9298,2.9298,2.9393,2.9371,2.9205,2.962,2.9698,2.9435,2.949,2.9368,2.9134,2.8431,2.7844,2.7412,2.6781,2.5819,2.4694,2.3828,2.2458,2.0813,1.967,1.9095,1.883,1.8138,1.7565,1.7112,1.7112,1.7112,1.7112,1.7244,1.72,1.7156,1.7419,1.7375,1.7375,1.7866,1.8085,1.8252,1.8602,1.8777,1.8864,1.8733,1.8777,1.8952,1.9161,1.9301,1.9432,1.965,1.8549,1.7455,1.6972,1.5829,1.4822,1.4387,1.4299,1.4312,1.4353,1.4326,1.4353,1.4496,1.4475,1.4496,1.4566,1.4572,1.4593,1.4626,1.4652,1.4597,1.4516,1.4414,1.4387,1.4448,1.4387,1.4482,1.4694,1.449,1.4485,1.4625,1.4682,1.4633,2.3954,2.3545,2.3267,2.2008,2.1715,2.1642,2.1306,0.0,2.1715,0.0,0.0,0.0,0.0,2.3353,2.3459,2.317,2.3154,0.0,0.0,0.0,0.0,0.0,0.0,0.0,0.0,2.6103,2.6301,0.0,2.7155,2.7495,2.9218,2.9298,2.9298,2.9298,2.9595,2.9587,2.9221,2.9853,2.9777,2.903,2.9374,2.9095,2.8328,2.7844,2.7412,2.6953,2.57,2.4666,2.3776,2.2958,2.169,2.0146,1.9487,1.8797,1.8147,1.7424,1.7104,1.7112,1.7112,1.7112,1.7156,1.7647,1.7471,1.7288,1.8164,1.8121,1.7866,1.8339,1.8821,1.9161,1.9161,1.9519,1.9746,1.9292,1.9519,1.9746,1.9292,1.9563,1.9737,1.9292,1.8068,1.698,1.6489,1.5609,1.4822,1.4387,1.4299,1.4346,1.4489,1.4387,1.4353,1.4496,1.4387,1.4306,1.4312,1.4312,1.4373,1.4509,1.4794,1.4821,1.4523,1.4509,1.4441,1.4306,1.4434,1.4584,1.4694,1.4376,1.428,1.4403,1.4599,1.4694,2.4071,2.4393,2.4466,2.2709,2.2798,2.2915,2.1525,2.1467,0.0,0.0,0.0,0.0,0.0,2.272,2.2853,2.2794,2.2951,0.0,0.0,0.0,0.0,0.0,0.0,0.0,0.0,0.0,0.0,0.0,2.7717,0.0,2.925,2.9298,2.9409,2.9611,2.9722,2.9713,2.9478,2.9708,2.9518,2.8933,2.9036,2.8666,2.783,2.7673,2.6925,2.57,2.5303,2.4308,2.2958,2.2021,2.0742,1.9285,1.8614,1.7878,1.7258,1.7135,1.7288,1.7559,1.7559,1.7375,1.72,1.7647,1.7691,1.7682,1.8296,1.8383,1.8339,1.8821,1.9074,1.9248,1.9563,1.979,1.9877,1.9693,1.979,1.9877,1.9693,1.9519,1.9388,1.9248,1.8068,1.6928,1.6489,1.5609,1.4822,1.4387,1.4299,1.4319,1.4367,1.4333,1.4353,1.4496,1.4468,1.4482,1.4539,1.4545,1.4566,1.4613,1.4665,1.4618,1.4516,1.4421,1.4346,1.4299,1.4346,1.4496,1.4694,1.4611,1.4666,1.4946,1.4986,1.4792,2.4686,2.5052,2.5106,2.3545,2.3618,2.3662,2.2081,2.1964,2.2198,0.0,0.0,0.0,0.0,2.2974,2.2871,2.3106,2.312,0.0,0.0,2.2784,0.0,0.0,0.0,0.0,0.0,0.0,0.0,0.0,0.0,0.0,0.0,2.9298,2.9457,2.977,2.9933,2.9858,2.961,2.9709,2.9492,2.8886,2.873,2.83,2.7594,2.7437,2.6531,2.5065,2.4773,2.3868,2.2527,2.1295,2.0088,1.8922,1.8177,1.7588,1.7175,1.729,1.7647,1.8042,1.8042,1.7858,1.7682,1.8164,1.8164,1.8173,1.8777,1.8864,1.8821,1.9117,1.9335,1.9475,1.9606,1.979,1.9921,1.9921,1.979,1.965,1.965,1.9301,1.8908,1.8733,1.7814,1.6928,1.6489,1.5609,1.4822,1.4387,1.4299,1.4319,1.4367,1.4333,1.4353,1.4496,1.4468,1.4475,1.4532,1.4586,1.4593,1.4539,1.4536,1.4489,1.4441,1.4346,1.4299,1.4299,1.4346,1.4468,1.4613,1.4531,1.4559,1.4792,1.4659,1.4446]},{"header":{"parameterUnit":"m.s-1","parameterCategory":1,"la1":30.6,"la2":29.2853,"lo1":-89.7004,"lo2":-87.6739,"dx":0.0162,"dy":0.0183,"nx":112,"ny":82,"refTime":"2022-11-05T18:00:00:Z","depth":0,"parameterNumber":3,"parameterNumberName":"V-component_of_WINDS"},"data":[0.0,0.0,0.0,0.0,0.0,0.0,0.0,0.0,0.0,0.0,0.0,0.0,0.0,0.0,0.0,0.0,0.0,0.0,0.0,0.0,0.0,0.0,0.0,0.0,0.0,0.0,0.0,0.0,0.0,0.0,0.0,0.0,0.0,0.0,0.0,0.0,0.0,0.0,0.0,0.0,0.0,0.0,0.0,0.0,0.0,0.0,0.0,0.0,0.0,0.0,0.0,0.0,0.0,0.0,0.0,0.0,0.0,0.0,0.0,0.0,0.0,0.0,0.0,0.0,0.0,0.0,0.0,0.0,0.0,0.0,0.0,0.0,0.0,0.0,0.0,0.0,0.0,0.0,0.0,0.0,0.0,0.0,0.0,0.0,0.0,0.0,0.0,0.0,0.0,0.0,3.4018,3.4014,3.47,3.5114,3.5097,3.5102,3.5119,3.5127,0.0,0.0,0.0,0.0,0.0,0.0,0.0,0.0,0.0,0.0,0.0,0.0,0.0,0.0,0.0,0.0,0.0,0.0,0.0,0.0,0.0,0.0,0.0,0.0,0.0,0.0,0.0,0.0,0.0,0.0,0.0,0.0,0.0,0.0,0.0,0.0,0.0,0.0,0.0,0.0,0.0,0.0,0.0,0.0,0.0,0.0,0.0,0.0,0.0,0.0,0.0,0.0,0.0,0.0,0.0,0.0,0.0,0.0,0.0,0.0,0.0,0.0,0.0,0.0,0.0,0.0,0.0,0.0,0.0,0.0,0.0,0.0,0.0,0.0,0.0,0.0,0.0,0.0,0.0,0.0,0.0,0.0,0.0,0.0,0.0,0.0,0.0,0.0,0.0,0.0,0.0,0.0,0.0,0.0,0.0,0.0,0.0,0.0,0.0,0.0,0.0,0.0,0.0,0.0,3.4227,3.4848,3.5102,3.5216,3.5101,3.517,3.5229,3.5261,0.0,0.0,0.0,0.0,0.0,0.0,0.0,0.0,0.0,0.0,0.0,0.0,0.0,0.0,0.0,0.0,0.0,0.0,0.0,0.0,0.0,0.0,0.0,0.0,0.0,0.0,0.0,0.0,0.0,0.0,0.0,0.0,0.0,0.0,0.0,0.0,0.0,0.0,0.0,0.0,0.0,0.0,0.0,0.0,0.0,0.0,0.0,0.0,0.0,0.0,0.0,0.0,0.0,0.0,0.0,0.0,0.0,0.0,0.0,0.0,0.0,0.0,0.0,0.0,0.0,0.0,0.0,0.0,0.0,0.0,0.0,0.0,0.0,0.0,0.0,0.0,0.0,0.0,0.0,0.0,0.0,0.0,0.0,0.0,0.0,0.0,0.0,0.0,0.0,0.0,0.0,0.0,0.0,0.0,0.0,0.0,0.0,0.0,0.0,0.0,0.0,0.0,0.0,3.4595,3.4993,3.5318,3.5423,3.5416,3.5345,3.5352,3.5349,3.5354,3.5241,0.0,0.0,0.0,0.0,0.0,0.0,0.0,0.0,0.0,0.0,0.0,0.0,0.0,0.0,0.0,0.0,0.0,0.0,0.0,0.0,0.0,0.0,0.0,0.0,0.0,0.0,0.0,0.0,0.0,0.0,0.0,0.0,0.0,0.0,0.0,0.0,0.0,0.0,0.0,0.0,0.0,0.0,0.0,0.0,0.0,0.0,0.0,0.0,0.0,0.0,0.0,0.0,0.0,0.0,0.0,0.0,0.0,0.0,0.0,0.0,0.0,0.0,0.0,0.0,0.0,0.0,0.0,0.0,0.0,0.0,0.0,0.0,0.0,0.0,0.0,0.0,0.0,0.0,0.0,0.0,0.0,0.0,0.0,0.0,0.0,0.0,0.0,0.0,0.0,0.0,0.0,0.0,0.0,0.0,0.0,0.0,0.0,0.0,0.0,0.0,0.0,0.0,3.5938,3.6199,3.6182,3.6188,3.6179,3.6106,3.609,3.6019,3.5773,3.5517,0.0,0.0,0.0,0.0,0.0,0.0,0.0,0.0,0.0,0.0,0.0,0.0,0.0,0.0,0.0,0.0,0.0,0.0,0.0,0.0,0.0,0.0,0.0,0.0,0.0,0.0,0.0,0.0,0.0,0.0,0.0,0.0,0.0,0.0,0.0,0.0,0.0,0.0,0.0,0.0,0.0,0.0,0.0,0.0,0.0,0.0,0.0,0.0,0.0,0.0,0.0,0.0,0.0,0.0,0.0,0.0,0.0,0.0,0.0,0.0,0.0,0.0,0.0,0.0,0.0,0.0,0.0,0.0,0.0,0.0,0.0,0.0,0.0,0.0,0.0,0.0,0.0,0.0,0.0,0.0,0.0,0.0,0.0,0.0,0.0,0.0,0.0,0.0,0.0,0.0,0.0,0.0,0.0,0.0,0.0,0.0,0.0,0.0,0.0,0.0,0.0,0.0,3.6957,3.8006,3.7938,3.7916,3.7884,3.785,3.7874,3.7591,3.6844,3.6041,0.0,0.0,0.0,0.0,0.0,0.0,0.0,0.0,0.0,0.0,0.0,0.0,0.0,0.0,0.0,0.0,0.0,0.0,0.0,0.0,0.0,0.0,0.0,0.0,0.0,0.0,0.0,0.0,0.0,0.0,0.0,0.0,0.0,0.0,0.0,0.0,0.0,0.0,0.0,0.0,0.0,0.0,0.0,0.0,0.0,0.0,0.0,0.0,0.0,0.0,0.0,0.0,0.0,0.0,0.0,0.0,0.0,0.0,0.0,0.0,0.0,0.0,0.0,0.0,0.0,0.0,0.0,0.0,0.0,0.0,0.0,0.0,0.0,0.0,0.0,0.0,0.0,0.0,0.0,0.0,0.0,0.0,0.0,0.0,0.0,0.0,0.0,0.0,0.0,0.0,0.0,0.0,0.0,0.0,0.0,0.0,0.0,0.0,0.0,0.0,0.0,0.0,3.6812,3.8031,3.7466,3.7914,3.82,3.8188,3.8162,3.7808,3.7027,0.0,0.0,0.0,0.0,0.0,0.0,0.0,0.0,0.0,0.0,0.0,0.0,0.0,0.0,0.0,0.0,0.0,0.0,0.0,0.0,0.0,0.0,0.0,0.0,0.0,0.0,0.0,0.0,0.0,0.0,0.0,0.0,0.0,0.0,0.0,0.0,0.0,0.0,0.0,0.0,0.0,0.0,0.0,0.0,0.0,0.0,0.0,0.0,0.0,0.0,0.0,0.0,0.0,0.0,0.0,0.0,0.0,0.0,0.0,0.0,0.0,0.0,0.0,0.0,0.0,0.0,0.0,0.0,0.0,0.0,0.0,0.0,0.0,0.0,0.0,0.0,0.0,0.0,0.0,0.0,0.0,0.0,0.0,0.0,0.0,0.0,0.0,0.0,0.0,0.0,0.0,0.0,0.0,0.0,0.0,0.0,0.0,0.0,0.0,0.0,0.0,0.0,3.5159,3.7479,3.8862,3.8255,3.8747,3.9081,3.9081,3.9044,3.8452,3.7081,0.0,0.0,0.0,0.0,0.0,0.0,0.0,0.0,0.0,0.0,0.0,0.0,0.0,0.0,0.0,0.0,0.0,0.0,0.0,0.0,0.0,0.0,0.0,0.0,0.0,0.0,0.0,0.0,0.0,0.0,0.0,0.0,0.0,0.0,0.0,0.0,0.0,0.0,0.0,0.0,0.0,0.0,0.0,0.0,0.0,0.0,0.0,0.0,0.0,0.0,0.0,0.0,0.0,0.0,0.0,0.0,0.0,0.0,0.0,0.0,0.0,0.0,0.0,0.0,0.0,0.0,0.0,0.0,0.0,0.0,0.0,0.0,0.0,0.0,0.0,0.0,0.0,0.0,0.0,0.0,0.0,0.0,0.0,0.0,0.0,0.0,0.0,0.0,0.0,0.0,0.0,0.0,0.0,0.0,0.0,0.0,0.0,0.0,0.0,0.0,0.0,0.0,3.6823,3.9259,4.0873,4.0706,4.0754,4.0826,4.0787,4.079,3.9712,0.0,0.0,0.0,0.0,0.0,0.0,0.0,0.0,0.0,0.0,0.0,0.0,0.0,0.0,0.0,0.0,0.0,0.0,0.0,0.0,0.0,0.0,0.0,0.0,0.0,0.0,0.0,0.0,0.0,0.0,0.0,0.0,0.0,0.0,0.0,0.0,0.0,0.0,0.0,0.0,0.0,0.0,0.0,0.0,0.0,0.0,0.0,0.0,0.0,0.0,0.0,0.0,0.0,0.0,0.0,0.0,0.0,0.0,0.0,0.0,0.0,0.0,0.0,0.0,0.0,0.0,0.0,0.0,0.0,0.0,0.0,0.0,0.0,0.0,0.0,0.0,0.0,0.0,0.0,0.0,0.0,0.0,0.0,0.0,0.0,0.0,0.0,0.0,0.0,0.0,0.0,0.0,0.0,0.0,0.0,0.0,0.0,0.0,0.0,0.0,0.0,0.0,0.0,3.6856,3.9766,4.1482,4.0849,4.1349,4.1452,4.0868,4.0842,3.9769,3.7172,0.0,0.0,0.0,0.0,0.0,0.0,0.0,0.0,0.0,0.0,0.0,0.0,0.0,0.0,0.0,0.0,0.0,0.0,0.0,0.0,0.0,0.0,0.0,0.0,0.0,0.0,0.0,0.0,0.0,0.0,0.0,0.0,0.0,0.0,0.0,0.0,0.0,0.0,0.0,0.0,0.0,0.0,0.0,0.0,0.0,0.0,0.0,0.0,0.0,0.0,0.0,0.0,0.0,0.0,0.0,0.0,0.0,0.0,0.0,0.0,0.0,0.0,0.0,0.0,0.0,0.0,0.0,0.0,0.0,0.0,0.0,0.0,0.0,0.0,0.0,0.0,0.0,0.0,0.0,0.0,0.0,0.0,0.0,0.0,0.0,0.0,0.0,0.0,0.0,0.0,0.0,0.0,0.0,0.0,0.0,0.0,0.0,0.0,0.0,0.0,0.0,0.0,3.6947,4.0327,4.2167,4.092,4.1615,4.1797,4.0899,4.1196,4.0473,3.8216,0.0,0.0,0.0,0.0,0.0,0.0,0.0,0.0,0.0,0.0,0.0,0.0,0.0,0.0,0.0,0.0,0.0,0.0,0.0,0.0,0.0,0.0,0.0,0.0,0.0,0.0,0.0,0.0,0.0,0.0,0.0,0.0,0.0,0.0,0.0,0.0,0.0,0.0,0.0,0.0,0.0,0.0,0.0,0.0,0.0,0.0,0.0,0.0,0.0,0.0,0.0,0.0,0.0,0.0,0.0,0.0,0.0,0.0,0.0,0.0,0.0,0.0,0.0,0.0,0.0,0.0,0.0,0.0,0.0,0.0,0.0,0.0,0.0,0.0,0.0,0.0,0.0,0.0,0.0,0.0,0.0,0.0,0.0,0.0,0.0,0.0,0.0,0.0,0.0,0.0,0.0,0.0,0.0,0.0,0.0,0.0,0.0,0.0,0.0,0.0,0.0,0.0,3.7337,4.1008,4.2975,4.1341,4.1927,4.2073,4.1218,4.1868,4.1611,3.9934,0.0,0.0,0.0,0.0,0.0,0.0,0.0,0.0,0.0,0.0,0.0,0.0,0.0,0.0,0.0,0.0,0.0,0.0,0.0,0.0,0.0,0.0,0.0,0.0,0.0,0.0,0.0,0.0,0.0,0.0,0.0,0.0,0.0,0.0,0.0,0.0,0.0,0.0,0.0,0.0,0.0,0.0,0.0,0.0,0.0,0.0,0.0,0.0,0.0,0.0,0.0,0.0,0.0,0.0,0.0,0.0,0.0,0.0,0.0,0.0,3.8797,3.7717,0.0,0.0,0.0,0.0,0.0,0.0,0.0,0.0,0.0,0.0,0.0,0.0,0.0,0.0,0.0,0.0,0.0,0.0,0.0,0.0,0.0,0.0,0.0,0.0,0.0,0.0,0.0,0.0,0.0,0.0,0.0,0.0,0.0,0.0,0.0,0.0,0.0,0.0,0.0,0.0,3.9744,4.2542,4.4232,4.3882,4.4054,4.3834,4.3,4.3164,4.2559,4.0831,4.0361,0.0,0.0,0.0,0.0,0.0,0.0,0.0,0.0,0.0,0.0,0.0,0.0,0.0,0.0,0.0,0.0,0.0,0.0,0.0,0.0,0.0,0.0,0.0,0.0,0.0,0.0,0.0,0.0,0.0,0.0,0.0,0.0,0.0,0.0,0.0,0.0,0.0,0.0,0.0,0.0,0.0,0.0,0.0,0.0,0.0,0.0,0.0,0.0,0.0,0.0,0.0,0.0,0.0,0.0,0.0,0.0,0.0,0.0,0.0,4.0397,3.9887,0.0,0.0,0.0,0.0,0.0,0.0,0.0,0.0,0.0,0.0,0.0,0.0,0.0,0.0,0.0,0.0,0.0,0.0,0.0,0.0,0.0,0.0,0.0,0.0,0.0,0.0,0.0,0.0,0.0,0.0,0.0,0.0,0.0,0.0,0.0,0.0,0.0,0.0,0.0,0.0,4.0009,4.3174,4.4981,4.4145,4.4483,4.4427,4.3583,4.3935,4.3802,4.2868,4.2467,0.0,0.0,0.0,0.0,0.0,0.0,0.0,0.0,0.0,0.0,0.0,0.0,0.0,0.0,0.0,0.0,0.0,0.0,0.0,0.0,0.0,0.0,0.0,0.0,0.0,0.0,0.0,0.0,0.0,0.0,0.0,0.0,0.0,0.0,0.0,0.0,0.0,0.0,0.0,0.0,0.0,0.0,0.0,0.0,0.0,0.0,0.0,0.0,0.0,0.0,0.0,0.0,0.0,4.1694,4.1805,4.131,4.2731,4.296,4.224,4.2202,4.2422,4.2898,4.2983,0.0,0.0,0.0,0.0,0.0,0.0,0.0,0.0,0.0,0.0,0.0,0.0,0.0,0.0,0.0,0.0,0.0,0.0,0.0,0.0,0.0,0.0,4.2795,4.2032,4.2441,4.2429,4.031,0.0,0.0,0.0,0.0,0.0,0.0,0.0,0.0,0.0,0.0,0.0,4.0117,4.3579,4.5431,4.402,4.4566,4.479,4.4215,4.4824,4.5319,4.5464,4.4851,4.4294,0.0,0.0,0.0,0.0,0.0,0.0,0.0,0.0,0.0,0.0,0.0,0.0,0.0,0.0,0.0,0.0,0.0,0.0,0.0,0.0,0.0,0.0,0.0,0.0,0.0,0.0,0.0,0.0,0.0,0.0,0.0,0.0,3.7258,3.7475,0.0,0.0,0.0,0.0,0.0,0.0,0.0,0.0,0.0,0.0,0.0,0.0,0.0,3.9098,3.9528,4.0117,4.1117,4.2489,4.3297,4.4047,4.4659,4.4898,4.4926,4.4796,4.4791,0.0,4.2898,4.2975,0.0,0.0,0.0,0.0,0.0,0.0,0.0,0.0,0.0,0.0,0.0,0.0,0.0,0.0,0.0,0.0,0.0,0.0,0.0,0.0,0.0,0.0,4.7345,4.7225,4.7332,4.7353,4.6968,4.2202,3.7966,3.779,3.7755,3.7249,0.0,0.0,0.0,0.0,0.0,0.0,4.2598,4.4666,4.5854,4.5675,4.5764,4.6139,4.681,4.6994,4.7376,4.8154,4.8134,4.7102,4.4903,4.4601,0.0,0.0,0.0,0.0,0.0,0.0,0.0,0.0,0.0,0.0,0.0,0.0,0.0,0.0,0.0,0.0,0.0,0.0,0.0,0.0,0.0,0.0,0.0,0.0,0.0,0.0,0.0,0.0,0.0,3.7811,3.847,3.8946,3.9033,3.9061,0.0,0.0,0.0,0.0,0.0,0.0,0.0,0.0,0.0,4.1149,4.0611,4.1041,4.2517,4.2815,4.3611,4.4874,4.5235,4.5857,4.6729,4.6729,4.6729,4.6729,4.6729,4.6308,4.5604,4.5194,4.5322,4.58,0.0,0.0,0.0,0.0,4.6142,4.5804,4.5898,4.5868,4.565,4.4786,0.0,0.0,0.0,0.0,0.0,0.0,0.0,4.5244,4.6086,4.6907,4.7729,4.8653,4.8517,4.8308,4.884,4.6172,4.341,4.2553,4.1602,4.0288,3.8102,3.9009,0.0,0.0,0.0,4.3637,4.527,4.6568,4.7391,4.7439,4.7499,4.7673,4.8086,4.8136,4.8271,4.8692,4.9208,4.8998,4.7906,4.7405,4.6091,0.0,0.0,0.0,0.0,0.0,0.0,0.0,0.0,0.0,0.0,0.0,0.0,0.0,0.0,0.0,0.0,0.0,0.0,0.0,0.0,0.0,0.0,0.0,0.0,0.0,0.0,0.0,0.0,3.9054,3.9847,4.04,4.0721,4.0788,0.0,0.0,0.0,0.0,0.0,0.0,4.1222,4.1414,4.2086,4.3367,4.2894,4.3531,4.5452,4.5413,4.5854,4.6816,4.6816,4.7182,4.7794,4.7794,4.7794,4.7794,4.7794,4.7946,4.8067,4.7269,4.707,4.7371,4.8025,4.7981,4.7591,4.8145,4.801,4.7638,4.824,4.8215,4.7776,4.7113,4.6775,4.636,4.5128,0.0,0.0,0.0,0.0,4.7416,4.8279,4.8505,4.8812,5.0087,4.9894,4.9605,5.0286,4.9561,4.8302,4.6669,4.5325,4.3735,4.1381,4.264,0.0,4.2167,4.4132,4.6136,4.7249,4.8033,4.8486,4.858,4.8665,4.8805,4.9006,4.924,4.9489,4.9716,5.0537,5.1029,5.1113,5.0445,4.9832,4.9232,0.0,0.0,0.0,0.0,0.0,0.0,0.0,0.0,0.0,0.0,0.0,0.0,0.0,0.0,0.0,0.0,0.0,0.0,0.0,0.0,0.0,0.0,0.0,0.0,0.0,0.0,0.0,0.0,0.0,4.1217,4.1923,0.0,0.0,0.0,0.0,4.2512,4.1812,4.2031,4.3557,4.4401,4.4885,4.4962,4.5812,4.632,4.6413,4.6446,4.6866,4.775,4.775,4.775,4.7794,4.7794,4.7794,4.7794,4.7794,4.8258,4.8951,4.8105,4.8215,4.8963,4.9034,4.9104,4.9196,4.9229,4.9298,4.9378,4.9336,4.9883,5.0572,5.0484,4.9924,4.9307,4.9191,4.9238,0.0,0.0,5.1014,5.1843,5.2674,5.289,5.289,5.3005,5.2967,5.2972,5.3015,5.1717,5.0096,4.8484,4.8039,4.7388,4.5611,0.0,4.5567,4.5476,4.5526,4.6258,4.8013,4.8329,4.8441,4.8514,4.8601,4.9045,4.9846,5.0705,5.155,5.2425,5.3246,5.3727,5.3792,5.3704,5.252,5.0087,4.9887,0.0,0.0,0.0,0.0,0.0,0.0,0.0,0.0,0.0,0.0,0.0,0.0,0.0,0.0,0.0,0.0,0.0,0.0,0.0,0.0,0.0,0.0,0.0,0.0,0.0,0.0,0.0,0.0,4.2217,4.255,0.0,4.2349,4.3188,4.3885,4.415,4.489,4.5396,4.5454,4.5812,4.5998,4.6003,4.633,4.6712,4.7196,4.6654,4.6807,4.7653,4.7111,4.7439,4.8583,4.8583,4.889,4.9455,4.9455,4.9674,4.9986,4.9674,4.9702,4.9953,4.9992,5.0056,5.0123,5.012,5.0178,5.0354,5.0955,5.1368,5.1742,5.2264,5.1845,5.1284,5.1781,5.1592,5.1361,5.2192,5.2622,5.2897,5.3186,5.3228,5.3197,5.3197,5.3197,5.3208,5.3248,5.2771,5.215,5.1606,5.0168,4.8686,4.7518,4.8743,4.9481,4.8359,4.9581,5.0885,5.1567,5.168,5.1756,5.1892,5.1968,5.212,5.2474,5.2788,5.3338,5.4203,5.4515,5.4948,5.5506,5.6045,5.567,5.4258,5.4687,5.3151,0.0,0.0,0.0,0.0,0.0,0.0,0.0,0.0,0.0,0.0,0.0,0.0,0.0,0.0,0.0,0.0,0.0,0.0,0.0,0.0,0.0,0.0,0.0,0.0,0.0,4.2732,4.3621,4.3476,4.4083,4.4266,4.3654,4.4756,4.5548,4.5516,4.6259,4.6645,4.6402,4.6416,4.6439,4.646,4.6733,4.7255,4.8075,4.75,4.7653,4.8462,4.7899,4.829,4.9457,4.9457,4.9815,5.044,5.044,5.0462,5.0505,5.0521,5.0516,5.0462,5.0521,5.0563,5.0614,5.0635,5.0682,5.081,5.1481,5.1858,5.2101,5.2432,5.2675,5.2897,5.3167,5.3229,5.3368,5.3926,5.4049,5.4012,5.3991,5.3958,5.3936,5.398,5.4001,5.4038,5.412,5.413,5.4063,5.3832,5.213,5.0597,5.0066,5.1408,5.1992,5.0259,5.1914,5.3185,5.2693,5.31,5.3518,5.3701,5.373,5.3799,5.3838,5.357,5.3877,5.4996,5.4801,5.5276,5.6729,5.6786,5.6692,5.6443,5.6673,5.5261,5.2142,0.0,0.0,0.0,0.0,0.0,0.0,0.0,0.0,0.0,0.0,0.0,0.0,0.0,0.0,0.0,0.0,0.0,0.0,0.0,0.0,0.0,0.0,0.0,4.3994,4.4712,4.5201,4.5074,4.6578,4.6962,4.5346,4.5928,4.6487,4.6571,4.5647,4.5495,4.6414,4.6426,4.6458,4.6479,4.7258,4.8119,4.9038,4.9017,4.9399,5.0162,5.0215,5.0274,5.0363,5.0363,5.0402,5.0505,5.0505,5.0505,5.0511,5.0563,5.0614,5.0625,5.0609,5.0581,5.0596,5.0687,5.0776,5.0902,5.0979,5.1502,5.2002,5.1218,5.2478,5.415,5.3421,5.4265,5.5435,5.5407,5.5389,5.5408,5.5339,5.5282,5.5314,5.5443,5.5526,5.5638,5.5756,5.5895,5.573,5.4884,5.3957,5.3295,5.3359,5.3331,5.281,5.1202,5.2332,0.0,5.1258,5.2467,5.353,5.361,5.3718,5.3757,5.3721,5.2989,5.3237,5.4977,5.4283,5.4969,5.7546,5.6036,5.5513,5.6347,5.5533,5.4715,5.3896,0.0,0.0,0.0,0.0,0.0,0.0,0.0,0.0,0.0,0.0,0.0,0.0,0.0,0.0,0.0,0.0,0.0,0.0,0.0,0.0,0.0,4.5077,4.5594,4.468,4.5946,4.6882,4.6688,4.7244,4.7448,4.6883,4.6998,4.7353,4.7979,4.7706,4.7687,4.8036,4.8731,4.8873,4.8365,4.9169,4.971,4.9948,4.9349,4.9196,4.9387,4.8793,4.8832,4.9466,4.9466,4.986,5.0558,5.0558,5.0584,5.0668,5.0678,5.1034,5.1467,5.0919,5.0668,5.0692,5.0812,5.1601,5.2689,5.3249,5.398,5.4647,5.4436,5.4372,5.4446,5.4874,5.4831,5.4775,5.5378,5.5455,5.5415,5.5396,5.5358,5.5326,5.5365,5.5351,5.5376,5.5413,5.5488,5.5458,5.5319,5.5066,5.4776,5.4446,5.437,5.4413,5.4542,5.4959,5.5113,5.4637,5.4998,5.5078,5.4583,5.4573,5.4608,5.4621,5.4433,5.5019,5.6696,5.6582,5.7055,5.8428,5.8014,5.7907,5.8186,5.6166,5.5271,0.0,0.0,0.0,0.0,0.0,0.0,0.0,0.0,0.0,0.0,0.0,0.0,0.0,0.0,0.0,0.0,0.0,0.0,0.0,0.0,0.0,0.0,4.6386,4.6861,4.6252,4.7281,4.8011,4.7847,4.7979,4.7897,4.746,4.7693,4.7951,4.8109,4.8366,4.8537,4.8649,4.8853,4.8948,4.8901,4.9052,4.9623,5.0647,4.9847,4.9759,5.045,4.9974,5.0041,5.0565,5.0588,5.0958,5.1541,5.1541,5.1524,5.1595,5.1595,5.1891,5.2284,0.0,0.0,0.0,0.0,5.2411,5.3248,5.3708,5.438,5.4978,5.4666,5.466,5.4745,5.4907,5.4776,5.4676,5.5186,5.5236,5.5208,5.5208,5.5174,5.5154,5.5183,5.5261,5.5256,5.5352,5.5389,5.5473,5.5587,5.566,0.0,5.5332,5.5268,5.5191,5.4998,5.5543,5.5737,5.5045,5.5582,5.5827,5.54,5.5365,5.5494,5.5874,5.5277,0.0,0.0,0.0,5.7249,5.8137,5.8555,0.0,0.0,0.0,5.6575,5.7372,5.6934,0.0,0.0,5.5575,5.5632,0.0,0.0,0.0,0.0,0.0,0.0,0.0,0.0,0.0,0.0,0.0,0.0,0.0,0.0,0.0,0.0,4.7453,4.843,4.8398,4.8781,4.8964,4.8671,4.8654,4.8359,4.7562,4.8067,4.8211,4.7738,4.8232,4.8607,4.8689,4.8163,0.0,0.0,0.0,4.8976,5.1078,5.0486,5.0882,5.2173,5.2437,5.2547,5.2614,5.2666,5.273,5.2786,5.2786,5.2786,5.2786,5.2798,5.2942,5.3052,5.2333,5.2495,5.3187,5.32,5.3206,5.3179,5.3321,0.0,0.0,5.3478,5.4147,5.5049,5.4289,5.4486,5.4985,5.4912,5.4928,5.492,5.492,5.492,5.4919,5.5057,5.5102,5.519,5.5301,5.5473,5.5643,5.5769,5.5869,5.6015,5.6227,5.6088,5.5445,5.4143,5.5122,5.5543,5.4237,5.5277,5.6145,5.6143,5.6139,0.0,5.7154,5.585,5.5993,5.8355,5.7129,5.6657,5.7431,5.828,5.8455,5.7963,5.7981,5.8527,5.9491,5.9516,5.9513,5.9446,5.8408,5.7839,0.0,0.0,0.0,0.0,0.0,0.0,0.0,0.0,0.0,0.0,0.0,0.0,0.0,0.0,0.0,4.771,4.9077,5.0134,5.0126,5.079,5.0683,4.9118,4.9072,4.9029,4.8691,4.8234,4.8239,4.8889,4.9061,4.9144,4.9168,5.0588,5.1076,5.0416,5.1064,5.1323,5.1116,5.1764,5.1894,5.1501,5.2323,0.0,5.2755,5.2761,5.2774,5.2786,5.2786,5.2786,5.2792,5.2847,5.331,5.3875,5.3152,5.2932,5.3113,5.3742,5.3999,5.4137,5.4738,5.4957,5.4963,5.4823,5.4917,5.5095,5.4929,5.495,0.0,5.4978,5.4934,5.492,5.492,5.492,5.4928,5.4919,5.4941,5.4956,5.4985,5.5078,5.5379,5.6186,5.5941,5.6077,5.7597,5.6792,5.6102,5.6506,5.624,5.6399,5.7486,5.7288,5.7048,5.7039,5.7039,5.7112,5.7257,5.7035,5.7391,5.8582,5.8424,5.8344,5.8499,5.8669,5.9357,6.0637,6.065,6.1438,6.2996,6.3042,6.3029,6.2956,6.0725,5.9332,0.0,0.0,0.0,0.0,0.0,0.0,0.0,0.0,0.0,0.0,0.0,4.7732,4.8009,0.0,4.9303,4.9311,4.9874,5.0189,4.9824,5.0114,5.0243,4.9836,4.9482,4.91,4.8591,4.8513,4.8708,4.9209,4.9961,5.0393,5.038,5.1356,5.188,5.1785,5.1953,5.225,5.2663,5.2741,5.2764,5.2695,5.3225,5.355,5.3637,5.3673,5.3774,5.3836,5.384,5.3781,5.3788,5.3823,5.4089,5.4424,5.418,5.4058,5.4146,5.4505,5.4657,5.4689,5.5121,5.5174,5.5127,5.5123,5.5379,5.5651,5.5615,5.5845,5.611,5.6071,5.5993,5.5967,5.5967,5.5969,5.6001,5.6001,5.6071,5.6133,5.6133,5.6231,5.6447,5.6944,5.6887,5.7037,5.7976,5.7623,5.738,5.786,5.7207,5.7129,5.8415,5.8217,5.7937,5.791,5.791,5.8055,5.8452,5.9377,6.03,6.122,6.1299,6.1283,6.1283,6.1299,6.1745,6.262,6.2663,6.3097,6.3966,6.3987,6.4019,6.3987,6.3108,6.226,0.0,0.0,0.0,0.0,0.0,0.0,0.0,4.6366,4.7651,4.7815,4.8948,5.002,5.0413,5.0409,5.0288,5.0118,5.0101,4.9921,4.9447,4.9522,4.9952,5.0842,5.004,4.9243,4.8708,4.9164,4.9548,4.9582,5.0918,5.1711,5.1702,5.1867,5.2276,5.2974,5.2445,5.273,5.3936,5.3449,5.3423,5.3838,5.4105,5.4257,5.4393,5.4468,5.4581,5.4737,5.4683,5.478,5.4947,5.4979,5.5076,5.515,5.5345,5.5448,5.551,5.5358,5.5406,5.5522,5.5513,5.547,5.5449,5.5477,5.5882,5.6353,5.6299,5.6665,5.7104,5.7066,5.6998,5.6984,5.7001,5.7032,5.7062,5.7117,5.7232,5.7337,5.7337,5.7446,5.7559,5.7786,5.8012,5.8311,5.8681,5.8802,5.8832,5.8833,5.8087,5.7903,5.8956,5.8956,5.8904,5.8978,5.9176,5.9601,6.0432,6.1858,6.3024,6.3804,6.3847,6.3847,6.3847,6.3839,6.3925,6.4151,6.4155,6.4245,6.4392,6.4425,6.4468,6.4477,6.5118,6.4893,4.4803,4.493,4.5012,4.5723,4.5368,4.5786,0.0,4.909,4.885,5.0861,5.1395,5.1245,5.0351,5.0123,4.992,4.9176,4.9642,5.0339,5.1008,5.1751,5.2169,5.2187,5.0852,5.0083,5.0534,5.0653,5.0785,5.0954,5.1918,5.2484,5.2466,5.3383,5.382,5.3683,5.3785,5.3586,5.3054,5.3731,5.3685,5.2961,5.3806,5.4152,5.407,5.4041,5.4097,5.4114,5.4222,5.4704,5.5428,5.5672,5.6174,5.6761,5.6832,5.6807,5.6677,5.6216,5.6594,5.7284,5.7097,5.6988,5.6962,5.697,5.694,5.6911,5.6902,5.6871,5.683,5.6858,5.6841,5.6858,5.6984,5.701,5.7044,5.7083,5.7117,5.7134,5.7134,5.717,5.7518,5.8479,5.8778,5.9431,6.1102,6.0845,6.0238,5.968,5.8935,5.9034,6.0615,6.019,6.0035,6.0722,6.1576,6.2413,6.3339,6.3622,6.3806,6.3969,6.3972,6.3972,6.3972,6.393,6.4259,6.5052,6.5052,6.5401,6.6139,6.6143,6.6143,6.6139,6.6174,6.539,4.6809,4.6794,4.6563,4.7816,4.8253,4.878,5.0394,5.0942,5.1362,5.226,5.239,5.2162,5.1682,5.1564,5.1305,5.0488,5.1045,5.1528,5.1416,5.1676,5.2039,5.237,5.1815,5.1296,5.1109,5.1563,5.1935,5.2011,5.279,5.3225,5.3253,5.3522,5.3641,5.362,5.3639,5.3493,5.3254,5.3599,5.3599,5.3217,5.3599,5.3804,5.3879,5.3879,5.4242,5.4891,5.5332,5.5789,5.6197,5.6262,5.6496,5.6758,5.6841,5.7177,5.7522,5.6794,5.6835,5.7232,5.7062,5.7029,5.7066,5.6978,5.7212,5.7518,5.7518,5.7791,5.8091,5.8091,5.838,5.8743,5.8791,5.9223,5.9618,5.9656,5.9768,5.9895,5.9895,5.9967,6.0167,6.0631,6.0803,6.1155,6.2064,6.2056,6.1875,6.1715,6.1031,6.1059,6.2323,6.2179,6.2181,6.2621,6.3029,6.3624,6.4578,6.466,6.4874,6.5417,6.546,6.5693,6.6201,6.6159,6.6497,6.7293,6.7293,6.7416,6.7662,6.7764,6.7793,6.7793,6.7822,6.7462,4.7842,4.8156,4.8433,4.9596,5.0576,5.1224,5.1322,5.2281,5.3165,5.3271,5.3185,5.2947,5.2508,5.2512,5.2271,5.1231,5.1714,5.2159,5.1788,5.1714,5.2011,5.2676,5.276,5.2538,5.1888,5.2436,5.2854,5.2854,5.3343,5.3627,5.3627,5.3451,5.34,5.3481,5.34,5.34,5.3491,5.3491,5.3471,5.344,5.3662,5.3833,5.398,5.4212,5.4768,5.5603,5.6123,5.6544,5.6874,5.6854,5.7012,5.7189,5.7276,5.7838,5.8521,5.7903,5.764,5.7597,5.7471,5.7621,5.7863,5.7818,5.8297,5.8904,5.8943,5.9277,5.9627,5.9694,6.0062,6.0437,6.0536,6.1066,6.1548,6.1569,6.172,6.1874,6.1874,6.1968,6.2033,6.2079,6.234,6.256,6.2749,6.3128,6.3436,6.3549,6.3208,6.3034,6.3388,6.3461,6.3615,6.4039,6.428,6.4824,6.5765,6.6041,6.6441,6.7053,6.7092,6.7407,6.8028,6.7984,6.8191,6.8731,6.8731,6.87,6.8629,6.8715,6.8761,6.8815,6.8825,6.884,4.7791,4.9018,5.0772,5.0685,5.1302,5.2153,5.2777,5.3074,5.3403,5.4175,5.4187,5.3577,5.2025,5.2222,5.2048,5.0404,5.0859,5.1714,5.2457,5.2568,5.2828,5.3565,5.3717,5.367,5.3437,5.3454,5.3464,5.3464,5.3491,5.3491,5.3491,5.3481,5.3481,5.3491,5.3481,5.3481,5.3491,5.3491,5.343,5.3318,5.4091,5.4444,5.4421,5.5203,5.5636,5.5802,5.5887,5.6446,5.7285,5.7478,5.7972,5.8634,5.8784,5.9248,5.9823,5.9823,5.957,5.9197,5.8997,5.9452,6.0135,6.0234,6.0793,6.1406,6.1554,6.1406,6.1241,6.1382,6.134,6.1309,6.1562,6.1659,6.1726,6.1777,6.1806,6.1816,6.1816,6.1816,6.1873,6.2051,6.271,6.3311,6.3527,6.4282,6.483,6.483,6.4984,6.4679,6.3469,6.3368,6.3763,6.4662,6.5527,6.6399,6.7346,6.8163,6.8622,6.8628,6.8628,6.8666,6.8666,6.8607,6.858,6.8613,6.8613,6.8641,6.8689,6.8694,6.8726,6.881,6.8756,6.8734,4.9243,5.0031,5.0828,5.1944,5.2457,5.2894,5.3728,5.3979,5.4071,5.4334,5.3821,5.3137,5.2586,5.2557,5.2419,5.1862,5.2447,5.3088,5.3348,5.3413,5.3449,5.3676,5.3733,5.3696,5.3627,5.3617,5.3598,5.3491,5.3491,5.3558,5.3617,5.3451,5.341,5.3481,5.3375,5.3592,5.4227,5.4227,5.4506,5.5017,5.5286,5.5407,5.5374,5.6259,5.6645,5.6699,5.7349,5.7905,5.8425,5.9028,5.9451,5.9818,6.0408,6.077,6.0963,6.0963,6.0869,6.0756,6.0577,6.0815,6.1187,6.1147,6.1294,6.1498,6.1538,6.1498,6.1446,6.1477,6.183,6.2267,6.234,6.2772,6.3156,6.3187,6.3249,6.331,6.331,6.3821,6.4267,6.4326,6.5033,6.5667,6.5823,6.6182,6.6527,6.6848,6.6483,6.6097,6.5865,6.6412,6.6979,6.7288,6.7636,6.7938,6.8269,6.854,6.8694,6.8694,6.8694,6.8965,6.9545,6.9524,6.9745,7.0242,7.0242,7.023,7.0212,7.0254,7.0351,7.0374,7.0413,7.038,5.0616,5.1257,5.1744,5.3144,5.3498,5.3665,5.4242,5.4409,5.4409,5.4409,5.3596,5.2801,5.2511,5.2529,5.2466,5.2094,5.2974,5.3678,5.3678,5.3678,5.3696,5.3627,5.3617,5.3568,5.3457,5.3447,5.3477,5.3568,5.3578,5.3588,5.3617,5.3416,5.3476,5.3924,5.3624,5.3978,5.4959,5.4872,5.5283,5.6207,5.633,5.6477,5.6745,5.737,5.7814,5.8138,5.88,5.9355,5.9882,6.0377,6.0652,6.0788,6.13,6.1674,6.1936,6.1936,6.2143,6.2313,6.1612,6.1674,6.2048,6.2007,6.2184,6.2456,6.2497,6.2477,6.2456,6.2497,6.2851,6.3194,6.3273,6.3657,6.4042,6.4073,6.4339,6.4616,6.4697,6.5376,6.6008,6.6049,6.648,6.6886,6.7019,6.7107,6.7297,6.7702,6.755,6.7439,6.7524,6.8096,6.8485,6.8541,6.8853,6.9069,6.9069,6.9301,6.9494,6.9494,6.9494,6.9726,7.0305,7.0305,7.0539,7.103,7.103,7.1018,7.1005,7.1024,7.1068,7.1136,7.1154,7.1118,5.1743,5.2615,5.3441,5.4221,5.4409,5.4409,5.4409,5.4409,5.4409,5.4409,5.3634,5.2726,5.195,5.2296,5.2308,5.1284,5.2447,5.3481,5.3471,5.3471,5.3471,5.3471,5.3461,5.3365,5.3075,5.3032,5.324,5.3726,5.3728,5.3662,5.3545,5.3377,5.3724,5.4716,5.4316,5.4585,5.5647,5.5471,5.5873,5.6859,5.7129,5.7691,5.8478,5.8539,5.9064,5.9982,6.0077,6.0665,6.1487,6.1562,6.1562,6.1582,6.162,6.2095,6.2768,6.2768,6.3364,6.3923,6.2286,6.217,6.2789,6.2939,6.3494,6.4152,6.4264,6.4213,6.4152,6.4302,6.4251,6.4237,6.4387,6.4455,6.4447,6.4536,6.5078,6.5632,6.584,6.6452,6.7015,6.7124,6.7103,6.7063,6.7209,6.7229,6.7335,6.7574,6.8273,6.8663,6.8381,6.8398,6.8419,6.8518,6.9263,6.9731,6.9731,7.0468,7.0898,7.0898,7.0898,7.0898,7.0885,7.0885,7.0885,7.0878,7.0878,7.0912,7.0979,7.0919,7.0925,7.0992,7.0925,7.0898,5.2636,5.3478,5.4146,5.4334,5.4409,5.4409,5.4409,5.4409,5.4409,5.4409,5.3984,5.3599,5.3493,5.3461,5.3296,5.291,5.3222,5.343,5.323,5.3209,5.3209,5.3209,5.3025,5.3094,5.3605,5.3508,5.3658,5.438,5.4135,5.395,5.4015,5.4433,5.4861,5.5214,5.5023,5.5354,5.6344,5.711,5.7559,5.7703,5.7903,5.8478,5.9302,5.9198,5.9775,6.0789,6.0663,6.0964,6.1535,6.2039,6.2405,6.2741,6.3351,6.3726,6.3876,6.3876,6.4411,6.5097,6.4626,6.4203,6.3913,6.3944,6.4066,6.4254,6.4284,6.4274,6.4367,6.5025,6.5226,6.5427,6.6059,6.6327,6.6386,6.6416,6.6547,6.6698,6.6747,6.7378,6.7962,6.7992,6.8532,6.8997,6.9027,6.9133,6.9257,6.9391,6.9617,6.9531,6.8954,6.9444,6.9865,6.9888,7.0233,7.0467,7.0467,7.0721,7.0898,7.0898,7.0898,7.085,7.0782,7.0736,7.0677,7.0547,7.0547,7.0547,7.0638,7.0676,7.0695,7.0766,7.0846,7.0843,5.3508,5.4071,5.4392,5.4277,5.4259,5.4233,5.4145,5.4127,5.4127,5.4127,5.344,5.2902,5.3209,5.2835,5.2638,5.2941,5.3291,5.357,5.3615,5.3642,5.3642,5.3642,5.3491,5.3543,5.3929,5.3819,5.3912,5.4367,5.4351,5.4346,5.4416,5.4664,5.5099,5.5756,5.5534,5.5837,5.6855,5.7624,5.812,5.8346,5.8591,5.9147,5.9932,5.9967,6.0547,6.1478,6.1582,6.1964,6.2591,6.3109,6.3409,6.3721,6.451,6.481,6.4885,6.5271,6.5684,6.6049,6.6049,6.5759,6.5383,6.5383,6.5383,6.5383,6.5383,6.5383,6.5496,6.5936,6.6131,6.6335,6.6787,6.699,6.7116,6.7155,6.739,6.7654,6.7741,6.8365,6.895,6.8999,6.9464,6.9825,6.9777,6.9863,6.9948,7.0012,7.0021,6.9867,6.9517,7.0014,7.0411,7.0411,7.0507,7.0562,7.0562,7.0647,7.0692,7.0692,7.0692,7.0654,7.057,7.0562,7.0515,7.0411,7.0411,7.0435,7.0453,7.0461,7.0508,7.0555,7.0601,7.0616,5.4141,5.4357,5.4297,5.41,5.4064,5.4009,5.3832,5.3784,5.3784,5.3784,5.2642,5.1788,5.2143,5.164,5.1463,5.22,5.3001,5.3725,5.4196,5.4266,5.4266,5.4266,5.4228,5.4197,5.4118,5.4051,5.4074,5.418,5.4599,5.4806,5.4772,5.4644,5.5105,5.6297,5.5913,5.6194,5.7219,5.7496,5.8044,5.8794,5.9115,5.97,6.0494,6.0696,6.1302,6.2218,6.258,6.3137,6.3894,6.4202,6.4322,6.4466,6.5243,6.558,6.5655,6.6458,6.6806,6.6919,6.695,6.7036,6.7073,6.6848,6.681,6.681,6.681,6.681,6.681,6.6923,6.7006,6.7088,6.7221,6.7349,6.7447,6.7543,6.8062,6.8582,6.8717,6.9294,6.9758,6.9901,6.9957,6.9994,6.9948,7.0013,7.0012,6.9948,6.9939,6.9929,6.992,7.0156,7.0344,7.0344,7.0361,7.0378,7.0378,7.0402,7.0411,7.0411,7.0411,7.0402,7.034,7.0378,7.0369,7.0344,7.0344,7.0353,7.0361,7.0294,7.0311,7.0394,7.0328,7.0344,5.4072,5.4027,5.3889,5.3851,5.3841,5.3832,5.3794,5.3784,5.3784,5.3784,5.3358,5.283,5.2383,5.2302,5.233,5.236,5.2894,5.3467,5.3976,5.4044,5.4044,5.4044,5.3847,5.3956,5.4526,5.4388,5.4528,5.5197,5.5318,5.527,5.512,5.5692,5.6134,5.6385,5.6291,5.6657,5.7435,5.7698,5.8156,5.8699,5.9312,6.0085,6.099,6.1177,6.202,6.3288,6.2962,6.3131,6.3684,6.4193,6.4499,6.4793,6.5612,6.5909,6.5969,6.6332,6.6896,6.7479,6.7712,6.8227,6.8554,6.7224,6.681,6.681,6.681,6.681,6.6923,6.7589,6.786,6.8162,6.8932,6.9184,6.9293,6.9389,6.9512,6.9626,6.9664,6.9768,6.9901,6.9966,7.0096,7.0158,7.014,7.0211,7.0246,7.0149,7.014,7.0105,6.9994,7.0004,7.0004,7.0004,7.0102,7.0153,7.0153,7.029,7.0411,7.0411,7.0411,7.0344,7.0161,7.0153,7.0082,7.0004,7.0004,7.0003,7.0076,7.0185,7.0255,7.0302,7.0361,7.0394,5.3738,5.3595,5.3464,5.3265,5.3224,5.3224,5.325,5.3287,5.3287,5.3287,5.2784,5.2322,5.2233,5.1919,5.1813,5.2324,5.2973,5.3575,5.4095,5.4514,5.4797,5.4797,5.467,5.4726,5.5078,5.4983,5.5071,5.5458,5.5859,5.5871,5.5398,5.5851,5.6325,5.6766,5.6892,5.7318,5.8139,5.8258,5.8651,5.933,5.9733,6.0458,6.1411,6.1673,6.2288,6.3112,6.3469,6.3774,6.4062,6.4889,6.5305,6.5485,6.6302,6.6719,6.6883,6.7456,6.7991,6.8439,6.8597,6.8892,6.908,6.8302,6.8039,6.8039,6.8039,6.8039,6.8125,6.8602,6.8819,6.9046,6.9524,6.9747,6.9834,6.9882,6.9901,6.9901,6.9901,6.9939,6.9966,7.0096,7.0194,7.0255,7.0255,7.0289,7.0289,7.0203,7.0185,7.0167,7.0123,7.0077,7.0013,6.991,6.9948,7.0003,7.0003,7.0085,7.0138,7.0138,7.0138,7.0093,7.0003,7.0003,6.9957,6.9901,6.9901,6.9948,7.0003,7.0048,7.0185,7.0286,7.0328,7.0369,5.3208,5.3073,5.2881,5.2652,5.2596,5.2596,5.2717,5.2717,5.2717,5.2717,5.2151,5.1667,5.1814,5.1347,5.1222,5.2223,5.3036,5.3774,5.4448,5.5107,5.5493,5.5493,5.5493,5.5493,5.5493,5.5633,5.5738,5.5738,5.642,5.6596,5.6019,5.6185,5.6614,5.7229,5.7433,5.7939,5.8771,5.88,5.9221,6.0004,6.0231,6.0798,6.1614,6.2164,6.2506,6.278,6.3894,6.4363,6.4449,6.5472,6.5928,6.6087,6.6902,6.7357,6.7719,6.8469,6.882,6.8983,6.9138,6.916,6.9127,6.9171,6.9192,6.9192,6.9192,6.9203,6.9257,6.9353,6.9505,6.9617,6.9679,6.9767,6.9872,6.9891,6.991,6.9929,6.9929,7.0004,7.0067,7.0194,7.0272,7.0286,7.0302,7.0311,7.0286,7.0255,7.0246,7.0238,7.022,7.0194,7.0123,6.9948,6.9929,6.992,6.9901,6.9901,6.9901,6.9901,6.9901,6.9901,6.9901,6.9901,6.9901,6.9901,6.992,6.9976,7.0039,7.0058,7.0156,7.0311,7.0311,7.0344,5.254,5.2347,5.2125,5.222,5.2243,5.2267,5.2408,5.2431,5.2431,5.2431,5.222,5.1838,5.1143,5.1137,5.1492,5.2276,5.2872,5.3725,5.5191,5.5458,5.5493,5.5493,5.5493,5.5493,5.5493,5.6104,5.649,5.649,5.7228,5.7649,5.7579,5.7594,5.766,5.773,5.7745,5.8147,5.8956,5.9091,5.9556,6.0368,6.0921,6.125,6.1365,6.2498,6.3019,6.3083,6.3959,6.4299,6.4372,6.5212,6.5722,6.6067,6.6884,6.7405,6.7763,6.8309,6.8383,6.8297,6.8971,6.9061,6.8889,6.9127,6.9192,6.9192,6.9192,6.9278,6.9374,6.9384,6.9505,6.9617,6.9679,6.9709,6.9748,6.9872,6.9967,6.9994,6.9994,7.0105,7.0203,7.0289,7.0315,7.0311,7.0386,7.0402,7.0394,7.0394,7.0386,7.0361,7.0315,7.0238,7.0149,7.0003,6.9994,6.9957,6.9901,6.9901,6.9901,6.9901,6.9901,6.9901,6.9901,6.9901,6.9901,6.9901,6.9948,7.0039,7.0176,7.0255,7.0311,7.0402,7.0402,7.0402,5.2126,5.1982,5.1846,5.1896,5.192,5.1969,5.2174,5.2221,5.2221,5.2221,5.2018,5.1808,5.1811,5.1418,5.147,5.2668,5.3064,5.3591,5.463,5.5177,5.5668,5.6104,5.6174,5.635,5.6842,5.7158,5.7509,5.8,5.8351,5.8737,5.9159,5.8316,5.8035,5.8527,5.8527,5.896,5.9828,5.9906,6.0125,6.0536,6.1331,6.1816,6.2059,6.3113,6.3675,6.3882,6.4657,6.5133,6.5398,6.6175,6.6736,6.7071,6.7378,6.7664,6.7978,6.8171,6.8284,6.8371,6.8672,6.8707,6.8648,6.8742,6.8869,6.8979,6.9149,6.9278,6.9432,6.9505,6.9597,6.9669,6.9777,6.9834,6.9844,6.9891,6.9938,7.0003,7.0003,7.0129,7.0281,7.0277,7.0328,7.0369,7.0402,7.0411,7.0411,7.0411,7.0369,7.0319,7.0286,7.0246,7.0149,7.0012,6.9948,6.9939,6.9901,6.9901,6.9901,6.9901,6.9901,6.9901,6.9901,6.9901,6.9901,6.9901,6.9939,7.0032,7.0185,7.022,7.0315,7.0411,7.0411,7.0411,5.1374,5.1406,5.1543,5.1582,5.162,5.1708,5.1944,5.1993,5.1993,5.1993,5.1772,5.1676,5.1997,5.163,5.17,5.3008,5.338,5.3787,5.4559,5.5142,5.5703,5.621,5.6455,5.6806,5.7403,5.7895,5.8492,5.9264,5.9334,5.9545,6.0072,5.9053,5.8737,5.9299,5.9334,5.9659,6.0396,6.067,6.087,6.1025,6.1976,6.2531,6.2794,6.3687,6.4211,6.4418,6.5226,6.572,6.5982,6.654,6.6997,6.728,6.728,6.7447,6.7717,6.776,6.7865,6.7994,6.816,6.821,6.8259,6.8346,6.8504,6.8751,6.9027,6.9225,6.9443,6.9556,6.9687,6.9767,6.9882,6.9901,6.9901,6.9901,6.9995,7.0048,7.0048,7.0191,7.0319,7.0319,7.0353,7.0369,7.0369,7.0369,7.0361,7.0336,7.0302,7.0277,7.0281,7.0203,7.0114,7.0012,7.0147,7.0166,6.9939,6.9901,6.9901,6.9901,7.0128,7.0242,7.0242,7.0507,7.0659,7.0659,7.0716,7.081,7.0946,7.1008,7.1095,7.1175,7.1175,7.1175,5.0188,5.0488,5.1149,5.1272,5.1402,5.1531,5.1683,5.1685,5.1685,5.1685,5.1607,5.1454,5.1324,5.1781,5.2422,5.3092,5.3787,5.4559,5.5352,5.5493,5.5493,5.5493,5.6174,5.6596,5.6596,5.807,5.9299,6.0036,6.0072,6.0072,6.0107,6.0072,6.0072,6.0072,6.0072,6.0186,6.0396,6.131,6.1856,6.2011,6.2943,6.3392,6.3428,6.4234,6.4575,6.4626,6.5447,6.582,6.582,6.582,6.6025,6.63,6.63,6.6482,6.6743,6.7024,6.6939,6.6801,6.7337,6.754,6.763,6.7919,6.8235,6.8541,6.8751,6.9078,6.9443,6.9556,6.9737,6.9891,6.9901,6.9901,6.9901,6.9901,7.005,7.0185,7.0185,7.0286,7.0411,7.0411,7.0344,7.0286,7.0286,7.0286,7.0289,7.0203,7.0264,7.0289,7.0203,7.0067,7.0003,7.0003,7.064,7.0773,6.9977,6.9901,6.9901,6.9901,7.0659,7.1076,7.1076,7.191,7.2365,7.2365,7.2557,7.265,7.2659,7.2884,7.2979,7.2979,7.2979,7.2979,5.0845,5.0977,5.1272,5.1402,5.1543,5.1658,5.1708,5.1721,5.1721,5.1721,5.1594,5.1631,5.1984,5.179,5.2284,5.4427,5.4597,5.4872,5.6084,5.6736,5.7087,5.7087,5.8211,5.8983,5.8983,5.944,5.9861,6.0072,6.0107,6.0107,6.0107,6.0107,6.0107,6.0107,6.0107,6.0496,6.1345,6.1656,6.2167,6.2979,6.381,6.4234,6.4269,6.5054,6.5411,6.5447,6.5697,6.5931,6.613,6.613,6.6315,6.6551,6.6551,6.661,6.6714,6.6816,6.6787,6.6728,6.6881,6.6953,6.7046,6.7355,6.7786,6.8222,6.8529,6.8832,6.9187,6.9559,6.9699,6.9767,6.9882,6.9901,6.9901,6.9901,6.9995,7.0048,7.0048,7.0185,7.0272,7.0272,7.0246,7.0246,7.0268,7.0286,7.0277,7.0281,7.0246,7.0422,7.0903,7.0839,7.0972,7.1579,7.1854,7.1645,7.0811,7.1266,7.1607,7.1607,7.1834,7.1986,7.1986,7.2251,7.2432,7.2462,7.2529,7.2622,7.2767,7.2829,7.2919,7.2979,7.2979,7.3327,5.0853,5.1025,5.1402,5.1479,5.1607,5.1721,5.1721,5.1721,5.1721,5.1721,5.1645,5.178,5.2382,5.2356,5.2891,5.4916,5.5121,5.5439,5.654,5.7143,5.7655,5.8176,5.9151,5.9902,6.0167,6.0266,6.0266,6.0218,6.0202,6.0171,6.0123,6.0388,6.0595,6.064,6.064,6.1155,6.2202,6.26,6.3148,6.3877,6.4662,6.5038,6.5074,6.559,6.5804,6.5804,6.5804,6.5931,0.0,6.6099,6.6207,6.6376,6.6376,6.6376,6.6376,6.6376,6.6376,6.6391,6.6527,6.661,6.6743,6.7111,6.7614,6.816,6.842,6.8846,6.931,6.962,6.9738,6.9777,6.9882,6.9901,6.9901,6.9901,6.9938,7.0003,7.0003,7.0378,7.0733,7.0733,7.0706,7.0659,7.0712,7.0428,7.0279,7.0548,7.0606,7.0894,7.1636,7.1645,7.1796,7.2327,7.2403,7.2309,7.211,7.2271,7.2251,7.1948,7.2213,7.2251,7.191,7.2517,7.2897,7.3004,7.3346,7.3601,7.3718,7.38,7.3861,7.3985,7.3985,7.4303,0.0,5.0835,5.1479,5.1492,5.1594,5.1708,5.1708,5.1721,0.0,5.1708,5.1695,5.1907,5.2549,5.3234,5.3926,5.4739,5.5419,5.6106,5.6864,5.7011,5.755,5.8944,5.921,5.96,6.0325,6.0485,6.0516,6.0396,6.038,6.0317,6.0123,6.086,6.1398,6.1575,6.1662,6.211,6.3013,6.3918,6.4504,6.4682,6.5447,6.5804,6.5804,6.5804,6.5804,6.5804,6.5804,6.5804,6.5804,6.5804,6.5804,6.5804,6.5804,6.5788,6.5788,6.5788,6.5772,6.582,6.6115,6.6421,6.6669,6.7083,6.7667,6.8297,6.8456,6.9005,6.9587,6.9649,6.9767,6.9891,6.9891,6.9939,6.9986,6.9986,7.009,7.0193,7.0193,7.0975,7.1624,7.1585,7.1515,7.1461,7.1385,7.0713,7.0393,7.1095,7.1314,7.1646,7.2309,7.2403,7.2403,7.2403,7.2403,7.2745,7.364,7.2917,7.2062,7.1351,7.1986,7.2024,7.1228,7.2696,7.3618,7.3811,7.4752,7.5237,7.5338,7.5436,7.5523,7.5608,7.5608,7.5658,5.1218,0.0,5.1376,5.1467,5.1518,5.1569,0.0,5.1721,5.1683,5.1569,5.1543,5.1754,5.2418,5.2293,5.2825,5.5242,5.5383,5.578,5.7499,5.8174,5.8901,5.9945,6.0098,6.0184,6.036,6.0427,6.038,6.0186,6.0171,6.0155,6.0107,6.0938,6.1738,6.2405,6.3245,6.3831,6.404,6.4266,6.4789,6.5518,6.5697,6.5804,6.5804,6.5804,6.5804,6.5804,6.5804,6.5804,6.5804,6.5804,6.5804,6.5804,6.5804,6.5724,6.5559,6.5559,6.5513,6.5447,6.5607,6.5736,6.5922,6.6838,6.7483,6.8033,6.8575,6.8979,6.9321,6.9436,6.96,6.9758,6.9882,7.0451,7.0962,7.0962,7.1427,7.1902,7.1902,7.2073,7.2016,7.1371,7.1731,7.2007,7.1436,7.1655,7.1969,7.2139,7.2196,7.2253,7.2385,7.2403,7.2403,7.2403,7.2403,7.2488,7.2707,7.2536,7.2632,7.3117,7.267,7.2327,7.21,7.2479,7.306,7.3849,7.49,7.5445,7.5532,7.5557,7.5616,7.5668,7.5668,7.5747,5.1475,5.1492,5.1415,5.1479,5.1543,5.162,5.1695,5.1721,5.167,5.1531,5.1543,5.1805,5.247,5.2927,5.3704,5.533,5.6203,5.7143,5.8466,5.9263,5.9855,6.0215,6.0411,6.0474,6.0411,6.0458,6.0568,6.0727,6.0746,6.0854,6.1141,6.2042,6.2807,6.3331,6.435,6.4906,6.4906,6.4986,6.5296,6.5804,6.5804,6.5804,6.5804,6.5804,6.5804,6.5804,6.5804,6.5804,6.5804,6.5804,6.5804,6.5804,6.5804,6.5691,6.5494,6.5494,6.5431,6.5332,6.5526,6.5732,6.615,6.7193,6.7625,6.7863,6.8766,6.9027,6.9078,6.9347,6.9501,6.9669,6.9863,7.028,7.0659,7.0659,7.1266,7.1874,7.1874,7.2481,7.2888,7.2433,7.2737,7.2908,7.251,7.2443,7.2595,7.2964,7.3002,7.2983,7.2971,7.2962,7.281,7.2441,7.2024,7.2139,7.3032,7.1968,7.1797,7.3117,7.2728,7.2281,7.1902,7.2623,7.3517,7.4522,7.5207,7.5574,7.5658,7.5658,7.5707,7.5786,7.5786,7.5833,5.1314,5.162,5.1673,5.1566,5.1607,5.1683,5.1683,5.1683,5.1645,5.1492,5.1676,5.2083,5.2918,5.4207,5.5285,5.5656,5.7469,5.8942,5.9335,6.0052,6.0439,6.0186,6.0392,6.0572,6.0588,6.0662,6.098,6.1581,6.1636,6.1885,6.2403,6.3343,6.3948,6.4147,6.5054,6.5526,6.5526,6.5724,6.5804,6.5804,6.5804,6.5732,6.5625,6.5625,6.5554,6.5447,6.5554,6.5625,6.5625,6.5768,6.5804,6.5804,6.5772,6.5659,6.5461,6.5428,6.5313,6.5266,6.5491,6.5922,6.6545,6.7649,6.7867,6.7931,6.9084,6.9286,6.9228,6.9702,6.9669,6.9552,6.9767,7.009,7.0318,7.0309,7.1029,7.1721,7.1712,7.2898,7.3934,7.382,7.3896,7.3934,7.3782,7.322,7.3009,7.371,7.3785,7.371,7.3444,7.3406,7.3075,7.2137,7.1379,7.156,7.3145,7.1228,7.0602,7.2225,7.2329,7.2063,7.155,7.3022,7.4257,7.5109,7.5447,7.5658,7.5716,7.5716,7.5794,7.591,7.591,7.5948,5.0814,5.166,5.2516,5.1826,5.1607,5.1531,5.1531,5.1531,5.1492,5.1363,5.1895,5.2834,5.4349,5.4852,5.5711,5.7804,5.8792,5.9264,5.9243,5.9773,6.0218,6.0348,6.0396,6.0658,6.1261,6.1347,6.1617,6.2228,6.2263,6.2383,6.2638,6.3559,6.4163,6.434,6.5248,6.5756,6.5756,6.5788,6.5804,6.5804,6.5804,6.5447,6.4789,6.4789,6.4412,6.3805,6.4483,6.4789,6.4824,6.5518,6.5804,6.5788,6.5591,6.548,6.5316,6.5149,6.498,6.4809,6.503,6.5346,6.5843,6.7101,6.786,6.8511,6.9756,7.033,7.071,7.1201,7.046,6.9511,6.9552,7.0887,7.2223,7.213,7.3355,7.4524,7.4447,7.4596,7.4498,7.3767,7.4232,7.4498,7.3777,7.4099,7.4553,7.4695,7.4695,7.4174,7.2782,7.2592,7.1986,7.047,7.0166,7.0214,7.0479,7.0185,7.0439,7.149,7.1531,7.1797,7.2459,7.3536,7.4205,7.4384,7.5242,7.5755,7.5872,7.5872,7.5918,7.5993,7.5993,7.6,5.0458,5.098,5.1645,5.2296,5.2811,5.3108,5.3031,5.3404,5.3557,5.2794,5.3406,5.4282,5.4887,5.5747,5.7155,5.9463,5.9591,5.9486,5.9812,6.0149,6.0517,6.0924,6.109,6.1408,6.2088,6.2142,6.2394,6.3002,6.3038,6.3315,6.3921,6.444,6.4798,6.4996,6.5529,6.559,6.5161,6.5145,6.5375,6.5804,6.5375,6.5197,6.5233,6.4789,6.4662,6.4697,6.509,6.5268,6.5268,6.5661,6.5804,6.5788,6.5707,6.5578,6.5398,6.5232,6.5115,6.5048,6.5132,6.5682,6.6504,6.7669,6.8494,6.9323,7.0773,7.113,7.1177,7.1695,7.1315,7.0744,7.0982,7.1796,7.2538,7.2443,7.3411,7.4342,7.4254,7.4584,7.4771,7.4392,7.4619,7.4771,7.4354,7.4619,7.4884,7.4884,7.4884,7.444,7.3227,7.3037,7.2583,7.1379,7.1276,7.1523,7.2035,7.1701,7.1651,7.2131,7.2133,7.2722,7.4164,7.4205,7.4452,7.5004,7.5547,7.5879,7.5955,7.5955,7.5978,7.6015,7.6015,7.6015,5.0079,5.047,5.1064,5.267,5.3487,5.3966,5.4402,5.4906,5.5082,5.4501,5.5178,5.5821,5.5632,5.6977,5.8602,6.0219,5.9982,5.9849,6.0505,6.0721,6.1066,6.1681,6.1934,6.2268,6.288,6.2936,6.3171,6.381,6.3914,6.4262,6.5046,6.5266,6.5325,6.5294,6.5438,6.5126,6.4341,6.4325,6.4626,6.5233,6.4789,6.4824,6.5233,6.4804,6.4824,6.5233,6.5447,6.5518,6.5518,6.5732,6.5804,6.5804,6.5756,6.5627,6.5428,6.5349,6.5405,6.5547,6.5597,6.6377,6.7504,6.859,6.9403,7.0236,7.1746,7.1988,7.189,7.2423,7.2493,7.2434,7.2399,7.2575,7.2775,7.2756,7.3401,7.4008,7.3979,7.451,7.4965,7.4965,7.4965,7.4965,7.4965,7.4965,7.4965,7.4965,7.4965,7.4662,7.3789,7.3675,7.3372,7.2557,7.251,7.287,7.3599,7.3103,7.2843,7.3165,7.3348,7.4091,7.5459,7.4937,7.4944,7.5724,7.5879,7.5948,7.6015,7.6015,7.6015,7.6015,7.6015,7.6015,4.9531,5.0653,5.1979,5.2863,5.2489,5.246,5.4638,5.4496,5.4318,5.5749,5.6687,5.7277,5.739,5.8588,5.9544,5.9522,5.9955,6.0524,6.1174,6.1338,6.1732,6.2511,6.2633,6.2915,6.3656,6.3612,6.3845,6.4548,6.479,6.5011,6.5266,6.5395,6.5239,6.4702,6.4682,6.4289,6.3484,6.35,6.3535,6.3571,6.4269,6.4234,6.3607,6.4305,6.4234,6.3607,6.4376,6.4682,6.4753,6.5482,6.5804,6.5788,6.5575,6.5464,6.5316,6.5299,6.5743,6.6361,6.6527,6.7357,6.8486,6.9645,7.0441,7.1229,7.2466,7.3149,7.3637,7.4161,7.4432,7.4248,7.2706,7.3155,7.394,7.381,7.4504,7.515,7.5085,7.5142,7.5181,7.5181,7.5181,7.5181,7.5181,7.5181,7.5181,7.5181,7.5181,7.4876,7.3982,7.3868,7.3563,7.2764,7.2659,7.2778,7.303,7.2884,7.3259,7.4303,7.5012,7.5468,7.5591,7.5708,7.5795,7.5879,7.5963,7.6007,7.6015,7.6015,7.6015,7.6015,7.6015,7.6015,4.9114,5.0766,5.248,5.2891,5.27,5.3077,5.5397,5.617,5.6505,5.6836,5.7989,5.8751,5.8159,5.9242,6.0068,5.9491,6.0348,6.1175,6.1376,6.1782,6.2397,6.3287,6.3357,6.3674,6.445,6.4505,6.4545,6.4706,6.4912,6.5099,6.5299,6.5002,6.4737,6.461,6.4126,6.3698,6.3392,6.3392,6.3392,6.3392,6.3698,6.4234,6.4876,6.4682,6.4733,6.4912,6.5197,6.534,6.5375,6.5661,6.5804,6.5788,6.5724,6.5659,6.5611,6.5611,6.6138,6.6946,6.7123,6.8271,6.9766,7.0534,7.1369,7.2281,7.3328,7.3871,7.4241,7.4768,7.5085,7.5066,7.4296,7.4458,7.4761,7.4724,7.4971,7.5209,7.5209,7.52,7.52,7.52,7.52,7.52,7.52,7.52,7.52,7.52,7.52,7.5085,7.4752,7.4714,7.46,7.4296,7.4377,7.4528,7.4667,7.4613,7.479,7.5224,7.4998,7.5113,7.5755,7.5856,7.5918,7.597,7.6,7.6015,7.6015,7.6015,7.6015,7.6015,7.6015,7.6015,4.9792,5.1335,5.296,5.3813,5.3586,5.3868,5.647,5.7078,5.7388,5.8296,5.9015,5.9292,5.8742,5.9497,6.0083,5.9754,6.0917,6.195,6.2131,6.2556,6.3154,6.4062,6.4185,6.438,6.4944,6.4928,6.4773,6.439,6.4822,6.4918,6.4555,6.4483,6.4302,6.3897,6.3555,6.3285,6.3071,6.3285,6.3535,6.377,6.377,6.4341,6.5411,6.5126,6.5268,6.5804,6.5804,6.5804,6.5804,6.5804,6.5804,6.5804,6.5804,6.5946,6.6177,6.6225,6.6964,6.8004,6.8289,6.955,7.1035,7.1507,7.2235,7.302,7.3801,7.4199,7.4493,7.4929,7.5264,7.5474,7.5339,7.5303,7.5303,7.5303,7.5303,7.5303,7.5303,7.5303,7.5303,7.5303,7.5303,7.5303,7.5303,7.5303,7.5303,7.5303,7.5303,7.5303,7.5303,7.5303,7.5312,7.5301,7.5462,7.5731,7.6108,7.613,7.6261,7.6539,7.6007,7.5739,7.5887,7.5918,7.5955,7.6015,7.6015,7.6015,7.6015,7.6015,7.6015,7.6015,7.6015,7.6015,5.1681,5.2382,5.3473,5.5781,5.5089,5.4647,5.7775,5.6807,5.6333,6.0272,5.9692,5.8692,5.9294,5.9406,5.9628,6.0235,6.1665,6.2904,6.3511,6.3716,6.4098,6.4873,6.4979,6.4979,6.4979,6.4809,6.439,6.3618,6.464,6.4591,6.2997,6.3974,6.3877,6.2357,6.3,6.3071,6.2322,6.3071,6.3805,6.461,6.461,6.461,6.4646,6.5447,6.5804,6.5804,6.5804,6.5804,6.5804,6.5804,6.5804,6.5804,6.5804,6.6303,6.7014,6.7155,6.8222,6.9666,7.0216,7.1181,7.2248,7.2602,7.2967,7.3363,7.3691,7.4061,7.446,7.4709,7.5123,7.5509,7.5509,7.5509,7.5509,7.5509,7.5509,7.5509,7.5509,7.5509,7.5509,7.5509,7.5509,7.5509,7.5509,7.5509,7.5509,7.5509,7.5509,7.5509,7.5509,7.5509,7.5544,7.5629,7.5682,7.6116,7.7039,7.7061,7.743,7.8438,7.8446,7.7669,7.6002,7.597,7.6015,7.6015,7.6015,7.6015,7.6015,7.6015,7.6015,7.6015,7.6015,7.6015,4.9776,5.2093,5.4461,5.4341,5.529,5.6617,5.8042,5.7505,5.7263,5.9329,5.936,5.9208,5.9975,6.0711,6.1295,6.1477,6.2749,6.3733,6.3931,6.4242,6.4335,6.4054,6.4018,6.3772,6.321,6.3125,6.2986,6.2792,6.3298,6.3387,6.2926,6.2958,6.3,6.3071,6.2786,6.302,6.3912,6.4126,6.4662,6.5447,6.5447,6.5447,6.5447,6.5697,6.5804,6.5804,6.5804,6.5804,6.5804,6.5895,6.5879,6.5836,6.6072,6.657,6.7155,6.733,6.8593,7.0247,7.0665,7.1575,7.2658,7.3257,7.3552,7.3703,7.3997,7.435,7.4688,7.4788,7.5123,7.5509,7.5509,7.5509,7.5509,7.5509,7.5509,7.5509,7.5509,7.5509,7.5509,7.5509,7.5509,7.5662,7.6265,7.6341,7.6341,7.6341,7.6341,7.6341,7.6341,7.6441,7.6773,7.7497,7.7631,7.7854,7.8262,7.8197,7.8252,7.8566,7.8492,7.8254,7.7754,7.7738,7.7753,7.7753,7.7753,7.7753,7.7753,7.7753,7.7484,7.6899,7.6899,7.6592,5.2235,5.4483,5.6627,5.656,5.7142,5.7865,5.8496,5.8621,5.8929,6.0022,5.9975,6.0066,6.1132,6.1966,6.2497,6.2627,6.3461,6.4065,6.3917,6.4104,6.4109,6.3653,6.3583,6.3424,6.2932,6.2581,6.2281,6.2066,6.2589,6.2675,6.21,6.249,6.2821,6.2964,6.3127,6.3663,6.4575,6.4931,6.534,6.5804,6.5804,6.5804,6.5804,6.5804,6.5804,6.5804,6.5804,6.5836,6.5879,6.5974,6.6137,6.636,6.6679,6.7326,6.8183,6.8537,6.9565,7.0899,7.1494,7.2188,7.2963,7.359,7.3876,7.3985,7.4139,7.4487,7.4809,7.4809,7.5123,7.5509,7.5509,7.5509,7.5509,7.5509,7.5509,7.5586,7.593,7.5968,7.6083,7.6426,7.6494,7.6647,7.7144,7.722,7.7105,7.6761,7.6685,7.6817,7.7197,7.736,7.7717,7.8354,7.8484,7.872,7.9198,7.9163,7.9242,7.956,7.9546,7.9523,7.9523,7.8869,7.8484,7.8484,7.8484,7.8484,7.8484,7.8484,7.8253,7.7792,7.7792,7.7484,5.6846,5.8087,5.9124,6.0639,5.9704,5.8638,5.9278,6.0061,6.0861,6.1549,6.1211,6.1215,6.2576,6.31,6.3412,6.3682,6.4006,6.4089,6.3755,6.3635,6.3547,6.3477,6.3407,6.3372,6.3267,6.2616,6.1979,6.1456,6.2284,6.2246,6.0996,6.248,6.3143,6.2536,6.3877,6.4646,6.4717,6.5447,6.5804,6.5804,6.5804,6.5804,6.5804,6.5804,6.5804,6.5804,6.5804,6.5863,6.6021,6.6108,6.6554,6.7283,6.7563,6.8482,6.9748,7.0247,7.0905,7.1713,7.2488,7.2936,7.3244,7.3678,7.3997,7.4186,7.4186,7.4487,7.4809,7.4809,7.5123,7.5509,7.5509,7.5548,7.5624,7.5624,7.5624,7.5815,7.6532,7.6685,7.6914,7.7717,7.787,7.7908,7.7975,7.8061,7.787,7.7067,7.6885,7.715,7.8117,7.8335,7.8513,7.8707,7.8797,7.9148,7.9957,8.0027,8.033,8.107,8.1093,8.1054,8.0977,7.9561,7.8715,7.8638,7.8638,7.8638,7.8638,7.8638,7.8638,7.8638,7.8638,7.86,5.4584,5.6503,5.8614,5.8677,5.9228,5.9933,6.0803,6.1168,6.1199,6.0756,6.1608,6.2698,6.3641,6.3866,6.4147,6.481,6.4868,6.4766,6.4717,6.407,6.3389,6.2721,6.2143,6.1546,6.0914,6.0704,6.0608,6.0627,6.1506,6.1962,6.1762,6.2786,6.3627,6.4075,6.4432,6.4896,6.5554,6.5697,6.5804,6.5804,6.5804,6.5804,6.5804,6.5804,6.5804,6.5804,6.5804,6.5863,6.6072,6.6859,6.7343,6.7662,6.8517,6.9487,7.0413,7.0505,7.1376,7.2516,7.2894,7.3283,7.3691,7.4021,7.4151,7.4186,7.4186,7.4487,7.4809,7.4809,7.5123,7.5509,7.5509,7.5968,7.6456,7.6456,7.6456,7.6494,7.6647,7.6685,7.6761,7.6953,7.6991,7.7182,7.787,7.8557,7.8949,7.8757,7.82,7.8108,7.9015,7.9333,7.9738,8.0445,8.0642,8.0828,8.1076,8.0972,8.0976,8.1192,8.1131,8.0785,8.0123,8.0362,8.0208,7.9515,7.9515,7.9515,7.9515,7.9515,7.9515,7.9515,7.9515,7.9131,5.5922,5.7418,5.8704,5.947,6.0309,6.1136,6.1912,6.2399,6.264,6.2268,6.2862,6.3708,6.4388,6.4631,6.4737,6.4994,6.4662,6.4257,6.3821,6.3334,6.274,6.1984,6.1546,6.1125,6.0704,6.0668,6.0781,6.1035,6.1836,6.2419,6.2668,6.3509,6.4162,6.4575,6.4967,6.5375,6.5804,6.5804,6.5804,6.5804,6.5804,6.5804,6.5804,6.5804,6.5804,6.5804,6.5848,6.6204,6.6787,6.7467,6.8233,6.9012,6.9691,7.0472,7.1223,7.1487,7.2063,7.277,7.3257,7.359,7.3851,7.4104,7.4186,7.4209,7.4297,7.4574,7.4829,7.4939,7.5237,7.5509,7.5509,7.5815,7.6227,7.6609,7.7029,7.7449,7.7831,7.7955,7.8061,7.8443,7.8519,7.8672,7.913,7.9254,7.9425,7.9853,7.9248,7.9041,8.0017,8.0259,8.0554,8.1084,8.1241,8.1291,8.1291,8.1258,8.1199,8.1162,8.1116,8.09,8.0439,8.0862,8.0477,7.9208,7.9169,7.9169,7.9169,7.9592,7.9815,7.9815,8.0239,8.0169,5.7998,5.8929,5.9313,6.1058,6.1725,6.2139,6.2804,6.3418,6.3924,6.4207,6.4242,6.4405,6.4907,6.5115,6.5099,6.474,6.4263,6.3662,6.2738,6.2476,6.2124,6.1406,6.1195,6.116,6.13,6.13,6.1482,6.1974,6.2663,6.3247,6.3576,6.4376,6.4824,6.4824,6.5447,6.5804,6.5804,6.5804,6.5804,6.5804,6.5804,6.5804,6.5804,6.5804,6.5804,6.582,6.6086,6.672,6.7569,6.8165,6.9201,7.0489,7.0877,7.1381,7.1964,7.2481,7.27,7.2894,7.3514,7.3802,7.3912,7.4127,7.4186,7.4232,7.4387,7.46,7.4849,7.5075,7.5301,7.5548,7.5662,7.5815,7.6159,7.6953,7.7793,7.8596,7.9178,7.9292,7.9484,8.0162,8.0277,8.0353,8.0468,7.9942,7.974,8.0481,8.0057,7.9944,8.0786,8.0976,8.1062,8.1207,8.1234,8.1241,8.1214,8.1199,8.1162,8.1093,8.1093,8.1016,8.09,8.09,8.0131,7.8523,7.8638,7.8715,7.8715,7.9438,7.9892,8.0046,8.0746,8.1093,5.729,5.8834,6.0503,6.1305,6.2033,6.2823,6.3695,6.3382,6.3249,6.4589,6.4872,6.4907,6.4979,6.486,6.4758,6.4706,6.4636,6.4302,6.3564,6.2862,6.2124,6.1406,6.0668,6.0528,6.123,6.13,6.1693,6.2682,6.3477,6.4083,6.4416,6.5197,6.5625,6.5625,6.5732,6.5804,6.5804,6.5804,6.5804,6.5804,6.5804,6.5804,6.5804,6.5804,6.5804,6.5855,6.6674,6.7285,6.7811,6.9405,7.0429,7.1041,7.1631,7.2079,7.2394,7.2351,7.2714,7.3233,7.3324,7.3691,7.4151,7.4174,7.4186,7.4197,7.4232,7.4509,7.4819,7.4849,7.518,7.5662,7.6341,7.7105,7.787,7.8757,7.956,8.0009,7.9445,7.9292,7.9331,7.9445,7.9445,7.9675,8.0391,8.0391,8.039,8.0558,8.0608,8.0694,8.0871,8.1062,8.1161,8.1214,8.1222,8.1222,8.1214,8.1147,8.1108,8.1093,8.1093,8.0746,8.0008,7.9969,7.9515,7.8523,7.9246,7.9631,7.9631,7.9738,8.0208,8.0939,8.1054,8.1093,5.7426,5.9218,6.0968,6.2419,6.3157,6.3681,6.4426,6.4289,6.4168,6.4873,6.4894,6.4809,6.4809,6.4441,6.4214,6.4619,6.4689,6.4268,6.3091,6.2616,6.1949,6.0774,6.0397,6.0567,6.1341,6.1895,6.2621,6.3657,6.4437,6.4996,6.5253,6.5625,6.5804,6.5804,6.5804,6.5804,6.5804,6.5804,6.5804,6.5804,6.5804,6.5804,6.5804,6.5804,6.5804,6.5855,6.6912,6.7754,6.8507,7.0002,7.1098,7.1802,7.2146,7.238,7.2524,7.277,7.3034,7.335,7.3678,7.3971,7.4186,7.4186,7.4289,7.4376,7.4509,7.4774,7.5122,7.5704,7.6024,7.6388,7.722,7.7717,7.8213,7.9101,7.956,7.9866,7.9942,7.998,7.998,7.998,7.998,8.0086,8.043,8.0506,8.0562,8.0667,8.0767,8.086,8.1046,8.1169,8.1214,8.1214,8.1214,8.1192,8.1147,8.1116,8.1093,8.1093,8.1093,8.0939,8.0554,8.0516,8.0362,7.9939,7.9361,7.9054,7.9054,7.9554,8.0008,8.04,8.0862,8.1093,5.7263,5.8973,6.0518,6.2531,6.3444,6.404,6.4687,6.4656,6.4482,6.4482,6.4047,6.3771,6.4193,6.4106,6.4089,6.4474,6.4652,6.4196,6.2732,6.268,6.2223,6.0755,6.0882,6.142,6.2162,6.2808,6.3593,6.4621,6.519,6.5575,6.5788,6.5804,6.5804,6.5804,6.5804,6.5804,6.5804,6.5804,6.5804,6.5804,6.5804,6.5804,6.5804,6.6018,6.6089,6.6177,6.733,6.8352,6.9364,7.0605,7.1596,7.2373,7.2452,7.2539,7.2667,7.3034,7.3285,7.3502,7.3923,7.4139,7.4197,7.4266,7.4365,7.4552,7.4737,7.4997,7.5352,7.6119,7.6497,7.6914,7.7755,7.8175,7.8557,7.9407,7.9598,7.9789,8.0353,8.0506,8.0506,8.0506,8.0506,8.0506,8.0506,8.0333,8.0292,8.0422,8.0311,8.0257,8.053,8.0499,8.0537,8.0552,8.073,8.0808,8.0785,8.0977,8.1093,8.1093,8.1093,8.1093,8.1093,8.1093,8.1093,8.1093,7.9831,7.9177,7.9177,7.9823,8.0131,8.0169,8.0785,8.1093,5.6225,5.7406,5.897,6.0554,6.2118,6.3433,6.425,6.3696,6.3001,6.302,6.1836,6.127,6.2721,6.4039,6.4731,6.4226,6.4453,6.4246,6.3058,6.335,6.326,6.2036,6.2595,6.3377,6.4159,6.4105,6.4427,6.5371,6.5494,6.5575,6.5788,6.5804,6.5804,6.5804,6.5804,6.5804,6.5804,6.5804,6.5804,6.5804,6.5804,6.5804,6.5839,6.6589,6.6926,6.7014,6.8155,6.9244,7.0315,7.1466,7.2182,7.2481,7.2496,7.2667,7.2894,7.2922,7.327,7.379,7.3815,7.3985,7.4232,7.4421,7.4498,7.4552,7.4737,7.4997,7.5209,7.5266,7.5977,7.6914,7.7755,7.8596,7.9445,8.0238,8.043,8.043,8.0506,8.0506,8.0506,8.0506,8.0506,8.0506,8.0506,7.993,7.9483,7.954,7.8971,7.8592,7.872,7.8683,7.8668,7.8734,7.9407,7.9862,7.9854,8.0631,8.1093,8.1093,8.1093,8.1093,8.1093,8.1093,8.1093,8.1093,8.1016,8.0977,8.0977,8.1016,8.1016,8.1016,8.1093,8.1093,5.7757,5.8436,5.9216,6.0261,6.1559,6.252,6.2445,6.2657,6.2846,6.2619,6.2535,6.2451,6.2405,6.2895,6.3402,6.368,6.4094,6.4165,6.3566,6.3653,6.3573,6.2984,6.3137,6.3636,6.4456,6.4448,6.4789,6.562,6.5707,6.574,6.5804,6.5804,6.5804,6.5804,6.5804,6.5804,6.5804,6.5804,6.5804,6.5804,6.5804,6.6053,6.6605,6.689,6.7552,6.8497,6.9144,6.9749,7.0403,7.1681,7.2307,7.2496,7.2496,7.2644,7.2936,7.3087,7.3426,7.3827,7.3997,7.4183,7.4398,7.4487,7.5063,7.5726,7.5806,7.638,7.7111,7.7664,7.8091,7.8566,7.9398,7.9856,8.0133,8.043,8.0506,8.0506,8.0506,8.0506,8.0506,8.0506,8.0523,8.0407,7.9871,7.9598,7.931,7.8856,7.8551,7.8446,7.8573,7.8529,7.8514,7.8587,7.8837,7.8977,7.8977,7.9254,7.9669,8.0246,8.0285,8.0516,8.1093,8.1093,8.1093,8.1093,8.1093,8.1093,8.1093,8.1093,8.1093,8.1093,8.1093,8.1093,5.7325,5.7913,5.85,5.9481,6.0261,6.0925,6.1379,6.1796,6.2052,6.1828,6.2202,6.2296,6.1573,6.1663,6.2187,6.3303,6.3746,6.3973,6.3967,6.4027,6.406,6.3995,6.4205,6.4567,6.5021,6.5014,6.5217,6.5768,6.5804,6.5804,6.5804,6.5804,6.5804,6.5804,6.5804,6.5804,6.5804,6.5804,6.5804,6.5804,6.5804,6.6232,6.6998,6.7283,6.8088,6.9337,6.9999,7.0446,7.0765,7.1805,7.2321,7.2496,7.2496,7.2672,7.3003,7.322,7.354,7.3924,7.422,7.4376,7.4541,7.4691,7.5479,7.6408,7.6475,7.7196,7.8137,7.871,7.9063,7.9407,7.998,8.0315,8.0506,8.0506,8.0506,8.0506,8.0506,8.0506,8.0506,8.0506,8.0359,8.004,7.9495,7.9025,7.8549,7.803,7.7754,7.7631,7.774,7.7682,7.7783,7.8164,7.8375,7.8638,7.8907,7.9215,7.9631,8.0208,8.0246,8.0516,8.1093,8.1093,8.1093,8.1093,8.1093,8.1093,8.1093,8.1093,8.1093,8.1093,8.1093,8.1093,0.0,0.0,0.0,5.7989,5.8096,5.8567,6.1038,6.1034,6.0503,6.0558,6.0578,6.0521,6.019,6.0515,6.1358,6.3199,6.3495,6.3645,6.4237,6.4476,6.471,6.5103,6.5817,6.6172,6.6001,6.5863,6.5804,6.5804,6.5804,6.5804,6.5804,6.5804,6.5804,6.5804,6.5804,6.5804,6.5804,6.5804,6.5804,6.5804,6.5839,6.6268,6.7069,6.7818,6.8587,6.9425,7.0724,7.1372,7.1526,7.1866,7.2182,7.2496,7.2496,7.2742,7.3138,7.3259,7.3616,7.4043,7.4398,7.4519,7.4606,7.5074,7.578,7.6484,7.6708,7.7373,7.8061,7.8061,7.8672,7.9331,7.9331,7.9904,8.0506,8.0506,8.0506,8.0506,8.0506,8.0468,8.0468,8.0468,7.9853,7.9342,7.9342,7.8078,7.7085,7.7085,7.6463,7.6044,7.6122,7.6104,7.6429,7.7347,7.806,7.8823,7.9708,8.0554,8.1016,8.1054,8.1054,8.1054,8.1093,8.1093,8.1093,8.1093,8.1093,8.1093,8.1093,8.1093,8.1093,8.1093,8.1093,8.1093,5.5217,0.0,0.0,0.0,0.0,0.0,5.7129,5.759,5.8139,5.9466,6.0348,6.1008,6.147,6.2104,6.2768,6.3409,6.2921,6.2964,6.4326,6.4133,6.4419,6.5923,6.5718,6.5581,6.5965,6.5863,6.5804,6.5804,6.5804,6.5804,6.5804,6.5804,6.5804,6.5804,6.5804,6.5804,6.5804,6.5804,6.5804,6.5804,6.6375,6.7053,6.7818,6.8623,6.9391,7.021,7.0809,7.1223,7.1526,7.2024,7.2321,7.251,7.27,7.299,7.3272,7.354,7.3971,7.4376,7.4476,7.4733,7.5121,7.5856,7.676,7.7682,7.8357,7.9178,7.9818,7.9818,7.9971,8.0162,8.0162,8.0315,8.0506,8.0506,8.0506,8.0506,8.0506,8.0057,7.9618,7.9505,7.8929,7.8279,7.7628,7.7281,7.6909,7.6393,7.6654,7.6953,7.6975,7.7453,7.7915,7.816,7.8384,7.86,7.8823,7.91,7.9477,8.0123,8.0162,8.0439,8.1054,8.1093,8.1093,8.1093,8.1093,8.1093,8.1093,8.1093,8.1093,8.1093,8.1093,8.1093,5.447,5.4786,5.486,5.5093,0.0,0.0,5.7285,5.7326,5.7724,6.0418,6.1243,6.1501,6.1811,6.23,6.2591,6.2502,6.2358,6.2817,6.4459,6.4122,6.4396,6.6211,6.5858,6.5581,6.5891,6.5867,6.5804,6.5804,6.5804,6.5804,6.5804,6.5804,6.5804,6.5804,6.5804,6.5804,6.5804,6.5804,6.5804,6.5804,6.6624,6.739,6.814,6.8927,6.9748,7.0531,7.0831,7.1191,7.1526,7.1994,7.2365,7.2658,7.2839,7.3124,7.3451,7.3691,7.4066,7.4427,7.4568,7.5115,7.5789,7.6341,7.7435,7.8634,7.914,7.9866,8.0506,8.0506,8.0506,8.0506,8.0506,8.0506,8.0506,8.0506,8.0506,8.0497,8.0459,7.98,7.9228,7.9171,7.8603,7.7934,7.7437,7.7511,7.7516,7.707,7.7454,7.7792,7.7792,7.8215,7.8638,7.9015,7.9054,7.9169,7.9561,7.9592,7.9785,8.0323,8.0323,8.0554,8.1093,8.1093,8.1093,8.1093,8.1093,8.1093,8.1093,8.1093,8.1093,8.1093,8.1093,8.1093,5.3111,5.4072,5.508,5.5462,5.5002,0.0,5.9061,5.8284,5.7846,6.1509,6.1782,6.1309,6.1113,6.1333,6.1426,6.0948,6.1777,6.3006,6.4496,6.4253,6.4501,6.6074,6.6043,6.5851,6.582,6.5804,6.5804,6.5804,6.5804,6.5804,6.5804,6.5804,6.5804,6.5804,6.5804,6.5804,6.5804,6.5804,6.5839,6.5946,6.6731,6.7517,6.8266,6.907,6.9819,7.0531,7.0883,7.1207,7.1526,7.1933,7.2401,7.2908,7.2949,7.3217,7.3653,7.3914,7.4214,7.4567,7.4964,7.5758,7.6608,7.6899,7.8031,7.9331,7.9407,7.9942,8.0506,8.0506,8.0506,8.0506,8.0506,8.0506,8.0506,8.0506,8.0506,8.0478,8.0421,7.9715,7.9124,7.9246,7.8603,7.8053,7.807,7.8253,7.8375,7.8391,7.8546,7.8638,7.8638,7.8715,7.91,7.9862,7.9931,8.0246,8.1016,8.1093,8.1093,8.1093,8.1093,8.1093,8.1093,8.1093,8.1093,8.1093,8.1093,8.1093,8.1093,8.1093,8.1093,8.1093,8.1093,8.1093,5.2965,5.3159,5.3835,5.4548,5.4322,0.0,5.5232,5.4569,5.4302,5.6198,5.6976,5.758,5.8363,5.9679,6.0527,6.0149,6.1455,6.2871,6.3908,6.4056,6.456,6.5884,6.5463,6.5227,6.5748,6.5804,6.5804,6.5804,6.5804,6.5804,6.5804,6.5804,6.5804,6.5804,6.5804,6.5804,6.5804,6.5804,6.6125,6.6767,6.7533,6.8302,6.907,6.9907,7.0371,7.0548,7.1015,7.1356,7.1557,7.227,7.27,7.2936,7.3127,7.3438,7.3902,7.5004,7.5544,7.5866,7.6822,7.738,7.7824,7.8548,7.9025,7.9407,8.0057,8.0391,8.0506,8.0506,8.0506,8.0506,8.0506,8.0506,8.0506,8.0506,8.0506,8.0478,8.0421,7.9715,7.9085,7.898,7.8361,7.7873,7.7917,7.8169,7.8374,7.8477,7.9085,7.9554,7.9554,8.0169,8.0669,8.0823,8.0862,8.0939,8.1093,8.1093,8.1093,8.1093,8.1093,8.1093,8.1093,8.1093,8.1093,8.1093,8.1093,8.1093,8.1093,8.1093,8.1093,8.1093,8.1093,8.1093,5.287,5.2774,5.3431,5.4059,0.0,0.0,0.0,5.4759,5.4284,5.69,5.7417,5.7651,5.8451,5.9441,6.0137,6.016,6.1559,6.2716,6.2846,6.3855,6.4984,6.6033,6.5632,6.5435,6.5784,6.5804,6.5804,6.5804,6.5804,6.5804,6.5804,6.5804,6.5804,6.5804,6.5804,6.5804,6.5804,6.6196,6.6605,6.6998,6.8258,6.8992,6.932,7.0308,7.075,7.0783,7.1227,7.151,7.1805,7.2445,7.2867,7.3114,7.3426,7.4051,7.4882,7.5547,7.6268,7.6984,7.7501,7.8132,7.8719,7.9178,7.956,7.998,8.0391,8.0506,8.0506,8.0506,8.0506,8.0506,8.0506,8.0506,8.0506,8.0506,8.0506,8.0468,8.0314,7.998,7.9588,7.9416,7.9175,7.8914,7.8606,7.91,7.9577,7.9668,8.0138,8.0439,8.0439,8.0823,8.1093,8.1093,8.1093,8.1093,8.1093,8.1093,8.1093,8.1093,8.1093,8.1093,8.1093,8.1093,8.1285,8.1708,8.1285,8.1285,8.1708,8.1285,8.1093,8.1093,8.1093,8.1093,5.3219,5.3062,5.3792,0.0,0.0,5.4345,0.0,0.0,0.0,5.7751,5.7818,5.749,5.7933,5.8614,5.9152,5.9147,6.0947,6.209,6.1473,6.3308,6.4918,6.5514,6.5723,6.5748,6.5637,6.5427,6.5482,6.5768,6.5518,6.5482,6.5768,6.5804,6.5804,6.5804,6.5804,6.5804,6.5804,6.6605,6.7085,6.7296,6.8838,6.9589,6.9652,7.061,7.1045,7.1061,7.1431,7.179,7.2122,7.263,7.302,7.3438,7.3902,7.4786,7.5835,7.6236,7.7059,7.7959,7.816,7.8809,7.9522,7.9522,7.998,8.0506,8.0506,8.0506,8.0506,8.0506,8.0497,8.0478,8.0478,8.0468,8.0459,8.0478,8.0468,8.0402,8.0235,8.0185,8.0103,7.9941,8.0062,8.0066,7.9523,8.0211,8.0826,8.0934,8.1007,8.1093,8.1093,8.1093,8.1093,8.1093,8.1093,8.1093,8.1093,8.1093,8.117,8.1323,8.1323,8.14,8.1554,8.14,8.1554,8.2054,8.1439,8.1516,8.2285,8.1631,8.1246,8.1093,8.1093,8.1093,5.4762,5.4581,5.5546,0.0,5.5244,5.5413,0.0,0.0,5.3066,5.279,0.0,5.2941,5.2998,0.0,0.0,5.4897,5.8029,6.0397,5.9911,6.1804,6.3214,6.3141,6.4706,6.5582,6.4972,6.4148,6.4269,6.5697,6.4483,6.4305,6.5732,6.5804,6.5804,6.5804,6.5804,6.5804,6.5804,6.6605,6.7436,6.8262,6.9154,7.0008,7.0822,7.1126,7.126,7.1292,7.1744,7.2122,7.2408,7.3007,7.3438,7.3827,7.478,7.54,7.603,7.7862,7.8633,7.8893,7.9839,8.0258,8.0353,8.0353,8.043,8.0506,8.0506,8.0506,8.0506,8.0506,8.045,8.0411,8.0411,8.0305,8.0255,8.0392,8.0305,8.0225,8.0205,8.0124,8.0009,7.993,8.0124,8.0297,8.0334,8.0593,8.0852,8.1053,8.1085,8.1093,8.1093,8.1093,8.1093,8.1093,8.1093,8.1093,8.1093,8.1093,8.14,8.2131,8.217,8.2516,8.3293,8.2554,8.1862,8.1246,8.1131,8.1516,8.2285,8.2208,8.1785,8.1093,8.1093,8.1093,5.3929,5.4484,5.5716,5.4508,5.5124,0.0,5.4037,0.0,5.2471,0.0,0.0,0.0,0.0,0.0,0.0,0.0,5.7896,0.0,0.0,0.0,6.2586,6.3401,0.0,6.4711,6.4803,6.3949,6.4055,6.5697,6.4305,6.4091,6.5697,6.5804,6.5804,6.5804,6.5804,6.6066,6.6606,6.7393,6.8278,6.9229,7.0169,7.079,7.1195,7.1452,7.1625,7.1713,7.2039,7.2358,7.2719,7.3141,7.3553,7.4118,7.5811,7.6549,7.6857,7.8344,7.9284,7.9896,8.0325,8.0506,8.0506,8.0506,8.0506,8.0506,8.0506,8.0506,8.0497,8.044,8.043,8.0382,8.0285,8.0235,8.0205,8.0255,8.0235,8.0185,8.0113,8.0024,7.9961,7.9919,8.0134,8.0354,8.0487,8.0714,8.091,8.1077,8.1093,8.1093,8.1093,8.1093,8.1285,8.1747,8.1785,8.2016,8.2516,8.2562,8.267,8.3024,8.2593,8.2439,8.2832,8.2054,8.167,8.1785,8.1323,8.1747,8.3062,8.2554,8.2401,8.2562,8.2562,8.2285,5.487,5.5341,5.6174,5.4218,5.4544,5.5027,0.0,0.0,0.0,0.0,0.0,0.0,0.0,0.0,5.5499,5.6067,0.0,5.851,0.0,5.9703,0.0,0.0,0.0,0.0,0.0,6.3218,6.3306,6.5082,6.3724,6.3709,6.5697,6.5804,6.5804,6.5804,6.6018,6.6455,6.7167,6.8222,6.9125,6.9873,7.0867,7.134,7.1436,7.1718,7.1948,7.2114,7.2351,7.2658,7.3007,7.3335,7.3889,7.4734,7.6576,7.7486,7.7873,7.8959,7.9848,8.0506,8.0506,8.0506,8.0506,8.0478,8.0487,8.0497,8.044,8.045,8.045,8.0382,8.0333,8.0255,8.0175,8.0134,8.0113,8.0144,8.0134,8.0093,8.0003,8.0009,7.9978,7.9924,8.0147,8.0392,8.0496,8.0728,8.0959,8.1077,8.1093,8.117,8.14,8.1246,8.14,8.2208,8.2093,8.2208,8.287,8.2909,8.3024,8.3216,8.3093,8.2785,8.2324,8.1747,8.1593,8.1939,8.1593,8.2131,8.3601,8.324,8.3479,8.4287,8.3801,8.3255,5.9289,5.8275,5.7587,5.4472,5.3748,5.3566,5.2733,0.0,5.3663,0.0,0.0,0.0,0.0,5.5099,5.5351,5.4667,5.6071,0.0,0.0,0.0,0.0,0.0,0.0,0.0,0.0,6.1401,6.1401,0.0,6.2266,6.2672,6.5625,6.5804,6.5804,6.5804,6.6569,6.7043,6.7203,6.876,6.9728,7.0085,7.0915,7.1452,7.1801,7.1948,7.2114,7.2329,7.27,7.3057,7.3311,7.3653,7.4566,7.5846,7.6905,7.7921,7.8997,8.0039,8.0468,8.0506,8.0506,8.0506,8.0497,8.043,8.0469,8.0468,8.0275,8.0285,8.0382,8.0235,8.0124,8.0003,8.0003,7.9956,7.9941,7.9971,7.9956,7.9941,7.9971,7.9946,7.9903,7.9971,8.0257,8.0534,8.0596,8.0771,8.0959,8.1077,8.1093,8.1362,8.217,8.1593,8.14,8.2208,8.1593,8.1131,8.117,8.117,8.1516,8.2285,8.3901,8.4055,8.2362,8.2285,8.19,8.1131,8.1862,8.2708,8.3601,8.4489,8.5337,8.6069,8.4411,8.3601,5.9579,6.0375,6.0557,5.6295,5.6428,5.6717,5.3277,5.3132,0.0,0.0,0.0,0.0,0.0,5.5363,5.5773,5.5544,5.645,0.0,0.0,0.0,0.0,0.0,0.0,0.0,0.0,0.0,0.0,0.0,6.3086,0.0,6.5697,6.5804,6.6053,6.6605,6.6855,6.7628,6.8922,6.946,7.0177,7.1054,7.1307,7.1625,7.1912,7.1973,7.2255,7.27,7.2839,7.3178,7.3653,7.3898,7.4794,7.611,7.7161,7.8217,7.9276,8.0182,8.0468,8.045,8.045,8.045,8.0487,8.043,8.0421,8.0383,8.0245,8.0225,8.0235,8.0124,8.0024,7.9982,7.9946,7.993,7.9908,7.9914,7.993,7.9908,7.9914,7.9956,7.9988,7.9982,8.0257,8.0505,8.0596,8.0771,8.0959,8.1077,8.1093,8.1208,8.1477,8.1285,8.14,8.2208,8.2054,8.2131,8.2716,8.2755,8.287,8.3139,8.317,8.2901,8.2324,8.1785,8.1362,8.1093,8.1362,8.2208,8.3601,8.3933,8.4796,8.6135,8.5533,8.4972,6.11,6.2005,6.2236,5.8275,5.8456,5.8565,5.4653,5.4363,5.4943,0.0,0.0,0.0,0.0,5.6862,5.6609,5.7188,5.7224,0.0,0.0,5.6391,0.0,0.0,0.0,0.0,0.0,0.0,0.0,0.0,0.0,0.0,0.0,6.5804,6.6161,6.6962,6.7231,6.8161,6.9757,7.0097,7.0654,7.1494,7.1557,7.1728,7.2003,7.2063,7.2401,7.2922,7.298,7.3322,7.3827,7.4111,7.5134,7.6604,7.7386,7.8523,7.9733,8.0268,8.043,8.0343,8.0343,8.0344,8.0383,8.0275,8.0275,8.0313,8.0134,8.0113,8.0124,8.0013,7.9961,7.9967,7.9935,7.993,7.9898,7.9898,7.993,7.9924,7.9924,8.0009,8.0103,8.0144,8.0354,8.0505,8.0596,8.0771,8.0959,8.1077,8.1093,8.1208,8.1477,8.1285,8.14,8.2208,8.2054,8.2093,8.2678,8.2986,8.3024,8.2716,8.2439,8.217,8.19,8.1362,8.1093,8.1093,8.1362,8.2054,8.3139,8.3471,8.418,8.5249,8.5589,8.5467]}]]